[[{"header":{"parameterUnit":"m.s-1","parameterCategory":1,"la1":30.6,"la2":28.766,"lo1":-90.7593,"lo2":-88.6598,"dy":0.0162,"dx":0.0183,"nx":116,"ny":114,"refTime":"2023-08-28T06:00:00:Z","depth":0,"parameterNumber":2,"parameterNumberName":"U-component_of_WINDS"},"data":[0.0,0.0,0.0,0.0,0.0,0.0,0.0,0.0,0.0,0.0,0.0,0.0,0.0,0.0,0.0,0.0,0.0,0.0,0.0,0.0,0.0,0.0,0.0,0.0,0.0,0.0,0.0,0.0,0.0,0.0,0.0,0.0,0.0,0.0,0.0,0.0,0.0,0.0,0.0,0.0,0.0,0.0,0.0,0.0,0.0,0.0,0.0,0.0,0.0,0.0,0.0,0.0,0.0,0.0,0.0,0.0,0.0,0.0,0.0,0.0,0.0,0.0,0.0,0.0,0.0,0.0,0.0,0.0,0.0,0.0,0.0,0.0,0.0,0.0,0.0,0.0,0.0,0.0,0.0,0.0,0.0,0.0,0.0,0.0,0.0,0.0,0.0,0.0,0.0,0.0,0.0,0.0,0.0,0.0,0.0,0.0,0.0,0.0,0.0,0.0,0.0,0.0,0.0,0.0,0.0,0.0,0.0,0.0,0.0,0.0,0.0,0.0,0.0,0.0,0.0,0.0,0.0,0.0,0.0,0.0,0.0,0.0,0.0,0.0,0.0,0.0,0.0,0.0,0.0,0.0,0.0,0.0,0.0,0.0,0.0,0.0,0.0,0.0,0.0,0.0,0.0,0.0,0.0,0.0,0.0,0.0,0.0,0.0,0.0,0.0,0.0,0.0,0.0,0.0,0.0,0.0,0.0,0.0,0.0,0.0,0.0,0.0,0.0,0.0,0.0,0.0,0.0,0.0,0.0,0.0,0.0,0.0,0.0,0.0,0.0,0.0,0.0,0.0,0.0,0.0,0.0,0.0,0.0,0.0,0.0,0.0,0.0,0.0,0.0,0.0,0.0,0.0,0.0,0.0,0.0,0.0,0.0,0.0,0.0,0.0,0.0,0.0,0.0,0.0,0.0,0.0,0.0,0.0,0.0,0.0,0.0,0.0,0.0,0.0,0.0,0.0,0.0,0.0,0.0,0.0,0.0,0.0,0.0,0.0,0.0,0.0,0.0,0.0,0.0,0.0,0.0,0.0,0.0,0.0,0.0,0.0,0.0,0.0,0.0,0.0,0.0,0.0,0.0,0.0,0.0,0.0,0.0,0.0,0.0,0.0,0.0,0.0,0.0,0.0,0.0,0.0,0.0,0.0,0.0,0.0,0.0,0.0,0.0,0.0,0.0,0.0,0.0,0.0,0.0,0.0,0.0,0.0,0.0,0.0,0.0,0.0,0.0,0.0,0.0,0.0,0.0,0.0,0.0,0.0,0.0,0.0,0.0,0.0,0.0,0.0,0.0,0.0,0.0,0.0,0.0,0.0,0.0,0.0,0.0,0.0,0.0,0.0,0.0,0.0,0.0,0.0,0.0,0.0,0.0,0.0,0.0,0.0,0.0,0.0,0.0,0.0,0.0,0.0,0.0,0.0,0.0,0.0,0.0,0.0,0.0,0.0,0.0,0.0,0.0,0.0,0.0,0.0,0.0,0.0,0.0,0.0,0.0,0.0,0.0,0.0,0.0,0.0,0.0,0.0,0.0,0.0,0.0,0.0,0.0,0.0,0.0,0.0,0.0,0.0,0.0,0.0,0.0,0.0,0.0,0.0,0.0,0.0,0.0,0.0,0.0,0.0,0.0,0.0,0.0,0.0,0.0,0.0,0.0,0.0,0.0,0.0,0.0,0.0,0.0,0.0,0.0,0.0,0.0,0.0,0.0,0.0,0.0,0.0,0.0,0.0,0.0,0.0,0.0,0.0,0.0,0.0,0.0,0.0,0.0,0.0,0.0,0.0,0.0,0.0,0.0,0.0,0.0,0.0,0.0,0.0,0.0,0.0,0.0,0.0,0.0,0.0,0.0,0.0,0.0,0.0,0.0,0.0,0.0,0.0,0.0,0.0,0.0,0.0,0.0,0.0,0.0,0.0,0.0,0.0,0.0,0.0,0.0,0.0,0.0,0.0,0.0,0.0,0.0,0.0,0.0,0.0,0.0,0.0,0.0,0.0,0.0,0.0,0.0,0.0,0.0,0.0,0.0,0.0,0.0,0.0,0.0,0.0,0.0,0.0,0.0,0.0,0.0,0.0,0.0,0.0,0.0,0.0,0.0,0.0,0.0,0.0,0.0,0.0,0.0,0.0,0.0,0.0,0.0,0.0,0.0,0.0,0.0,0.0,0.0,0.0,0.0,0.0,0.0,0.0,0.0,0.0,0.0,0.0,0.0,0.0,0.0,0.0,0.0,0.0,0.0,0.0,0.0,0.0,0.0,0.0,0.0,0.0,0.0,0.0,0.0,0.0,0.0,0.0,0.0,0.0,0.0,0.0,0.0,0.0,0.0,0.0,0.0,0.0,0.0,0.0,0.0,0.0,0.0,0.0,0.0,0.0,0.0,0.0,0.0,0.0,0.0,0.0,0.0,0.0,0.0,0.0,0.0,0.0,0.0,0.0,0.0,0.0,0.0,0.0,0.0,0.0,0.0,0.0,0.0,0.0,0.0,0.0,0.0,0.0,0.0,0.0,0.0,0.0,0.0,0.0,0.0,0.0,0.0,0.0,0.0,0.0,0.0,0.0,0.0,0.0,0.0,0.0,0.0,0.0,0.0,0.0,0.0,0.0,0.0,0.0,0.0,0.0,0.0,0.0,0.0,0.0,0.0,0.0,0.0,0.0,0.0,0.0,0.0,0.0,0.0,0.0,0.0,0.0,0.0,0.0,0.0,0.0,0.0,0.0,0.0,0.0,0.0,0.0,0.0,0.0,0.0,0.0,0.0,0.0,0.0,0.0,0.0,0.0,0.0,0.0,0.0,0.0,0.0,0.0,0.0,0.0,0.0,0.0,0.0,0.0,0.0,0.0,0.0,0.0,0.0,0.0,0.0,0.0,0.0,0.0,0.0,0.0,0.0,0.0,0.0,0.0,0.0,0.0,0.0,0.0,0.0,0.0,0.0,0.0,0.0,0.0,0.0,0.0,0.0,0.0,0.0,0.0,0.0,0.0,0.0,0.0,0.0,0.0,0.0,0.0,0.0,0.0,0.0,0.0,0.0,0.0,0.0,0.0,0.0,0.0,0.0,0.0,0.0,0.0,0.0,0.0,0.0,0.0,0.0,0.0,0.0,0.0,0.0,0.0,0.0,0.0,0.0,0.0,0.0,0.0,0.0,0.0,0.0,0.0,0.0,0.0,0.0,0.0,0.0,0.0,0.0,0.0,0.0,0.0,0.0,0.0,0.0,0.0,0.0,0.0,0.0,0.0,0.0,0.0,0.0,0.0,0.0,0.0,0.0,0.0,0.0,0.0,0.0,0.0,0.0,0.0,0.0,0.0,0.0,0.0,0.0,0.0,0.0,0.0,0.0,0.0,0.0,0.0,0.0,0.0,0.0,0.0,0.0,0.0,0.0,0.0,0.0,0.0,0.0,0.0,0.0,0.0,0.0,0.0,0.0,0.0,0.0,0.0,0.0,0.0,0.0,0.0,0.0,0.0,0.0,0.0,0.0,0.0,0.0,0.0,0.0,0.0,0.0,0.0,0.0,0.0,0.0,0.0,0.0,0.0,0.0,0.0,0.0,0.0,0.0,0.0,0.0,0.0,0.0,0.0,0.0,0.0,0.0,0.0,0.0,0.0,0.0,0.0,0.0,0.0,0.0,0.0,0.0,0.0,0.0,0.0,0.0,0.0,0.0,0.0,0.0,0.0,0.0,0.0,0.0,0.0,0.0,0.0,0.0,0.0,0.0,0.0,0.0,0.0,0.0,0.0,0.0,0.0,0.0,0.0,0.0,0.0,0.0,0.0,0.0,0.0,0.0,0.0,0.0,0.0,0.0,0.0,0.0,0.0,0.0,0.0,0.0,0.0,0.0,0.0,0.0,0.0,0.0,0.0,0.0,0.0,0.0,0.0,0.0,0.0,0.0,0.0,0.0,0.0,0.0,0.0,0.0,0.0,0.0,0.0,0.0,0.0,0.0,0.0,0.0,0.0,0.0,0.0,0.0,0.0,0.0,0.0,0.0,0.0,0.0,0.0,0.0,0.0,0.0,0.0,0.0,0.0,0.0,0.0,0.0,0.0,0.0,0.0,0.0,0.0,0.0,0.0,0.0,0.0,0.0,0.0,0.0,0.0,0.0,0.0,0.0,0.0,0.0,0.0,0.0,0.0,0.0,0.0,0.0,0.0,0.0,0.0,0.0,0.0,0.0,0.0,0.0,0.0,0.0,0.0,0.0,0.0,0.0,0.0,0.0,0.0,0.0,0.0,0.0,0.0,0.0,0.0,0.0,0.0,0.0,0.0,0.0,0.0,0.0,0.0,0.0,0.0,0.0,0.0,0.0,0.0,0.0,0.0,0.0,0.0,0.0,0.0,0.0,0.0,0.0,0.0,0.0,0.0,0.0,0.0,0.0,0.0,0.0,0.0,0.0,0.0,0.0,0.0,0.0,0.0,0.0,0.0,0.0,0.0,0.0,0.0,0.0,0.0,0.0,0.0,0.0,0.0,0.0,0.0,0.0,0.0,0.0,0.0,0.0,0.0,0.0,0.0,0.0,0.0,0.0,0.0,0.0,0.0,0.0,0.0,0.0,0.0,0.0,0.0,0.0,0.0,0.0,0.0,0.0,0.0,0.0,0.0,0.0,0.0,0.0,0.0,0.0,0.0,0.0,0.0,0.0,0.0,0.0,0.0,0.0,0.0,0.0,0.0,0.0,0.0,0.0,0.0,0.0,0.0,0.0,0.0,0.0,0.0,0.0,0.0,0.0,0.0,0.0,0.0,0.0,0.0,0.0,0.0,0.0,0.0,0.0,0.0,0.0,0.0,0.0,0.0,0.0,0.0,0.0,0.0,0.0,0.0,0.0,0.0,0.0,0.0,0.0,0.0,0.0,0.0,0.0,0.0,0.0,0.0,0.0,0.0,0.0,0.0,0.0,0.0,0.0,0.0,0.0,0.0,0.0,0.0,0.0,0.0,0.0,0.0,0.0,0.0,0.0,0.0,0.0,0.0,0.0,0.0,0.0,0.0,0.0,0.0,0.0,0.0,0.0,0.0,0.0,0.0,0.0,0.0,0.0,0.0,0.0,0.0,0.0,0.0,0.0,0.0,0.0,0.0,0.0,0.0,0.0,0.0,0.0,0.0,0.0,0.0,0.0,0.0,0.0,0.0,0.0,0.0,0.0,0.0,0.0,0.0,0.0,0.0,0.0,0.0,0.0,0.0,0.0,0.0,0.0,0.0,0.0,0.0,0.0,0.0,0.0,0.0,0.0,0.0,0.0,0.0,0.0,0.0,0.0,0.0,0.0,0.0,0.0,0.0,0.0,0.0,0.0,0.0,0.0,0.0,0.0,0.0,0.0,0.0,0.0,0.0,0.0,0.0,0.0,0.0,0.0,0.0,0.0,0.0,0.0,0.0,0.0,0.0,0.0,0.0,0.0,0.0,0.0,0.0,0.0,0.0,0.0,0.0,0.0,0.0,0.0,0.0,0.0,0.0,0.0,0.0,0.0,0.0,0.0,0.0,0.0,0.0,0.0,0.0,0.0,0.0,0.0,0.0,0.0,0.0,0.0,0.0,0.0,0.0,0.0,0.0,0.0,0.0,0.0,0.0,0.0,0.0,0.0,0.0,0.0,0.0,0.0,0.0,0.0,0.0,0.0,0.0,0.0,0.0,0.0,0.0,0.0,0.0,0.0,0.0,0.0,0.0,0.0,0.0,0.0,0.0,0.0,0.0,0.0,0.0,0.0,0.0,0.0,0.0,0.0,0.0,0.0,0.0,0.0,0.0,0.0,0.0,0.0,0.0,0.0,0.0,0.0,0.0,0.0,0.0,0.0,0.0,0.0,0.0,0.0,0.0,0.0,0.0,0.0,0.0,0.0,0.0,0.0,0.0,0.0,0.0,0.0,0.0,0.0,0.0,0.0,0.0,0.0,0.0,0.0,0.0,0.0,0.0,0.0,0.0,0.0,0.0,0.0,0.0,0.0,0.0,0.0,0.0,0.0,0.0,0.0,0.0,0.0,0.0,0.0,0.0,0.0,0.0,0.0,0.0,0.0,0.0,0.0,0.0,0.0,0.0,0.0,0.0,0.0,0.0,0.0,0.0,0.0,0.0,0.0,0.0,0.0,0.0,-1.5124,-1.5305,0.0,0.0,0.0,0.0,0.0,0.0,0.0,0.0,0.0,0.0,0.0,0.0,0.0,0.0,0.0,0.0,0.0,0.0,0.0,0.0,0.0,0.0,0.0,0.0,0.0,0.0,0.0,0.0,0.0,0.0,0.0,0.0,0.0,0.0,0.0,0.0,0.0,-0.6111,-0.6491,-0.6661,-0.658,-0.6508,-0.6474,-0.6402,0.0,0.0,0.0,0.0,0.0,0.0,0.0,0.0,0.0,0.0,0.0,0.0,0.0,0.0,0.0,0.0,0.0,0.0,0.0,0.0,0.0,0.0,0.0,0.0,0.0,0.0,0.0,0.0,0.0,0.0,0.0,0.0,0.0,0.0,0.0,0.0,0.0,0.0,0.0,0.0,0.0,0.0,0.0,0.0,0.0,0.0,0.0,0.0,0.0,0.0,0.0,0.0,0.0,0.0,0.0,0.0,0.0,0.0,0.0,0.0,0.0,0.0,0.0,0.0,0.0,0.0,0.0,0.0,0.0,0.0,-1.5127,-1.5305,0.0,0.0,0.0,0.0,0.0,0.0,0.0,0.0,0.0,0.0,0.0,0.0,0.0,0.0,0.0,0.0,0.0,0.0,0.0,0.0,0.0,0.0,0.0,-0.1391,-0.1391,-0.1391,-0.1391,-0.1391,0.0,0.0,0.0,0.0,0.0,0.0,-0.4202,-0.5083,-0.5546,-0.5546,-0.6161,-0.6485,-0.6485,-0.6656,-0.6671,-0.6549,-0.6538,0.0,0.0,0.0,0.0,0.0,0.0,0.0,0.0,0.0,0.0,0.0,0.0,0.0,0.0,0.0,0.0,0.0,0.0,0.0,0.0,0.0,0.0,0.0,0.0,0.0,0.0,0.0,0.0,0.0,0.0,0.0,0.0,0.0,0.0,0.0,0.0,0.0,0.0,0.0,0.0,0.0,0.0,0.0,0.0,0.0,0.0,0.0,0.0,0.0,0.0,0.0,0.0,0.0,0.0,0.0,0.0,0.0,0.0,0.0,0.0,0.0,0.0,0.0,-1.3013,-1.3577,-1.4032,-1.5122,-1.5174,-1.4424,-1.4954,-1.5036,-1.4909,-1.5078,0.0,0.0,0.0,0.0,0.0,0.0,0.0,0.0,0.0,0.0,0.0,0.0,0.0,0.0,0.0,0.0,0.0,0.0,0.0,0.0,-0.1391,-0.1391,-0.1391,-0.1391,-0.1391,-0.1391,-0.1391,0.0,0.0,0.0,0.0,0.0,-0.4299,-0.5186,-0.5673,-0.5673,-0.5653,-0.5644,-0.5684,-0.6508,-0.6846,-0.6858,-0.659,-0.6511,-0.6504,0.0,0.0,0.0,0.0,0.0,0.0,0.0,0.0,0.0,0.0,0.0,0.0,0.0,0.0,0.0,0.0,0.0,0.0,0.0,0.0,0.0,0.0,0.0,0.0,0.0,0.0,0.0,0.0,0.0,0.0,0.0,0.0,0.0,0.0,0.0,0.0,0.0,0.0,0.0,0.0,0.0,-0.9772,-0.9903,0.0,0.0,0.0,0.0,0.0,0.0,0.0,0.0,0.0,0.0,0.0,0.0,0.0,-1.1792,-1.1618,-1.1794,-1.2093,-1.2575,-1.2666,-1.3006,-1.3501,-1.3921,-1.4011,-1.3915,-1.4142,0.0,-1.3988,-1.4193,0.0,0.0,0.0,0.0,0.0,0.0,0.0,0.0,0.0,0.0,0.0,0.0,0.0,0.0,0.0,0.0,0.0,0.0,0.0,0.0,0.0,-0.1391,-0.1391,-0.1391,-0.1391,-0.1391,-0.1391,-0.1391,0.0,0.0,0.0,-0.3757,-0.4287,-0.469,-0.4914,-0.4914,-0.5401,-0.5597,-0.564,-0.6561,-0.7004,-0.6994,-0.6824,-0.6729,-0.6712,-0.6518,0.0,0.0,0.0,0.0,0.0,0.0,0.0,0.0,0.0,0.0,0.0,0.0,0.0,0.0,0.0,0.0,0.0,0.0,0.0,0.0,0.0,0.0,0.0,0.0,0.0,0.0,0.0,0.0,0.0,0.0,0.0,0.0,0.0,0.0,0.0,0.0,0.0,0.0,0.0,-0.8911,-0.917,-0.917,-0.9946,-1.0679,0.0,0.0,0.0,0.0,0.0,0.0,0.0,0.0,0.0,-1.0681,-1.1077,-1.1097,-1.0656,-1.1015,-1.1359,-1.1672,-1.2283,-1.2728,-1.3055,-1.3907,-1.4054,-1.3632,-1.3895,-1.3708,-1.3279,-1.3844,-1.4295,-1.4552,0.0,0.0,0.0,0.0,-1.4068,-1.3724,0.0,0.0,0.0,0.0,0.0,0.0,0.0,0.0,0.0,0.0,0.0,0.0,-0.1391,-0.1391,-0.1391,-0.1391,-0.1391,-0.1391,-0.1391,-0.1391,-0.1749,-0.2465,-0.2777,-0.3223,-0.3933,-0.3933,-0.3799,-0.3576,-0.4514,-0.4961,-0.5006,-0.6207,-0.6741,-0.6735,-0.69,-0.692,-0.6869,-0.6644,-0.6569,-0.6562,0.0,0.0,0.0,0.0,0.0,0.0,0.0,0.0,0.0,0.0,0.0,0.0,0.0,0.0,0.0,0.0,0.0,0.0,0.0,0.0,0.0,0.0,0.0,0.0,0.0,0.0,0.0,0.0,0.0,0.0,0.0,0.0,0.0,0.0,0.0,0.0,0.0,-0.8612,-0.8612,-0.8612,-0.917,-0.9646,0.0,0.0,0.0,0.0,0.0,0.0,-1.1066,-1.0852,-1.0479,-0.9917,-1.0419,-1.0478,-0.9954,-1.0468,-1.0895,-1.1197,-1.2009,-1.2491,-1.2759,-1.3775,-1.3871,-1.3346,-1.3528,-1.3286,-1.2834,-1.3491,-1.3878,-1.4049,-1.3936,-1.3956,-1.395,-1.3882,-1.3765,-1.3592,0.0,0.0,0.0,0.0,0.0,0.0,0.0,0.0,0.0,0.0,0.0,-0.0673,-0.1345,-0.1391,-0.1391,-0.1391,-0.1391,-0.1391,-0.1391,-0.1391,-0.1436,-0.148,-0.2374,-0.2913,-0.2956,-0.2956,-0.2509,-0.1524,-0.2553,-0.3045,-0.309,-0.4917,-0.5764,-0.5808,-0.6688,-0.7011,-0.6876,-0.6756,-0.6688,-0.6688,-0.6681,0.0,0.0,0.0,0.0,0.0,0.0,0.0,0.0,0.0,0.0,0.0,0.0,0.0,0.0,0.0,0.0,0.0,0.0,0.0,0.0,0.0,0.0,0.0,0.0,0.0,0.0,0.0,0.0,0.0,0.0,0.0,0.0,0.0,0.0,0.0,0.0,0.0,0.0,-0.8612,-0.8656,0.0,0.0,0.0,0.0,-1.1473,-1.0104,-0.9621,-1.0491,-0.9714,-0.9211,-0.9173,-0.9685,-1.0006,-1.0096,-1.062,-1.1254,-1.196,-1.2009,-1.2311,-1.2813,-1.2861,-1.2861,-1.2861,-1.2861,-1.2813,-1.2807,-1.2834,-1.3295,-1.3885,-1.3543,-1.3502,-1.3578,-1.3278,-1.2888,-1.2487,0.0,0.0,0.0,0.0,0.0,0.0,0.0,0.0,0.1615,0.1076,0.0583,0.0224,-0.0045,-0.0493,-0.0762,-0.0762,-0.1166,-0.1391,-0.1391,-0.1391,-0.1391,-0.1391,-0.1749,-0.1928,-0.1928,-0.1928,-0.1749,-0.1391,-0.2419,-0.2911,-0.2957,-0.4828,-0.5719,-0.5719,-0.6697,-0.7068,-0.7011,-0.6866,-0.6848,-0.6841,-0.6742,-0.6668,0.0,0.0,0.0,0.0,0.0,0.0,0.0,0.0,0.0,0.0,0.0,0.0,0.0,0.0,0.0,0.0,0.0,0.0,0.0,0.0,0.0,0.0,0.0,0.0,0.0,0.0,0.0,0.0,0.0,0.0,0.0,0.0,0.0,0.0,0.0,0.0,0.0,-0.8731,-0.8836,0.0,-0.9357,-0.9142,-0.9271,-0.9953,-0.9427,-0.9236,-0.9605,-0.9283,-0.9149,-0.9306,-0.9781,-1.0301,-1.0789,-1.1322,-1.19,-1.2516,-1.2516,-1.2619,-1.2813,-1.2813,-1.2813,-1.2813,-1.2813,-1.2813,-1.2813,-1.2813,-1.2953,-1.3184,-1.3047,-1.3062,-1.3056,-1.2967,-1.2798,-1.2641,0.0,0.0,0.0,0.0,0.0,0.0,0.0,0.0,0.2064,0.1839,0.139,0.0987,0.0718,0.0269,-0.0045,-0.0045,-0.0448,-0.0807,-0.1031,-0.1076,-0.1166,-0.1391,-0.1391,-0.1391,-0.1391,-0.1391,-0.1391,-0.1391,-0.2062,-0.2374,-0.2419,-0.4026,-0.4739,-0.4783,-0.5714,-0.6337,-0.6602,-0.6514,-0.6697,-0.6947,-0.6892,-0.682,-0.6776,0.0,0.0,0.0,0.0,0.0,0.0,0.0,0.0,0.0,0.0,0.0,0.0,0.0,0.0,0.0,0.0,0.0,0.0,0.0,0.0,0.0,0.0,0.0,0.0,0.0,0.0,0.0,0.0,0.0,0.0,0.0,0.0,0.0,0.0,-0.8257,-0.8497,-0.8497,-0.8838,-0.9096,-0.9096,-0.9153,-0.9181,-0.9181,-0.9242,-0.9303,-0.936,-0.9364,-0.9445,-0.9673,-1.031,-1.0915,-1.1406,-1.2158,-1.2704,-1.3056,-1.3056,-1.3056,-1.3056,-1.3056,-1.3056,-1.3056,-1.3056,-1.3056,-1.3056,-1.3056,-1.3056,-1.3045,-1.2959,-1.2877,-1.2888,-1.3024,-1.3105,-1.313,0.0,0.0,0.0,0.0,0.0,0.0,0.292,0.292,0.2649,0.193,0.1839,0.157,0.0852,0.0762,0.0718,0.0718,0.0718,0.0403,-0.0314,-0.0359,-0.0673,-0.13,-0.1345,-0.1345,-0.139,-0.139,-0.1391,-0.1391,-0.1391,-0.1391,-0.1436,-0.2419,-0.2911,-0.2956,-0.3888,-0.4823,-0.5675,-0.5675,-0.6163,-0.7007,-0.7095,-0.7014,-0.6893,0.0,0.0,0.0,0.0,0.0,0.0,0.0,0.0,0.0,0.0,0.0,0.0,0.0,0.0,0.0,0.0,0.0,0.0,0.0,0.0,0.0,0.0,0.0,0.0,0.0,0.0,0.0,0.0,0.0,0.0,0.0,0.0,0.0,-0.6597,-0.7316,-0.7879,-0.7929,-0.8593,-0.9066,-0.9112,-0.931,-0.9412,-0.9412,-0.9527,-0.9701,-0.9868,-0.9876,-0.9961,-1.02,-1.1239,-1.1761,-1.1817,-1.2905,-1.3475,-1.348,-1.348,-1.348,-1.348,-1.348,-1.348,-1.348,-1.348,-1.348,-1.348,-1.348,-1.348,-1.3453,-1.3211,-1.3114,-1.3147,-1.3389,-1.362,-1.3841,0.0,0.0,0.0,0.0,0.0,0.0,0.292,0.292,0.2829,0.2604,0.2604,0.2513,0.2334,0.1839,0.148,0.148,0.1031,0.0628,0.0403,0.0403,0.0314,0.0134,0.0134,-0.0134,-0.0673,-0.0673,-0.0897,-0.1391,-0.1391,-0.1391,-0.1436,-0.2419,-0.2911,-0.2956,-0.3888,-0.4423,-0.469,-0.469,-0.4823,-0.5179,-0.6561,-0.7071,-0.7038,0.0,0.0,0.0,0.0,0.0,0.0,0.0,0.0,0.0,0.0,0.0,0.0,0.0,0.0,0.0,0.0,0.0,0.0,0.0,0.0,0.0,0.0,0.0,0.0,0.0,0.0,0.0,0.0,0.0,0.0,0.0,-0.6124,-0.618,-0.6608,-0.6991,-0.7459,-0.8034,-0.8382,-0.8845,-0.9385,-0.9522,-0.9551,-0.9551,-0.96,-0.9599,-0.9697,-0.9697,-0.9778,-0.9953,-1.0671,-1.1304,-1.1813,-1.2545,-1.3116,-1.348,-1.348,-1.348,-1.348,-1.348,-1.348,-1.348,-1.348,-1.348,-1.348,-1.348,-1.348,-1.3475,-1.3405,-1.3373,-1.3383,-1.3453,-1.3518,-1.3583,0.0,0.0,0.0,0.0,0.0,0.0,0.292,0.292,0.292,0.292,0.292,0.292,0.292,0.2513,0.2244,0.2244,0.1884,0.148,0.1166,0.0852,0.0718,0.0718,0.0718,0.0493,0.009,0.0045,-0.0134,-0.0538,-0.0538,-0.0538,-0.0538,-0.1434,-0.1836,-0.1881,-0.273,-0.3309,-0.3712,-0.3712,-0.3933,-0.4378,-0.5489,-0.5935,-0.5935,-0.5935,-0.5935,-0.5935,-0.5935,-0.5581,-0.5181,-0.5758,0.0,0.0,0.0,0.0,0.0,0.0,0.0,0.0,0.0,0.0,0.0,0.0,0.0,0.0,0.0,0.0,0.0,0.0,0.0,0.0,0.0,0.0,0.0,0.0,-0.5583,-0.5539,-0.5917,-0.6323,-0.6776,-0.7214,-0.7635,-0.8084,-0.8531,-0.8882,-0.908,-0.908,-0.9426,-0.9661,-0.973,-0.9734,-0.9916,-1.0301,-1.0919,-1.149,-1.2127,-1.2842,-1.3309,-1.3626,-1.3728,-1.3776,-1.3776,-1.3776,-1.3776,-1.3776,-1.3776,-1.3776,-1.3776,-1.3776,-1.3776,-1.3766,0.0,0.0,0.0,0.0,-1.3776,-1.3776,0.0,0.0,0.0,0.0,0.0,0.0,0.323,0.323,0.3187,0.3053,0.3053,0.3008,0.292,0.292,0.292,0.292,0.292,0.2604,0.1974,0.13,0.0942,0.0942,0.0942,0.0897,0.0807,0.0807,0.0762,0.0718,0.0718,0.0718,0.0673,0.0045,-0.0269,-0.0314,-0.0897,-0.1704,-0.2598,-0.2598,-0.3132,-0.3976,-0.3976,-0.4111,-0.4289,-0.4289,-0.4289,-0.4289,-0.4289,-0.4245,-0.4156,-0.4245,0.0,0.0,0.0,0.0,0.0,0.0,0.0,0.0,0.0,0.0,0.0,0.0,0.0,0.0,0.0,0.0,0.0,0.0,0.0,0.0,0.0,0.0,0.0,0.0,-0.5375,-0.489,-0.4963,-0.5514,-0.5907,-0.5994,-0.6639,-0.7089,-0.7188,-0.7836,-0.8283,-0.8283,-0.9031,-0.9544,-0.9746,-0.9754,0.0,0.0,0.0,-1.1892,-1.2432,-1.331,-1.3782,-1.3782,-1.4008,-1.4116,-1.4116,-1.4137,-1.4153,-1.4153,-1.4186,-1.4196,-1.4196,-1.4196,-1.4196,-1.4169,-1.3949,-1.3863,-1.389,-1.411,-1.4196,-1.4196,0.0,0.0,0.0,0.0,0.0,0.0,0.5144,0.5144,0.4877,0.4121,0.4032,0.3721,0.2963,0.292,0.292,0.292,0.292,0.2829,0.2694,0.2558,0.2469,0.2469,0.2469,0.2199,0.1615,0.157,0.13,0.0718,0.0718,0.0718,0.0718,0.0538,0.0493,0.0493,0.0359,-0.0134,-0.0896,-0.0896,-0.13,-0.1972,-0.1972,-0.2907,-0.4289,-0.4289,-0.4289,-0.4289,-0.4289,-0.3801,-0.3267,-0.4067,-0.3801,-0.3189,-0.3152,-0.3441,0.0,0.0,0.0,0.0,0.0,0.0,0.0,0.0,0.0,0.0,0.0,0.0,0.0,0.0,0.0,0.0,0.0,0.0,0.0,-0.5282,-0.517,-0.5035,-0.4979,-0.5111,-0.5377,-0.5952,-0.6142,-0.6489,-0.7138,-0.7338,-0.7437,-0.7437,-0.8184,-0.8645,-0.8674,-0.8674,-0.8901,-0.9426,-1.0234,-1.0864,-1.1333,-1.2786,-1.3545,-1.3545,-1.3593,0.0,-1.3626,-1.3809,-1.389,-1.3906,-1.4105,-1.4196,-1.4196,-1.4196,-1.4196,-1.4186,-1.4137,-1.4121,-1.4126,-1.4175,-1.4196,-1.4196,0.0,0.0,0.0,0.0,0.0,0.0,0.5719,0.5719,0.5542,0.5053,0.501,0.4832,0.4342,0.43,0.43,0.43,0.43,0.43,0.43,0.3853,0.3587,0.3587,0.3141,0.2739,0.2379,0.2334,0.2154,0.1794,0.2017,0.2017,0.1794,0.1659,0.1479,0.1256,0.0852,0.0496,0.0182,0.0182,0.0046,-0.0278,-0.0694,-0.1424,-0.236,-0.2695,-0.2864,-0.2864,-0.2864,-0.2569,-0.2276,-0.2729,-0.2565,-0.2177,-0.2199,-0.2347,-0.2539,0.0,0.0,0.0,0.0,0.0,0.0,0.0,0.0,0.0,0.0,0.0,0.0,0.0,0.0,-0.5053,-0.51,0.0,-0.5122,-0.5169,-0.5175,-0.5145,-0.5053,-0.5041,-0.5145,-0.5356,-0.5388,-0.5536,-0.5937,-0.6337,-0.6589,-0.6589,-0.7338,-0.7786,-0.7786,-0.7932,-0.8211,-0.874,-0.9291,-0.9833,-1.0277,-1.1752,-1.2268,-1.1754,-1.2951,-1.3213,-1.2746,-1.3381,-1.3647,-1.3653,-1.3782,-1.39,-1.4013,-1.4143,-1.4196,-1.4196,-1.4196,-1.4196,-1.4196,-1.4196,-1.4116,-1.4008,0.0,0.0,0.0,0.0,0.0,0.0,0.0,0.6251,0.6207,0.5985,0.5985,0.5941,0.5808,0.5719,0.5719,0.5719,0.5719,0.5719,0.5719,0.501,0.4565,0.4565,0.3853,0.3454,0.3454,0.3454,0.3454,0.3542,0.3676,0.3631,0.3363,0.2823,0.2426,0.2121,0.1443,0.1095,0.1023,0.1023,0.0986,0.0858,0.0191,-0.0047,-0.0139,-0.0731,-0.1132,-0.1399,-0.1399,-0.1463,-0.1489,-0.1489,-0.1506,-0.1479,-0.1533,-0.1535,-0.1632,-0.2217,-0.2701,0.0,0.0,0.0,0.0,0.0,0.0,0.0,0.0,-0.5108,-0.5114,-0.513,-0.5135,-0.5139,-0.5157,-0.5161,-0.5186,-0.5204,-0.5217,-0.5233,-0.5124,-0.5108,-0.5039,-0.4806,-0.4784,-0.4784,-0.4784,-0.5388,-0.5792,-0.5792,-0.6489,-0.6989,-0.7036,-0.7235,-0.7627,-0.817,-0.8425,-0.8821,-0.9262,-1.0499,-1.0728,-0.992,-1.1863,-1.2302,-1.1476,-1.2398,-1.2833,-1.2838,-1.2884,-1.2951,-1.3131,-1.3374,-1.3457,-1.3457,-1.3457,-1.3457,-1.3516,-1.3938,-1.3965,-1.3697,0.0,0.0,0.0,0.0,0.0,0.0,0.0,0.0,0.7944,0.7051,0.6962,0.6694,0.6113,0.5849,0.5719,0.5719,0.5719,0.5719,0.5719,0.5586,0.5542,0.5542,0.5453,0.5408,0.5408,0.5408,0.5497,0.5758,0.4741,0.4518,0.5095,0.3585,0.3082,0.3457,0.2948,0.2422,0.1851,0.1851,0.1474,0.0906,0.0811,0.0762,0.076,0.0664,-0.0234,-0.1476,-0.1476,-0.1495,-0.1521,-0.1521,-0.1523,-0.1531,-0.1558,-0.1566,-0.1767,-0.2796,-0.3111,-0.3412,-0.4416,-0.4829,-0.4947,-0.5019,-0.5032,-0.5096,0.0,-0.5108,-0.513,-0.5158,-0.5174,-0.5198,-0.5337,-0.5351,-0.5355,-0.5365,-0.5365,-0.5306,-0.5132,-0.5108,-0.5039,-0.4806,-0.4784,-0.4784,-0.4784,-0.4885,-0.4935,-0.4935,-0.5689,-0.6239,-0.6487,-0.6537,-0.6783,-0.7335,-0.758,-0.7875,-0.817,-0.9278,-0.9735,-0.9636,-0.9904,-0.9962,-0.9871,-1.023,-1.0408,-1.0416,-1.0591,-1.0677,-1.0698,-1.0719,-1.0728,-1.0728,-1.0728,-1.0728,-1.1011,-1.3094,-1.3717,-1.341,0.0,0.0,0.0,0.0,0.0,0.0,0.0,0.0,0.0,0.8032,0.8072,0.8025,0.7753,0.7625,0.758,0.758,0.7448,0.7408,0.7408,0.683,0.6517,0.6517,0.5985,0.5764,0.5938,0.5938,0.6024,0.6284,0.6021,0.5933,0.5977,0.5517,0.494,0.425,0.4018,0.3469,0.2616,0.2616,0.2488,0.2218,0.1724,0.1566,0.1551,0.1066,0.0482,-0.0096,-0.0095,-0.0095,0.0,-0.0679,-0.088,-0.0889,-0.0896,-0.1198,-0.165,-0.1963,-0.2573,-0.3439,-0.4596,-0.4943,-0.4998,-0.5104,-0.5159,-0.5202,-0.5255,-0.5267,-0.5277,-0.5316,-0.5324,-0.5337,-0.5373,-0.5382,-0.5382,-0.5382,-0.5382,-0.5318,-0.5135,-0.5108,-0.5039,-0.4806,-0.4784,-0.4784,-0.4784,-0.4784,-0.4784,-0.4784,-0.5135,-0.5438,-0.5689,-0.5837,-0.6087,-0.6489,-0.6786,-0.6933,-0.708,-0.8124,-0.8368,-0.7776,-0.9011,-0.9258,-0.8718,-0.9432,-0.9767,-0.9775,-1.0006,-1.0139,-1.0147,-1.0255,-1.0304,-1.0304,-1.0304,-1.0234,-1.0262,-1.1336,-1.1648,-1.1415,0.0,0.0,0.0,0.0,0.0,0.0,0.0,0.0,0.0,0.0,0.8828,0.8911,0.8999,0.8999,0.8999,0.8911,0.8784,0.8673,0.8633,0.8011,0.7602,0.7556,0.6894,0.6605,0.6868,0.6868,0.6997,0.7298,0.7298,0.7166,0.6993,0.6876,0.6279,0.5254,0.5126,0.4506,0.3557,0.3557,0.3438,0.313,0.2573,0.2351,0.2322,0.1778,0.1531,0.1478,0.1064,0.0875,0.079,0.0148,-0.005,-0.005,-0.005,-0.0454,-0.0908,-0.0907,-0.1714,-0.2832,-0.3791,-0.4088,-0.4198,-0.4634,-0.4751,-0.4856,-0.531,-0.5382,-0.5382,-0.5382,-0.5382,-0.5382,-0.5382,-0.5382,-0.5382,-0.5382,-0.5382,-0.5318,-0.5135,-0.5108,-0.5039,-0.4806,-0.4784,-0.4784,-0.4784,-0.4784,-0.4784,-0.4784,-0.4885,-0.5037,-0.5288,-0.5589,-0.5837,-0.6089,-0.6289,-0.6387,-0.6387,-0.7179,-0.7179,-0.6437,-0.7971,-0.8319,-0.7577,-0.8368,-0.8715,-0.8722,-0.8937,-0.8985,-0.8996,-0.9174,-0.9223,-0.9223,-0.9223,-0.9148,-0.9004,-0.9178,-0.9505,-0.9849,0.0,0.0,0.0,0.0,0.0,0.0,0.0,0.0,0.0,0.0,0.0,0.0,0.0,0.9301,0.9174,0.8911,0.8911,0.8855,0.8804,0.8831,0.8814,0.8759,0.8609,0.8608,0.8823,0.8823,0.9038,0.9515,0.8364,0.8009,0.8412,0.7005,0.6455,0.6732,0.6387,0.5679,0.473,0.473,0.4131,0.318,0.318,0.3179,0.3177,0.3127,0.3127,0.2918,0.1429,0.0842,0.0806,0.0755,0.0756,0.0756,0.0756,0.0756,0.0605,0.0101,-0.0604,-0.1308,-0.1613,-0.176,-0.2072,-0.3247,-0.3604,-0.3971,-0.5154,-0.5382,-0.5382,-0.5382,-0.5382,-0.5382,-0.5382,-0.5382,-0.5382,-0.5382,-0.5382,-0.5318,-0.5135,-0.5108,-0.5039,-0.4806,-0.4784,-0.4784,-0.4784,-0.4784,-0.4784,-0.4784,-0.5037,-0.5288,-0.5586,-0.5839,-0.6089,-0.6387,-0.6387,-0.6387,-0.6387,-0.6434,-0.6434,-0.6387,-0.6487,-0.6484,-0.6437,-0.6484,-0.6484,-0.6484,-0.6489,-0.6492,-0.6492,-0.6495,-0.6498,-0.6498,-0.6498,-0.6495,-0.6492,-0.6495,-0.7832,-0.9464,0.0,0.0,0.0,0.0,0.0,0.0,0.0,0.0,0.0,0.0,0.0,0.0,0.0,0.0,0.0,0.0,0.9371,0.9338,0.9309,0.9291,0.9295,0.9317,0.9123,0.9123,0.9345,0.9345,0.9515,0.9864,0.9462,0.9248,0.9213,0.898,0.8362,0.749,0.7641,0.7032,0.5877,0.5877,0.5229,0.4284,0.4284,0.3831,0.318,0.318,0.318,0.3127,0.0,0.2408,0.232,0.1765,0.1613,0.1613,0.1613,0.111,0.0404,-0.0302,-0.0957,-0.1515,-0.1636,-0.1707,-0.1785,-0.2259,-0.3,-0.3697,-0.4131,-0.4817,-0.5382,-0.5382,-0.5382,-0.5382,-0.5382,-0.5382,-0.5382,-0.5382,-0.5382,-0.5339,-0.5162,-0.5145,-0.5063,-0.4941,-0.4871,-0.4784,-0.4784,-0.4784,-0.4885,-0.5037,-0.514,-0.5391,-0.5839,-0.5942,-0.6139,-0.6387,-0.6387,-0.6387,-0.6387,-0.6387,-0.6387,-0.6387,-0.6387,-0.6387,-0.6387,-0.6387,-0.6387,-0.6387,-0.6387,-0.6387,-0.6387,-0.6387,-0.6387,-0.6387,-0.6387,-0.6387,-0.6387,-0.6387,-0.6883,-0.7428,0.0,0.0,0.0,0.0,0.0,0.0,0.0,0.0,0.0,0.0,0.0,0.0,0.0,0.0,0.0,0.0,0.0,1.0925,1.0873,1.0891,1.0854,1.0882,1.0663,1.0612,1.0752,1.0747,1.0837,1.0977,1.0977,1.0674,1.013,1.0341,0.9668,0.8297,0.8631,0.8087,0.6909,0.6953,0.6376,0.5381,0.5381,0.4732,0.3783,0.3783,0.3531,0.0,0.318,0.318,0.313,0.2623,0.2422,0.2422,0.2422,0.1867,0.111,0.0404,-0.005,-0.0354,-0.046,-0.0515,-0.0625,-0.1066,-0.1776,-0.2551,-0.3424,-0.4216,-0.4893,-0.5318,-0.5382,-0.5382,-0.5382,-0.5382,-0.5382,-0.5382,-0.5382,-0.5349,-0.5202,-0.514,-0.5112,-0.4986,-0.492,-0.4871,-0.4788,-0.4885,-0.5037,-0.519,-0.5391,-0.5641,-0.5992,-0.6092,-0.6239,-0.6387,-0.6387,-0.6387,-0.6387,-0.6387,-0.6387,-0.6387,-0.6387,-0.6387,-0.6387,-0.6387,-0.6387,-0.6387,-0.6387,-0.6387,-0.6387,-0.6387,-0.6387,-0.6387,-0.6387,-0.6387,-0.6387,-0.6387,-0.6387,-0.6387,0.0,0.0,0.0,0.0,0.0,0.0,0.0,0.0,0.0,0.0,0.0,0.0,0.0,0.0,0.0,0.0,0.0,0.0,1.3246,1.3325,1.3296,1.3251,1.3124,1.2958,1.2833,1.2871,1.279,1.2759,1.2759,1.2166,1.1024,1.1011,1.0353,0.9211,0.9378,0.886,0.7859,0.7999,0.7462,0.6465,0.647,0.5827,0.4885,0.4834,0.4183,0.3281,0.323,0.318,0.318,0.318,0.318,0.318,0.318,0.2977,0.2675,0.2172,0.1971,0.1921,0.1667,0.1638,0.1401,0.0259,-0.0052,-0.0694,-0.2929,-0.3485,-0.3941,-0.5075,-0.5373,-0.5375,-0.538,-0.5382,-0.5382,-0.5382,-0.5382,-0.5351,-0.5209,-0.5192,-0.5126,-0.5006,-0.4981,-0.4943,-0.4851,-0.5096,-0.5244,-0.524,-0.5691,-0.5992,-0.6042,-0.6237,-0.6387,-0.6387,-0.6387,-0.6387,-0.6387,-0.6387,-0.6387,-0.6387,-0.6387,-0.6387,-0.6387,-0.6387,-0.6387,-0.6387,-0.6387,-0.6387,-0.6387,-0.6387,-0.6387,-0.6387,-0.6387,-0.6387,-0.6387,-0.6387,-0.6387,-0.6387,0.0,0.0,0.0,0.0,0.0,0.0,0.0,0.0,0.0,0.0,0.0,0.0,0.0,0.0,0.0,0.0,0.0,0.0,1.3788,1.3755,1.3767,1.3794,1.3583,1.3463,1.3464,1.3458,1.3473,1.345,1.345,1.2826,1.1578,1.1722,1.0933,0.9444,0.963,0.9345,0.8796,0.896,0.8445,0.7433,0.7532,0.6974,0.5927,0.5083,0.4634,0.4282,0.3481,0.318,0.318,0.318,0.318,0.318,0.2977,0.2725,0.2422,0.2122,0.1869,0.1667,0.1617,0.1622,0.1582,0.1294,0.0572,-0.0262,-0.0854,-0.2302,-0.3605,-0.3994,-0.4671,-0.53,-0.5369,-0.5382,-0.5382,-0.5382,-0.5382,-0.5373,-0.5349,-0.5288,-0.5172,-0.5126,-0.5114,-0.5143,-0.5257,-0.5502,-0.5674,-0.5796,-0.5942,-0.6092,-0.6287,-0.6387,-0.6387,-0.6387,-0.6387,-0.6387,-0.6387,-0.6387,-0.6387,-0.6387,-0.6387,-0.6387,-0.6387,-0.6387,-0.6387,-0.6387,-0.6387,-0.6387,-0.6387,-0.6387,-0.6387,-0.6387,-0.6387,-0.6387,-0.6387,-0.6387,-0.6387,-0.6387,0.0,0.0,0.0,0.0,0.0,0.0,0.0,0.0,0.0,0.0,0.0,0.0,0.0,0.0,0.0,0.0,0.0,0.0,0.0,1.5422,1.5388,1.5471,1.5318,1.518,1.5124,1.5117,1.505,1.4879,1.4879,1.4019,1.2387,1.2387,1.1339,0.9469,0.9597,0.9447,0.9108,0.9331,0.902,0.0,0.0,0.7975,0.6897,0.5912,0.5231,0.4634,0.3581,0.318,0.318,0.3079,0.3029,0.2978,0.2575,0.2323,0.2171,0.192,0.1718,0.1617,0.1617,0.1617,0.1621,0.1638,0.1128,0.0515,0.0,-0.1472,-0.2853,-0.344,-0.4426,-0.5212,-0.5304,-0.532,-0.5335,-0.5375,-0.5382,-0.5382,-0.5382,-0.5337,-0.529,-0.5194,-0.5306,-0.5399,-0.5463,-0.5775,-0.6031,-0.6073,-0.612,-0.6239,-0.6387,-0.6387,-0.6387,-0.6387,-0.6387,-0.6387,-0.6387,-0.6387,-0.6387,-0.6387,-0.6387,-0.6387,-0.6387,-0.6387,-0.6387,-0.6387,-0.6387,-0.6387,-0.6387,-0.6387,-0.6387,-0.6387,-0.6387,-0.6387,-0.6387,-0.6387,-0.6387,-0.6387,0.0,0.0,0.0,0.0,0.0,0.0,0.0,0.0,0.0,0.0,0.0,0.0,0.0,0.0,0.0,0.0,0.0,0.0,0.0,0.0,1.7279,1.7279,1.7279,1.7201,1.6969,1.6961,1.6822,1.6543,1.6499,1.5449,1.3443,1.2991,1.1651,0.9686,0.9496,0.9282,0.9108,0.9331,0.9318,0.9145,0.9371,0.8858,0.7949,0.0,0.5927,0.4832,0.3581,0.318,0.313,0.2826,0.2725,0.2725,0.2223,0.2021,0.1971,0.1718,0.1617,0.1617,0.1617,0.1617,0.1617,0.1617,0.1617,0.1319,0.0154,-0.0928,-0.2022,-0.3222,-0.4348,-0.5122,-0.517,-0.519,-0.5221,-0.5367,-0.5382,-0.5382,-0.5382,-0.5382,-0.5353,-0.5271,-0.5532,-0.5712,-0.5725,-0.6041,-0.6231,-0.6267,-0.6356,-0.6387,-0.6387,-0.6387,-0.6387,-0.6387,-0.6387,-0.6387,-0.6387,-0.6387,-0.6387,-0.6387,-0.6387,-0.6387,-0.6387,-0.6387,-0.6387,-0.6387,-0.6387,-0.6387,-0.6387,-0.6387,-0.6387,-0.6387,-0.6387,-0.6387,-0.6387,-0.6387,-0.6387,-0.6387,0.0,0.0,0.0,0.0,0.0,0.0,0.0,0.0,0.0,0.0,1.0503,1.0375,0.0,0.0,0.0,0.0,0.0,0.0,0.0,0.0,0.0,1.7279,1.7279,1.7304,1.7245,1.7245,1.7216,1.7157,1.6993,1.6374,1.531,1.3812,1.2447,1.1268,0.9976,0.9308,0.9108,0.9331,0.9384,0.9375,0.9506,0.9432,0.9186,0.8113,0.0,0.0,0.3627,0.3027,0.3079,0.2374,0.2424,0.2725,0.2422,0.2171,0.1971,0.1921,0.1768,0.1617,0.1617,0.1617,0.1617,0.1617,0.1617,0.1314,0.0253,-0.0861,-0.1985,-0.3162,-0.4266,-0.5047,-0.516,-0.519,-0.5221,-0.5367,-0.5382,-0.5382,-0.5382,-0.5382,-0.5485,-0.5688,-0.5742,-0.5923,-0.631,-0.6366,-0.6419,-0.6527,-0.6454,-0.6387,-0.6387,-0.6387,-0.6387,-0.6387,-0.6387,-0.6387,-0.6387,-0.6387,-0.6387,-0.6387,-0.6387,-0.6387,-0.6387,-0.6387,-0.6387,-0.6387,-0.6387,-0.6387,-0.6387,-0.6387,-0.6387,-0.6387,-0.6387,-0.6387,-0.6387,-0.6387,-0.6387,-0.6387,0.0,0.0,0.0,0.0,0.0,0.0,0.0,1.0676,1.0745,1.0939,1.1143,1.1119,1.0841,1.2301,1.3264,0.0,0.0,0.0,0.0,0.0,0.0,0.0,1.7037,1.7279,1.7279,1.7279,1.7239,1.7153,0.0,1.5561,1.4364,1.2991,1.1745,1.0589,0.9834,0.9415,0.9286,0.9367,0.9351,0.9238,0.9413,0.9486,0.9397,0.0,0.0,0.0,0.0,0.3379,0.2877,0.2223,0.2172,0.2323,0.207,0.1919,0.1768,0.1768,0.1718,0.1617,0.1617,0.1617,0.1617,0.1617,0.1617,0.1313,0.0252,0.0,0.0,-0.3058,-0.4135,-0.4943,-0.5077,-0.5141,-0.5204,-0.5296,-0.5349,-0.5382,-0.5382,-0.5382,-0.5493,-0.5766,-0.5935,-0.6195,-0.6581,-0.6588,-0.6621,-0.6719,-0.6492,-0.6387,-0.6387,-0.6387,-0.6387,-0.6387,-0.6387,-0.6387,-0.6387,-0.6387,-0.6387,-0.6387,-0.6387,-0.6387,-0.6387,-0.6387,-0.6387,-0.6387,-0.6387,-0.6387,-0.6387,-0.6387,-0.6387,-0.6387,-0.6387,-0.6387,-0.6387,-0.6387,-0.6387,-0.6387,0.0,0.0,0.0,0.0,0.0,0.0,0.0,1.0872,1.0904,1.0904,1.1717,1.1912,1.09,1.2646,1.3559,0.0,0.0,0.0,0.0,0.0,0.0,0.0,0.0,0.0,1.6897,0.0,0.0,1.6636,1.5466,0.0,0.0,0.0,0.0,0.0,0.9723,0.9547,0.9461,0.9461,0.9336,0.0,0.0,0.9461,0.9328,0.0,0.0,0.0,0.0,0.3677,0.2725,0.2122,0.1971,0.1971,0.1667,0.1617,0.1617,0.1617,0.1617,0.1617,0.1617,0.1617,0.1617,0.1617,0.1617,0.1313,0.0252,-0.0806,-0.1915,-0.2972,-0.4029,-0.4863,-0.4955,-0.503,-0.5116,-0.5172,-0.5304,-0.5359,-0.5377,-0.5437,-0.5603,-0.588,-0.6216,0.0,-0.6771,-0.6781,-0.6801,-0.6801,-0.6575,-0.6387,-0.6387,-0.6387,-0.6387,-0.6387,-0.6387,-0.6387,-0.6387,-0.6387,-0.6387,-0.6387,-0.6387,-0.6387,-0.6387,-0.6387,-0.6387,-0.6387,-0.6387,-0.6387,-0.6387,-0.6387,-0.6387,-0.6387,-0.6387,-0.6387,-0.6387,-0.6387,-0.6387,-0.6387,0.0,0.0,0.0,0.0,0.0,0.0,0.0,1.1066,1.1145,1.1145,1.1878,1.1975,1.09,1.2646,1.4238,0.0,0.0,0.0,0.0,0.0,0.0,0.0,0.0,0.0,0.0,0.0,0.0,1.5548,1.4028,0.0,0.0,0.0,0.0,0.0,0.0,0.9571,0.9604,0.9604,0.0,0.0,0.0,0.0,0.0,0.0,0.0,0.0,0.0,0.3527,0.2675,0.192,0.1819,0.1971,0.1667,0.1617,0.1617,0.1617,0.0,0.0,0.1617,0.1617,0.1617,0.1617,0.1617,0.1313,0.0252,0.0,-0.1915,-0.2972,-0.4029,-0.4863,-0.4955,-0.5031,-0.5041,-0.5162,-0.5196,-0.5286,-0.5369,-0.5603,-0.588,-0.6219,0.0,0.0,-0.7099,-0.6942,-0.6801,-0.6801,-0.6575,-0.6387,-0.6387,-0.6387,-0.6387,-0.6387,-0.6387,-0.6387,-0.6387,-0.6387,-0.6387,-0.6387,-0.6387,-0.6387,-0.6387,-0.6387,-0.6387,-0.6387,-0.6387,-0.6387,-0.6387,-0.6387,-0.6387,-0.6387,-0.6387,-0.6387,-0.6387,-0.6387,-0.6387,-0.6387,0.0,0.0,0.0,0.0,0.0,0.0,1.1023,1.1142,1.1194,1.1194,1.2014,1.2398,1.2009,1.3125,1.342,1.2247,0.0,0.0,0.0,0.0,0.0,0.0,0.0,0.0,0.0,0.0,1.416,1.4022,1.2775,0.0,0.0,0.0,0.0,0.0,0.0,0.9527,0.9579,0.9579,0.0,0.0,0.0,0.0,0.0,0.0,0.0,0.0,0.0,0.0,0.2222,0.1768,0.1667,0.1718,0.1617,0.1617,0.1617,0.1617,0.1617,0.1617,0.1617,0.1617,0.1617,0.1617,0.1617,0.1161,-0.0555,0.0,-0.2066,-0.3827,-0.4481,-0.4847,-0.5086,-0.5193,-0.5309,-0.554,-0.5656,-0.5748,-0.5788,-0.5955,-0.6216,-0.6492,-0.6659,-0.6824,-0.7154,-0.694,-0.6741,-0.6592,-0.6441,-0.6387,-0.6387,-0.6387,-0.6387,-0.6387,-0.6387,-0.6387,-0.6387,-0.6387,-0.6387,-0.6387,-0.6387,-0.6387,-0.6387,-0.6387,-0.6387,-0.6387,-0.6387,-0.6387,-0.6387,-0.6387,-0.6387,-0.6387,-0.6387,-0.6387,-0.6387,-0.6387,-0.6387,-0.6387,0.0,0.0,0.0,0.0,0.0,1.0763,1.1132,1.1194,1.1194,1.1194,1.1819,1.2252,1.2252,1.2737,1.2355,1.0408,1.0993,0.0,0.0,0.0,0.0,0.0,0.0,0.0,0.0,0.0,1.2866,1.2684,1.1565,1.0861,0.0,0.0,0.9482,0.9482,0.0,0.0,0.0,0.0,0.0,0.0,0.0,0.0,0.0,0.0,0.0,0.0,0.0,0.0,0.0,0.0,0.0,0.1617,0.1617,0.1617,0.1617,0.1617,0.1617,0.1617,0.1617,0.1617,0.1617,0.1617,0.1364,0.0707,0.0,0.0,-0.2519,-0.413,-0.4684,-0.4987,-0.5288,-0.5397,-0.5555,-0.574,-0.5948,-0.6079,-0.611,-0.626,-0.6495,-0.6659,-0.6768,-0.6935,-0.7154,-0.694,-0.67,-0.6403,-0.6387,-0.6387,-0.6387,-0.6387,-0.6387,-0.6387,-0.6387,-0.6387,-0.6387,-0.6387,-0.6387,-0.6387,-0.6387,-0.6387,-0.6387,-0.6387,-0.6387,-0.6387,-0.6387,-0.6387,-0.6387,-0.6387,-0.6387,-0.6387,-0.6387,-0.6387,-0.6387,-0.6387,-0.6387,-0.6387,0.0,0.0,0.0,0.0,0.0,0.0,1.1132,1.1194,1.1194,1.1194,1.1194,1.1243,1.1243,1.1243,1.1096,1.0806,1.2204,0.0,0.0,0.0,0.0,0.0,0.0,0.0,0.0,0.0,1.1609,1.1614,1.0256,0.9628,0.9624,0.9624,0.9575,0.9575,0.0,0.0,0.0,0.0,0.0,0.0,0.0,0.0,0.0,0.0,0.0,0.0,0.0,0.0,0.0,0.0,0.0,0.0,0.0,0.1617,0.1617,0.1617,0.1617,0.1617,0.1617,0.1617,0.1617,0.1617,0.0807,0.0,0.0,-0.1662,-0.3274,-0.3577,-0.4435,-0.529,-0.5536,-0.5586,-0.5622,-0.5779,-0.5939,-0.6047,-0.6101,-0.6423,-0.6715,-0.6715,-0.699,-0.721,-0.721,-0.694,-0.67,-0.6403,-0.6387,-0.6387,-0.6387,-0.6387,-0.6387,-0.6387,-0.6387,-0.6387,-0.6387,-0.6387,-0.6387,-0.6387,-0.6387,-0.6387,-0.6387,-0.6387,-0.6387,-0.6387,-0.6387,-0.6387,-0.6387,-0.6387,-0.6387,-0.6387,-0.6387,-0.6387,-0.6387,-0.6387,-0.6387,-0.6387,0.0,0.0,0.0,0.0,0.0,0.0,0.0,1.1194,1.1194,1.1194,1.1194,1.1194,1.1194,1.1194,1.1096,1.0801,1.1238,0.0,0.0,0.0,0.0,0.0,0.0,0.0,0.0,0.0,1.0207,1.0207,0.9821,0.9563,0.9441,0.9441,0.9441,0.9441,0.8713,0.8427,0.0,0.0,0.0,0.0,0.0,0.0,0.0,0.0,0.0,0.0,0.0,0.0,0.0,0.0,0.0,0.0,0.0,0.0,0.0,0.1617,0.1617,0.1617,0.1617,0.1617,0.1414,0.0706,0.0252,-0.0403,-0.1863,-0.2719,-0.3476,-0.4483,-0.4987,-0.534,-0.5789,-0.5889,-0.5952,-0.6186,-0.6406,-0.655,-0.6587,-0.6866,-0.7043,-0.7043,-0.7031,-0.7008,-0.6921,-0.6771,-0.6611,-0.6398,-0.6387,-0.6387,-0.6387,-0.6387,-0.6387,-0.6387,-0.6387,-0.6387,-0.6387,-0.6387,-0.6387,-0.6387,-0.6387,-0.6387,-0.6387,-0.6387,-0.6387,-0.6387,-0.6387,-0.6387,-0.6387,-0.6387,-0.6387,-0.6387,-0.6387,-0.6387,-0.6387,-0.6387,-0.6387,-0.6387,0.0,0.0,0.0,0.0,0.0,0.0,0.0,1.1194,1.1194,1.1194,1.1194,1.1194,1.1194,1.1096,1.0998,1.0806,1.0703,0.0,0.0,0.0,0.0,0.0,0.0,0.0,0.9579,0.9579,0.9579,0.9579,0.9175,0.897,0.8867,0.847,0.8272,0.8227,0.7593,0.7297,0.0,0.0,0.0,0.0,0.0,0.0,0.2221,0.0,0.0,0.0,0.0,0.0,0.0,0.0,0.0,0.0,0.0,0.0,0.0,0.0,0.0707,0.0505,0.0908,0.1009,0.0757,-0.0353,-0.0907,-0.1561,-0.287,-0.3575,-0.423,-0.5138,-0.5441,-0.5641,-0.6089,-0.6139,-0.6189,-0.6387,-0.6641,-0.6801,-0.6801,-0.7005,-0.721,-0.721,-0.7109,-0.6937,-0.6815,-0.6692,-0.6567,-0.6395,-0.6387,-0.6387,-0.6387,-0.6387,-0.6387,-0.6387,-0.6387,-0.6387,-0.6387,-0.6387,-0.6387,-0.6387,-0.6387,-0.6387,-0.6387,-0.6387,-0.6387,-0.6387,-0.6387,-0.6387,0.0,-0.6387,-0.6387,-0.6387,-0.6387,-0.6387,-0.6387,-0.6387,-0.6387,-0.6387,0.0,0.0,0.0,0.0,0.0,0.0,0.0,1.1194,1.1194,1.1194,1.1194,1.1194,1.1145,1.0949,1.0801,1.0752,0.0,0.0,0.0,0.0,0.0,0.0,0.0,0.0,0.9579,0.9529,0.9476,0.9476,0.8425,0.7872,0.7872,0.6872,0.6423,0.6373,0.6323,0.6224,0.0,0.0,0.0,0.0,0.0,0.0,0.0,0.0,0.0,0.0,0.0,0.0,0.0,0.0,0.0,0.0,0.0,0.0,0.0,0.0,0.0,0.0,0.0,-0.0151,-0.0353,-0.1462,-0.2469,-0.3224,-0.3324,-0.4332,0.0,-0.5586,-0.5839,-0.6092,-0.6337,-0.6387,-0.6389,-0.6398,-0.6646,-0.6804,-0.6815,-0.701,-0.721,-0.721,-0.7048,-0.6929,-0.6815,-0.6684,-0.6559,-0.6395,-0.6387,-0.6387,-0.6387,-0.6387,-0.6387,-0.6387,-0.6387,-0.6387,-0.6387,-0.6387,-0.6387,-0.6387,-0.6387,-0.6387,-0.6387,-0.6387,-0.6387,-0.6387,-0.6387,-0.6387,-0.6387,-0.6387,-0.6387,-0.6387,-0.6387,-0.6387,-0.6387,-0.6387,-0.6387,-0.6387,0.0,0.0,0.0,0.0,0.0,0.0,0.0,0.0,0.0,0.0,1.1194,1.1096,1.09,1.085,1.0605,0.0,0.0,0.0,0.0,0.0,0.0,0.0,0.0,0.0,0.9579,0.8775,0.8372,0.8372,0.7322,0.6772,0.6772,0.6523,0.6423,0.6373,0.5529,0.4732,0.0,0.0,0.0,0.0,0.0,0.0,0.0,0.0,0.0,0.0,0.1617,0.1617,0.0,0.0,0.0,0.0,0.0,0.0,0.0,0.0,-0.1412,-0.1714,-0.2317,0.0,-0.1462,-0.2569,-0.3173,-0.3728,0.0,-0.5135,-0.5586,-0.5839,-0.5942,-0.6092,-0.6337,-0.6387,-0.6416,-0.6562,-0.6703,-0.6834,-0.6929,-0.7119,-0.721,-0.721,-0.6972,-0.6834,-0.6804,-0.6605,-0.6416,-0.6389,-0.6387,-0.6387,-0.6387,-0.6387,-0.6387,-0.6387,-0.6387,-0.6387,-0.6387,-0.6387,-0.6387,-0.6387,-0.6387,-0.6387,-0.6387,-0.6387,-0.6387,-0.6387,-0.6387,-0.6387,-0.6387,-0.6387,-0.6387,-0.6387,-0.6387,-0.6387,-0.6387,-0.6387,-0.6387,-0.6387,0.0,0.0,0.0,0.0,0.0,0.0,0.0,0.0,0.0,0.0,0.0,1.11,1.085,1.0708,0.0,0.0,0.0,0.0,0.0,0.0,0.0,0.0,0.0,0.8623,0.8124,0.7571,0.7273,0.7273,0.6176,0.5679,0.5679,0.5179,0.4929,0.4929,0.4332,0.3681,0.0,0.0,0.0,0.0,0.2071,0.0,0.0,0.0,0.0,0.0,0.106,0.0858,0.0,0.0303,-0.0252,-0.0756,0.0,0.0,0.0,0.0,-0.267,-0.3173,-0.3776,-0.3173,-0.2569,-0.3676,-0.413,-0.4483,-0.509,-0.5489,-0.5839,-0.5992,-0.6092,-0.6239,-0.6387,-0.6387,-0.6427,-0.66,-0.6722,-0.6864,-0.7037,-0.7172,-0.7191,-0.7139,-0.6915,-0.6779,-0.6722,-0.6497,-0.6387,-0.6387,-0.6387,-0.6387,-0.6387,-0.6387,-0.6387,-0.6387,-0.6387,-0.6387,-0.6387,-0.6387,-0.6387,-0.6387,-0.6387,-0.6387,-0.6387,-0.6387,-0.6387,-0.6387,-0.6387,-0.6387,-0.6387,-0.6387,-0.6387,-0.6387,-0.6387,-0.6387,-0.6387,-0.6387,-0.6387,-0.6387,0.0,0.0,0.0,0.0,0.0,0.0,0.0,0.0,0.0,0.0,0.0,0.0,0.0,0.0,0.0,0.0,0.0,0.0,0.0,0.0,0.0,0.0,0.7673,0.7322,0.6423,0.6224,0.6176,0.6176,0.5081,0.4533,0.4533,0.3632,0.318,0.318,0.2977,0.2775,0.0,0.0,0.2018,0.1717,0.1515,0.0,0.0,0.0,0.0,0.0,0.0,0.0,0.0,-0.131,-0.1714,-0.1865,-0.1865,0.0,0.0,0.0,0.0,0.0,-0.4784,-0.418,-0.3726,-0.4582,-0.5037,-0.524,-0.524,-0.5691,-0.6039,-0.6039,0.0,-0.6387,-0.6387,-0.6387,-0.6433,-0.6624,-0.6763,-0.6926,-0.7182,-0.7193,-0.7147,-0.6997,-0.6861,-0.6733,-0.663,-0.6457,-0.6387,-0.6387,-0.6387,-0.6387,-0.6387,-0.6387,-0.6387,-0.6387,-0.6387,-0.6387,-0.6387,-0.6387,-0.6387,-0.6387,-0.6387,-0.6387,-0.6387,-0.6387,-0.6387,-0.6387,-0.6387,-0.6387,-0.6387,-0.6387,-0.6387,-0.6387,-0.6387,-0.6387,-0.6387,-0.6387,-0.6387,-0.6387,0.0,0.0,0.0,0.0,0.0,0.0,0.0,0.0,0.0,0.0,0.0,0.0,0.0,0.0,0.0,0.0,0.0,0.0,0.0,0.0,0.0,0.5334,0.6176,0.6573,0.6423,0.5529,0.5033,0.5033,0.3982,0.343,0.343,0.3281,0.318,0.313,0.2017,0.1462,0.1361,0.0,-0.0101,0.0555,-0.0605,0.0,0.0,0.0,0.0,0.0,0.0,0.0,0.0,-0.1563,-0.2217,-0.2972,-0.2972,0.0,0.0,0.0,0.0,0.0,-0.4784,-0.4836,-0.4887,-0.4834,-0.5186,-0.5536,-0.5536,-0.5937,-0.6337,0.0,-0.6387,-0.6387,-0.6387,-0.6387,-0.646,-0.6738,-0.6956,-0.7169,-0.7204,-0.7125,-0.7005,-0.6986,-0.6785,-0.6641,-0.6622,-0.6457,-0.6387,-0.6387,-0.6387,-0.6387,-0.6387,-0.6387,-0.6387,-0.6387,-0.6387,-0.6387,-0.6387,-0.6387,-0.6387,-0.6387,-0.6387,-0.6387,-0.6387,-0.6387,-0.6387,-0.6387,-0.6387,-0.6387,-0.6387,-0.6387,-0.6387,-0.6387,-0.6387,-0.6387,-0.6387,-0.6387,-0.6387,-0.6387,0.0,0.0,0.0,0.0,0.0,0.0,0.0,0.0,0.0,0.0,0.0,0.0,0.0,0.0,0.0,0.0,0.0,0.0,0.0,0.0,0.4431,0.3932,0.4431,0.468,0.468,0.4182,0.3932,0.3932,0.343,0.318,0.318,0.2775,0.232,0.1865,0.0958,0.0454,0.0252,-0.0755,-0.1007,-0.0756,0.0,0.0,0.0,0.0,0.0,0.0,0.0,0.0,0.0,0.0,-0.3676,-0.4079,-0.4079,0.0,0.0,0.0,0.0,0.0,-0.4784,-0.4885,-0.4987,-0.4987,-0.5438,-0.5839,-0.5839,-0.6137,-0.6387,-0.6387,-0.6387,-0.6387,-0.6387,-0.6387,-0.6465,-0.6763,-0.7002,-0.7188,-0.7125,-0.7018,-0.6937,-0.6804,-0.6687,-0.6592,-0.6476,-0.6419,-0.6387,-0.6387,-0.6387,-0.6387,-0.6387,-0.6387,-0.6387,-0.6387,-0.6387,-0.6387,-0.6387,-0.6387,-0.6387,-0.6387,-0.6387,-0.6387,-0.6387,-0.6387,-0.6387,-0.6387,-0.6387,-0.6387,-0.6387,-0.6387,-0.6387,-0.6387,-0.6387,-0.6387,-0.6387,-0.6387,-0.6387,-0.6387,0.0,0.0,0.0,0.0,0.0,0.0,0.0,0.0,0.0,0.0,0.0,0.0,0.0,0.0,0.0,0.0,0.0,0.0,0.0,0.3632,0.318,0.318,0.318,0.318,0.318,0.318,0.318,0.318,0.3027,0.2826,0.2623,0.2017,0.131,0.0605,-0.0151,-0.0655,-0.1007,-0.1711,-0.2014,-0.2017,0.0,0.0,0.0,0.0,0.0,0.0,0.0,0.0,0.0,0.0,0.0,0.0,0.0,0.0,0.0,-0.4784,-0.4784,-0.4834,-0.4885,-0.4935,-0.5035,-0.534,-0.5641,-0.5942,-0.5992,-0.6189,-0.6387,-0.6387,-0.6387,-0.6387,-0.6387,-0.6411,-0.6489,-0.6728,-0.6934,-0.7098,-0.6953,-0.6918,-0.6831,-0.6641,-0.6594,-0.6489,-0.6395,-0.6387,-0.6387,-0.6387,-0.6387,-0.6387,-0.6387,-0.6387,-0.6387,-0.6387,-0.6387,-0.6387,-0.6387,-0.6387,-0.6387,-0.6387,-0.6387,-0.6387,-0.6387,-0.6387,-0.6387,-0.6387,-0.6387,-0.6387,-0.6387,-0.6387,-0.6387,-0.6387,-0.6387,-0.6387,-0.6387,-0.6387,-0.6387,-0.6387,0.0,0.0,0.0,0.0,0.0,0.0,0.0,0.0,0.0,0.0,0.0,0.0,0.0,0.0,0.0,0.0,0.0,0.0,0.0,0.323,0.318,0.318,0.318,0.318,0.318,0.318,0.318,0.318,0.2472,0.1714,0.0958,0.0907,0.0605,0.0,-0.1309,-0.2164,-0.2718,-0.3977,-0.3979,-0.3173,-0.418,0.0,0.0,0.0,0.0,0.0,0.0,0.0,0.0,0.0,0.0,0.0,0.0,0.0,-0.4784,-0.4784,-0.4784,-0.4834,-0.509,-0.5338,-0.5586,-0.5892,-0.5789,-0.5687,-0.5942,-0.6189,-0.6387,-0.6387,-0.6387,-0.6387,-0.6387,-0.6478,-0.6611,-0.663,-0.6741,-0.6825,-0.6817,-0.6717,-0.6638,-0.6622,-0.6468,-0.6395,-0.6387,-0.6387,-0.6387,-0.6387,-0.6387,-0.6387,-0.6387,-0.6387,-0.6387,-0.6387,-0.6387,-0.6387,-0.6387,-0.6387,-0.6387,-0.6387,-0.6387,-0.6387,-0.6387,-0.6387,-0.6387,-0.6387,-0.6387,-0.6387,-0.6387,-0.6387,-0.6387,-0.6387,-0.6387,-0.6387,-0.6387,-0.6387,-0.6387,-0.6387,0.0,0.0,0.0,0.0,0.0,0.0,0.0,0.0,0.0,0.0,0.0,0.0,0.0,0.0,0.0,0.0,0.0,0.0,0.0,0.318,0.318,0.318,0.318,0.2977,0.2472,0.2927,0.2977,0.2472,0.1664,0.0857,0.005,0.005,-0.0303,-0.106,-0.2219,-0.2874,-0.3127,-0.4282,-0.4582,-0.423,-0.4634,-0.4533,0.0,0.0,0.0,0.0,0.0,0.0,0.0,0.0,-0.4784,-0.4784,-0.4784,-0.4784,-0.4784,-0.4784,-0.4937,-0.5087,-0.519,-0.5388,-0.5687,-0.5942,-0.5942,-0.5939,-0.6189,-0.6337,-0.6387,-0.6387,-0.6387,-0.6387,-0.6387,-0.6487,-0.6619,-0.6619,-0.6722,-0.6777,-0.67,-0.6649,-0.6592,-0.6465,-0.6414,-0.6387,-0.6387,-0.6387,-0.6387,-0.6387,-0.6387,-0.6387,-0.6387,-0.6387,-0.6387,-0.6387,-0.6387,-0.6387,-0.6387,-0.6387,-0.6387,-0.6387,-0.6387,-0.6387,-0.6387,-0.6387,-0.6387,-0.6387,-0.6387,-0.6387,-0.6387,-0.6387,-0.6387,-0.6387,-0.6387,-0.6387,-0.6387,-0.6387,-0.6387,-0.6387,0.0,0.0,0.0,0.0,0.0,0.0,0.0,0.0,0.0,0.0,0.0,0.0,0.0,0.0,0.0,0.0,0.0,0.0,0.318,0.318,0.3079,0.2826,0.2826,0.2422,0.1664,0.2169,0.2169,0.1613,0.0807,0.0,-0.0758,-0.0959,-0.1414,-0.2122,-0.3029,-0.3531,-0.3732,-0.4483,-0.4784,-0.4784,-0.4784,-0.4784,0.0,0.0,0.0,0.0,0.0,0.0,0.0,0.0,-0.4784,-0.4784,-0.4784,-0.4784,-0.4784,-0.4784,-0.4987,-0.524,-0.5288,-0.5539,-0.5787,-0.6039,-0.6139,-0.6189,-0.6337,-0.6387,-0.6387,-0.6387,-0.6387,-0.6387,-0.6387,-0.6454,-0.6562,-0.6562,-0.6632,-0.6657,-0.6573,-0.6562,-0.6478,-0.6395,-0.6387,-0.6387,-0.6387,-0.6387,-0.6387,-0.6387,-0.6387,-0.6387,-0.6387,-0.6387,-0.6387,-0.6387,-0.6387,-0.6387,-0.6387,-0.6387,-0.6387,-0.6387,-0.6387,-0.6387,-0.6387,-0.6387,-0.6387,-0.6387,-0.6387,-0.6387,-0.6387,-0.6387,-0.6387,-0.6387,-0.6387,-0.6387,-0.6387,-0.6387,-0.6387,-0.6387,0.0,0.0,0.0,0.0,0.0,0.0,0.0,0.0,0.0,0.0,0.0,0.0,0.0,0.0,0.0,0.0,0.0,0.0,0.318,0.318,0.2826,0.2017,0.1966,0.1613,0.0806,0.0806,0.0806,0.0806,0.0,-0.0808,-0.1616,-0.217,-0.2674,-0.323,-0.3783,-0.4284,-0.4784,-0.4784,-0.4784,-0.4784,-0.4784,-0.4784,-0.4784,0.0,0.0,0.0,0.0,0.0,0.0,0.0,-0.4784,-0.4784,-0.4784,-0.4784,-0.4784,-0.4784,-0.4987,-0.524,-0.5536,-0.5789,-0.6039,-0.6337,-0.6387,-0.6387,-0.6387,-0.6387,-0.6387,-0.6387,-0.6387,-0.6387,-0.6387,-0.6387,-0.6387,-0.6387,-0.6387,-0.6387,-0.6387,-0.6387,-0.6387,-0.6387,-0.6387,-0.6387,-0.6387,-0.6387,-0.6387,-0.6387,-0.6387,-0.6387,-0.6387,-0.6387,-0.6387,-0.6387,-0.6387,-0.6387,-0.6387,-0.6387,-0.6387,-0.6387,-0.6387,-0.6387,-0.6387,-0.6387,-0.6387,-0.6387,-0.6387,-0.6387,-0.6387,-0.6387,-0.6387,-0.6387,-0.6387,-0.6387,-0.6387,-0.6387,-0.6387,-0.6387,0.0,0.0,0.0,0.0,0.0,0.0,0.0,0.0,0.0,0.0,0.0,0.0,0.0,0.0,0.0,0.0,0.0,0.0,0.2371,0.2371,0.2017,0.121,0.1194,0.084,-0.0049,-0.0537,-0.0586,-0.0049,-0.0842,-0.1535,-0.2178,-0.2306,-0.2674,-0.323,-0.3783,-0.4083,-0.4284,-0.4634,-0.4784,-0.4784,-0.4784,-0.4784,-0.4784,0.0,0.0,0.0,0.0,0.0,0.0,0.0,0.0,0.0,-0.4784,-0.4784,-0.4784,-0.4784,-0.4987,-0.524,-0.529,-0.5641,-0.6042,-0.6092,-0.6237,-0.6387,-0.6387,-0.6387,-0.6387,-0.6387,-0.6387,-0.6387,-0.6387,-0.6387,-0.6387,-0.6387,-0.6387,-0.6387,-0.6387,-0.6387,-0.6387,-0.6387,-0.6387,-0.6387,-0.6387,-0.6387,-0.6387,-0.6387,-0.6387,-0.6387,-0.6387,-0.6387,-0.6387,-0.6387,-0.6387,-0.6387,-0.6387,-0.6387,-0.6387,-0.6387,-0.6387,-0.6387,-0.6387,-0.6387,-0.6387,-0.6387,-0.6387,-0.6387,-0.6387,-0.6387,-0.6387,-0.6387,-0.6387,-0.6387,-0.6387,-0.6387,-0.6387,-0.6387,0.0,0.0,0.0,0.0,0.0,0.0,0.0,0.0,0.0,0.0,0.0,0.0,0.0,0.0,0.0,0.0,0.0,0.0,0.0,0.1552,0.1197,0.0349,0.0392,0.0048,-0.0825,-0.1285,-0.128,-0.0816,-0.1306,-0.1851,-0.2403,-0.263,-0.3006,-0.3531,-0.4083,-0.4334,-0.4334,-0.4684,-0.4784,-0.4784,-0.4784,-0.4784,-0.4784,0.0,0.0,0.0,0.0,0.0,0.0,0.0,0.0,0.0,-0.4784,-0.4784,-0.4784,-0.4784,-0.4987,-0.519,-0.519,-0.5591,-0.5992,-0.5992,-0.6189,-0.6387,-0.6387,-0.6387,-0.6387,-0.6387,-0.6387,-0.6387,-0.6387,-0.6387,-0.6387,-0.6387,-0.6387,-0.6387,-0.6387,-0.6387,-0.6387,-0.6387,-0.6387,-0.6387,-0.6387,-0.6387,-0.6387,-0.6387,-0.6387,-0.6387,-0.6387,-0.6387,-0.6387,-0.6387,-0.6387,-0.6387,-0.6387,-0.6387,-0.6387,-0.6387,-0.6387,-0.6387,-0.6387,-0.6387,-0.6387,-0.6387,-0.6387,-0.6387,-0.6387,-0.6387,-0.6387,-0.6387,-0.6387,-0.6387,-0.6387,-0.6387,-0.6387,-0.6387,0.0,0.0,0.0,0.0,0.0,0.0,0.0,0.0,0.0,0.0,0.2977,0.0,0.0,0.0,0.0,0.0,0.0,0.0,0.0,0.0741,0.0391,-0.0441,-0.0432,-0.076,-0.147,-0.1491,-0.1476,-0.1476,-0.1507,-0.1824,-0.2493,-0.299,-0.3518,-0.4083,-0.4583,-0.4784,-0.4784,-0.4784,-0.4784,-0.4784,-0.4784,-0.4784,-0.4784,-0.4784,0.0,0.0,0.0,0.0,0.0,0.0,0.0,0.0,-0.4784,-0.4784,-0.4784,-0.4784,-0.4987,-0.514,-0.514,-0.5541,-0.5942,-0.5942,-0.6189,-0.6387,-0.6387,-0.6387,-0.6387,-0.6387,-0.6387,-0.6387,-0.6387,-0.6387,-0.6387,-0.6387,-0.6387,-0.6387,-0.6387,-0.6387,-0.6387,-0.6387,-0.6387,-0.6387,-0.6387,-0.6387,-0.6387,-0.6387,-0.6387,-0.6387,-0.6387,-0.6387,-0.6387,-0.6387,-0.6387,-0.6387,-0.6387,-0.6387,-0.6387,-0.6387,-0.6387,-0.6387,-0.6387,-0.6387,-0.6387,-0.6387,-0.6387,-0.6387,-0.6387,-0.6387,-0.6387,-0.6387,-0.6387,-0.6387,-0.6387,-0.6387,-0.6387,-0.6387,0.0,0.0,0.0,0.0,0.0,0.0,0.0,0.0,0.0,0.0,0.0,0.0,0.0,0.0,0.0,0.0,0.0,0.0,0.0,-0.0097,-0.0384,-0.1248,-0.1271,-0.1294,-0.141,-0.1403,-0.14,-0.14,-0.1476,-0.1976,-0.2972,-0.3117,-0.3714,-0.4634,-0.4734,-0.4784,-0.4784,-0.4784,-0.4784,-0.4784,-0.4784,-0.4784,-0.4784,-0.4784,-0.4784,0.0,0.0,0.0,0.0,0.0,0.0,0.0,-0.4784,-0.4784,-0.4784,-0.4784,-0.4834,-0.4885,-0.4885,-0.5138,-0.5441,-0.5636,-0.6037,-0.6387,-0.6387,-0.6387,-0.6387,-0.6387,-0.6387,-0.6387,-0.6387,-0.6387,-0.6387,-0.6387,-0.6387,-0.6387,-0.6387,-0.6387,-0.6387,-0.6387,-0.6387,-0.6387,-0.6387,-0.6387,-0.6387,-0.6387,-0.6387,-0.6387,-0.6387,-0.6387,-0.6387,-0.6387,-0.6387,-0.6387,-0.6387,-0.6387,-0.6387,-0.6387,-0.6387,-0.6387,-0.6387,-0.6387,-0.6387,-0.6387,-0.6387,-0.6387,-0.6387,-0.6387,-0.6387,-0.6387,-0.6387,-0.6387,-0.6387,-0.6387,-0.6387,-0.6387,0.0,0.0,0.0,0.0,0.0,0.0,0.0,0.0,0.0,0.0,0.0,0.0,0.0,0.0,0.0,0.0,0.0,0.0,0.0,0.0,-0.103,-0.1437,-0.1468,-0.1451,-0.1391,-0.1391,-0.1391,-0.1391,-0.1679,-0.2257,-0.3054,-0.3402,-0.3957,-0.4775,-0.4766,-0.4784,-0.4784,-0.4784,-0.4784,-0.4784,-0.4784,-0.4784,-0.4784,-0.4784,-0.4784,-0.4784,-0.4784,0.0,0.0,0.0,0.0,0.0,0.0,0.0,-0.4784,-0.4784,-0.4784,-0.4784,-0.4784,-0.4987,-0.529,-0.5689,-0.6087,-0.6387,-0.6387,-0.6387,-0.6387,-0.6387,-0.6387,-0.6387,-0.6387,-0.6387,-0.6387,-0.6387,-0.6387,-0.6387,-0.6387,-0.6387,-0.6387,-0.6387,-0.6387,-0.6387,-0.6387,-0.6387,-0.6387,-0.6387,-0.6387,-0.6387,-0.6387,-0.6387,-0.6387,-0.6387,-0.6387,-0.6387,-0.6387,-0.6387,-0.6387,-0.6387,-0.6387,-0.6387,-0.6387,-0.6387,-0.6387,-0.6387,-0.6387,-0.6387,-0.6387,-0.6387,-0.6387,-0.6387,-0.6387,-0.6387,-0.6387,-0.6387,-0.6387,-0.6387,0.0,0.0,0.0,0.0,0.0,0.0,0.0,0.0,0.0,0.0,0.0,0.0,0.0,0.0,0.0,0.0,0.0,0.0,0.0,0.0,0.0,-0.166,-0.148,-0.1391,-0.1391,-0.1391,-0.1436,-0.1525,-0.2063,-0.2579,-0.3128,-0.3613,-0.4164,-0.4687,-0.4759,-0.4748,-0.4762,-0.4762,-0.477,-0.4784,-0.4784,-0.4784,-0.4784,-0.4784,-0.4784,-0.4784,-0.4784,-0.4784,-0.4784,-0.4784,0.0,0.0,0.0,0.0,-0.478,-0.4766,-0.4772,-0.478,-0.4766,-0.5027,-0.5391,-0.5839,-0.6189,-0.6387,-0.6387,-0.6387,-0.6387,-0.6387,-0.6387,-0.6387,-0.6387,-0.6387,-0.6387,-0.6387,-0.6387,-0.6387,-0.6387,-0.6387,-0.6387,-0.6387,-0.6387,-0.6387,-0.6387,-0.6387,-0.6387,-0.6387,-0.6387,-0.6387,-0.6387,-0.6387,-0.6387,-0.6387,-0.6387,-0.6387,-0.6387,-0.6387,-0.6387,-0.6387,-0.6387,-0.6387,-0.6387,-0.6387,-0.6387,-0.6387,-0.6387,-0.6387,-0.6387,-0.6387,-0.6387,-0.6387,-0.6387,-0.6387,-0.6387,-0.6387,-0.6387,-0.6387,0.0,0.0,0.0,0.0,0.0,0.0,0.0,0.0,0.0,0.0,0.0,0.0,0.0,0.0,0.0,0.0,0.0,0.0,-0.1487,0.0,0.0,-0.2644,-0.1883,-0.1391,-0.1391,-0.1391,-0.1615,-0.2109,-0.2555,-0.3053,-0.3514,-0.368,-0.4036,-0.4591,-0.4604,-0.4651,-0.4726,-0.4726,-0.4767,-0.4784,-0.4784,-0.4784,-0.4784,-0.4784,-0.4784,-0.4784,-0.4784,-0.4784,-0.4784,-0.4784,-0.4784,0.0,0.0,0.0,-0.477,-0.4747,-0.4777,-0.4768,-0.4745,-0.5126,-0.5586,-0.5636,-0.6037,-0.6387,-0.6387,-0.6387,-0.6387,-0.6387,-0.6387,-0.6387,-0.6387,-0.6387,-0.6387,-0.6387,-0.6387,-0.6387,-0.6387,-0.6387,-0.6387,-0.6387,-0.6387,-0.6387,-0.6387,-0.6387,-0.6387,-0.6387,-0.6387,-0.6387,-0.6387,-0.6387,-0.6387,-0.6387,-0.6387,-0.6387,-0.6387,-0.6387,-0.6387,-0.6387,-0.6387,-0.6387,-0.6387,-0.6387,-0.6387,-0.6387,-0.6387,-0.6387,-0.6387,-0.6387,-0.6387,-0.6387,-0.6387,-0.6387,-0.6387,-0.6387,-0.6387,-0.6387,0.0,0.0,0.0,0.0,0.0,0.0,0.0,0.0,0.0,0.0,0.0,0.0,0.0,0.0,0.0,-0.2305,-0.2783,-0.3084,-0.3084,-0.3057,-0.3221,-0.3667,-0.2776,-0.224,-0.224,-0.1704,-0.1837,-0.2776,-0.3224,-0.3892,-0.4781,-0.5056,-0.4954,-0.4498,-0.4969,-0.4973,-0.4632,-0.4632,-0.4655,-0.4687,-0.4687,-0.4718,-0.4765,-0.4765,-0.4765,-0.4765,-0.4765,-0.4765,-0.4765,-0.4765,-0.4746,-0.4784,-0.4784,0.0,0.0,0.0,-0.4771,-0.4745,-0.4657,-0.5123,-0.5572,-0.5567,-0.5993,-0.6387,-0.6387,-0.6387,-0.6387,-0.6387,-0.6387,-0.6387,-0.6387,-0.6387,-0.6387,-0.6387,-0.6387,-0.6387,-0.6387,-0.6387,-0.6387,-0.6387,-0.6387,-0.6387,-0.6387,-0.6387,-0.6387,-0.6387,-0.6387,-0.6387,-0.6387,-0.6387,-0.6387,-0.6387,-0.6387,-0.6387,-0.6387,-0.6387,-0.6387,-0.6387,-0.6387,-0.6387,-0.6387,-0.6387,-0.6387,-0.6387,-0.6387,-0.6387,-0.6387,-0.6387,-0.6387,-0.6387,-0.6387,-0.6387,-0.6387,-0.6387,-0.6387,-0.6387,0.0,0.0,0.0,0.0,0.0,0.0,0.0,0.0,0.0,0.0,0.0,0.0,0.0,0.0,0.0,0.0,-0.3757,-0.4423,-0.4645,-0.4423,-0.4423,-0.4645,-0.3757,-0.3267,-0.3267,-0.2552,-0.273,-0.3753,-0.4156,-0.4868,-0.5885,-0.6425,-0.6034,-0.4949,-0.5347,-0.526,-0.4819,-0.4819,-0.4926,-0.5142,-0.4977,-0.4936,-0.495,-0.4757,-0.4708,-0.4706,-0.4683,-0.4673,-0.4673,-0.4673,-0.4732,-0.4754,-0.4754,-0.4768,0.0,0.0,0.0,-0.4645,-0.4334,-0.4667,-0.5055,-0.4793,-0.5094,-0.5525,-0.5549,-0.5563,-0.5682,-0.5934,-0.5984,-0.6087,-0.6337,-0.6387,-0.6387,-0.6387,-0.6387,-0.6387,-0.6387,-0.6387,-0.6387,-0.6387,-0.6387,-0.6387,-0.6387,-0.6387,-0.6387,-0.6387,-0.6387,-0.6387,-0.6387,-0.6387,-0.6387,-0.6387,-0.6387,-0.6387,-0.6387,-0.6387,-0.6387,-0.6387,-0.6387,-0.6387,-0.6387,-0.6387,-0.6387,-0.6387,-0.6387,-0.6387,-0.6387,-0.6387,-0.6387,-0.6387,-0.6387,-0.6387,-0.6387,-0.6387,-0.6387,-0.6387,0.0,0.0,0.0,0.0,0.0,0.0,0.0,0.0,0.0,0.0,0.0,0.0,-0.1396,-0.2289,-0.2915,-0.2911,-0.3757,-0.469,-0.5586,-0.4779,-0.469,-0.5586,-0.4734,0.0,-0.4245,-0.4378,-0.4692,-0.527,-0.5487,-0.5888,-0.6384,-0.7092,-0.7051,-0.6263,-0.5696,-0.5445,-0.5448,-0.5448,-0.5882,-0.652,-0.5965,-0.572,-0.5676,-0.495,-0.4708,-0.4698,-0.461,-0.4627,-0.4627,-0.4627,-0.4638,-0.4714,-0.4714,-0.4771,-0.4768,0.0,0.0,0.0,-0.3619,-0.3524,-0.3545,-0.2835,-0.284,-0.3057,-0.3297,-0.338,-0.3676,-0.4682,-0.4885,-0.5186,-0.6234,-0.6387,-0.6387,-0.6387,-0.6387,-0.6387,-0.6387,-0.6387,-0.6387,-0.6387,-0.6387,-0.6387,-0.6387,-0.6387,-0.6387,-0.6387,-0.6387,-0.6387,-0.6387,-0.6387,-0.6387,-0.6387,-0.6387,-0.6387,-0.6387,-0.6387,-0.6387,-0.6387,-0.6387,-0.6387,-0.6387,-0.6387,-0.6387,-0.6387,-0.6387,-0.6387,-0.6387,-0.6387,-0.6387,-0.6387,-0.6387,-0.6387,-0.6387,-0.6387,-0.6387,-0.6387,0.0,0.0,0.0,0.0,0.0,0.0,0.0,0.0,0.0,0.0,0.0,0.0,0.0,-0.3758,-0.4694,-0.4694,-0.5536,-0.6248,-0.6561,-0.6293,-0.6248,-0.6561,-0.5716,-0.527,-0.5445,-0.4914,-0.5181,-0.629,-0.6378,-0.6868,-0.7808,-0.8072,-0.7804,-0.7092,-0.6871,-0.65,-0.6096,-0.6096,-0.6259,-0.6491,-0.6262,-0.5958,-0.5558,-0.5324,-0.4906,-0.4481,-0.4496,-0.4485,-0.4485,-0.4485,-0.4585,-0.4708,-0.4708,-0.4767,-0.4768,-0.4734,-0.4252,-0.3673,-0.3439,-0.3001,-0.2602,-0.2632,-0.2691,-0.2862,-0.3138,-0.3199,-0.3313,-0.3708,-0.3794,-0.3877,-0.4277,-0.5482,-0.6387,-0.6387,-0.6387,-0.6387,-0.6387,-0.6387,-0.6387,-0.6387,-0.6387,-0.6387,-0.6387,-0.6387,-0.6387,-0.6387,-0.6387,-0.6387,-0.6387,-0.6387,-0.6387,-0.6387,-0.6387,-0.6387,-0.6387,-0.6366,-0.6328,-0.6328,-0.6249,-0.6211,-0.6211,-0.6211,-0.6211,-0.6211,-0.6211,-0.6255,-0.6328,-0.6328,-0.6282,-0.6211,-0.6211,-0.6211,-0.6211,-0.6211,-0.6357,-0.6571,0.0,0.0,0.0,0.0,0.0,0.0,0.0,0.0,0.0,-0.1838,0.0,0.0,0.0,0.0,-0.5808,-0.6163,-0.6741,-0.7095,-0.7095,-0.7095,-0.7095,-0.7095,-0.6609,-0.6387,-0.6561,-0.6068,-0.629,-0.7265,-0.7356,-0.7804,-0.8612,-0.8612,-0.834,-0.7848,-0.7848,-0.7448,-0.6782,-0.6782,-0.6918,-0.7102,-0.6882,-0.6548,-0.6167,-0.5942,-0.5395,-0.475,-0.4765,-0.4617,-0.4487,-0.4518,-0.4678,-0.4909,-0.4844,-0.4864,-0.4924,-0.4868,-0.4441,-0.395,-0.3686,-0.3147,-0.27,-0.273,-0.2496,-0.2319,-0.2599,-0.24,-0.2204,-0.2596,-0.2657,-0.2767,-0.3113,-0.4345,-0.545,-0.5824,-0.5887,-0.5984,-0.6337,-0.6387,-0.6387,-0.6387,-0.6387,-0.6387,-0.6387,-0.6387,-0.6387,-0.6387,-0.6387,-0.6387,-0.6387,-0.6387,-0.6387,-0.6387,-0.6387,-0.6368,-0.638,-0.6306,-0.6295,-0.6254,-0.6124,-0.6086,-0.6086,-0.6086,-0.6086,-0.6086,-0.6086,-0.6132,-0.6254,-0.6254,-0.6159,-0.6086,-0.6086,-0.6086,-0.6086,-0.6086,-0.6325,-0.6591,0.0,0.0,0.0,0.0,0.0,0.0,0.0,0.0,-0.1793,-0.2822,0.0,0.0,0.0,0.0,0.0,-0.7007,-0.7095,-0.7095,-0.7095,-0.7095,-0.7095,-0.7095,-0.737,-0.7507,-0.7507,-0.7984,-0.8201,-0.8201,-0.8472,-0.8612,-0.8612,-0.8612,-0.8612,-0.8612,-0.8612,-0.8208,-0.7533,-0.7533,-0.7937,-0.8536,-0.7885,-0.7626,-0.7538,-0.6901,-0.6167,-0.5555,-0.5497,-0.5193,-0.4808,-0.4815,-0.5053,-0.5294,-0.516,-0.516,-0.519,-0.519,-0.5388,-0.5361,0.0,0.0,0.0,-0.3075,-0.2057,-0.1303,-0.1575,-0.0834,-0.0393,-0.142,-0.164,-0.1952,-0.2996,-0.3185,-0.3562,-0.4598,-0.4778,-0.5181,-0.6237,-0.6387,-0.6387,-0.6387,-0.6387,-0.6387,-0.6387,-0.6387,-0.6387,-0.6387,-0.6387,-0.6387,-0.6387,-0.6387,-0.6387,-0.6387,-0.6384,-0.638,-0.632,-0.6311,-0.6246,-0.6081,-0.6078,-0.6075,-0.6075,-0.6075,-0.6075,-0.6075,-0.6075,-0.6075,-0.6075,-0.6078,-0.6078,-0.6075,-0.6075,-0.6122,-0.6122,-0.6122,-0.6264,-0.6419,0.0,0.0,0.0,0.0,0.0,-0.1659,-0.2376,-0.2465,-0.2822,0.0,0.0,0.0,-0.5272,-0.616,-0.683,-0.7095,-0.7095,-0.7095,-0.7095,-0.7095,-0.7187,-0.737,-0.7459,-0.768,-0.7984,-0.8113,-0.8292,-0.8476,-0.8564,-0.8612,-0.8612,-0.8612,-0.8612,-0.8612,-0.8612,-0.8476,-0.8296,-0.8296,-0.8432,-0.8572,-0.8396,-0.8008,-0.7553,-0.769,-0.7282,-0.6691,-0.7003,-0.7075,-0.6858,-0.6195,-0.6071,-0.6119,-0.5572,-0.5457,-0.5486,-0.5486,-0.4981,-0.4422,-0.4349,0.0,0.0,0.0,0.0,0.0,-0.2696,-0.2546,-0.239,-0.2596,-0.2607,-0.2708,-0.2954,-0.2994,-0.3339,-0.4388,-0.4694,-0.5154,-0.6274,-0.6387,-0.6387,-0.6387,-0.6387,-0.6387,-0.6387,-0.6387,-0.6387,-0.6387,-0.6387,-0.6387,-0.6387,-0.6387,-0.6387,-0.6387,-0.6358,-0.6301,-0.6317,-0.6092,-0.5988,-0.5953,-0.5871,-0.5831,-0.5831,-0.5831,-0.5831,-0.5831,-0.5831,-0.5831,-0.5839,-0.592,-0.5907,-0.5831,-0.6009,-0.6099,-0.6096,-0.6274,-0.6518,-0.6793,0.0,0.0,0.0,0.0,0.0,-0.1614,-0.2196,-0.2644,-0.3223,0.0,0.0,0.0,-0.6251,-0.6786,-0.7095,-0.7095,-0.7095,-0.7095,-0.7095,-0.7187,-0.7323,-0.7507,-0.768,-0.794,-0.8201,-0.8292,-0.8428,-0.8612,-0.8612,-0.8612,-0.8612,-0.8612,-0.8612,-0.8612,-0.8612,-0.8612,-0.8612,-0.8612,-0.8612,-0.8612,-0.8612,-0.8472,-0.8285,-0.8552,-0.8324,-0.787,-0.8177,-0.8129,-0.7885,-0.7486,-0.7217,-0.695,-0.6534,-0.6085,-0.5789,-0.5789,-0.5384,-0.5029,-0.5181,-0.4678,-0.4123,-0.4477,0.0,0.0,-0.3775,-0.3453,-0.3078,-0.2969,-0.2965,-0.2964,-0.2929,-0.2922,-0.3254,-0.4311,-0.4596,-0.5047,-0.6125,-0.629,-0.629,-0.629,-0.629,-0.629,-0.629,-0.629,-0.629,-0.629,-0.629,-0.629,-0.629,-0.629,-0.629,-0.629,-0.6227,-0.6168,-0.6116,-0.5975,-0.588,-0.5831,-0.5721,-0.5688,-0.5688,-0.5688,-0.5688,-0.5688,-0.5688,-0.5688,-0.5694,-0.5806,-0.5793,-0.5733,-0.5997,-0.6083,-0.6127,-0.6343,-0.6617,-0.6882,0.0,0.0,-0.1391,-0.1391,-0.148,-0.1614,-0.1704,-0.2553,-0.3535,0.0,-0.5359,-0.6163,-0.7007,-0.7095,-0.7095,-0.7095,-0.7139,-0.7143,-0.7143,-0.7411,-0.7551,-0.7595,-0.7981,-0.8201,-0.8245,-0.8476,-0.8612,-0.8612,-0.8612,-0.8612,-0.8612,-0.8612,-0.8612,-0.8612,-0.8612,-0.8612,-0.8612,-0.8612,-0.8612,-0.8656,-0.8612,-0.8872,-0.9305,-0.9345,-0.9253,-0.9109,-0.9152,-0.8886,-0.858,-0.876,-0.8328,-0.7707,-0.7609,-0.693,-0.6153,-0.6053,-0.6203,-0.6346,-0.6346,-0.6346,-0.6346,-0.6346,-0.565,0.0,-0.4848,-0.409,-0.3308,-0.3241,-0.3229,-0.3233,-0.3226,-0.3226,-0.3514,-0.4491,-0.4641,-0.4956,-0.597,-0.6086,-0.6086,-0.6086,-0.6086,-0.6086,-0.6086,-0.6086,-0.6086,-0.6086,-0.6086,-0.6086,-0.6086,-0.6086,-0.6086,-0.6086,-0.6072,-0.6013,-0.5904,-0.589,-0.5833,-0.5688,-0.5688,-0.5688,-0.5688,-0.5688,-0.5688,-0.5688,-0.5688,-0.5688,-0.5688,-0.5688,-0.5688,-0.5733,-0.6041,-0.6127,-0.6171,-0.6387,-0.6612,-0.6856,0.0,-0.1391,-0.1391,-0.1391,-0.2062,-0.2865,-0.3621,-0.4559,-0.5494,-0.6428,-0.6694,-0.6918,-0.7095,-0.7095,-0.7095,-0.7095,-0.7279,-0.7415,-0.7415,-0.768,-0.79,-0.8069,-0.8157,-0.8292,-0.852,-0.8568,-0.8612,-0.8612,-0.8612,-0.8612,-0.8612,-0.8612,-0.8612,-0.8612,-0.8612,-0.8612,-0.8612,-0.8612,-0.8828,-0.913,-0.874,-0.8872,-0.9349,-0.9738,-1.0033,-1.0332,-1.0689,-1.0781,-1.0569,-0.9904,-0.9144,-0.8356,-0.7574,-0.7286,-0.7051,-0.6297,-0.6106,-0.6154,-0.6154,-0.6154,-0.6154,-0.6154,-0.6011,0.0,-0.5839,-0.5671,-0.5482,-0.5325,-0.5331,-0.5294,-0.5166,-0.5151,-0.5203,-0.5447,-0.5449,-0.5612,-0.6056,-0.6086,-0.6086,-0.6086,-0.6086,-0.6086,-0.6086,-0.6086,-0.6086,-0.6086,-0.6086,-0.6086,-0.6086,-0.6086,-0.6086,-0.6086,-0.5991,-0.5926,-0.5904,-0.5812,-0.5712,-0.5688,-0.5688,-0.5688,-0.5688,-0.5688,-0.5688,-0.5688,-0.5688,-0.5688,-0.5688,-0.5688,-0.5688,-0.5733,-0.6169,-0.6343,-0.6387,-0.683,-0.7007,-0.7058,-0.1391,-0.1391,-0.1569,-0.2062,-0.2553,-0.3223,-0.4156,-0.5092,-0.5852,-0.634,-0.683,-0.7143,-0.7279,-0.7279,-0.7367,-0.7496,-0.7632,-0.768,-0.768,-0.7896,-0.8116,-0.8201,-0.8336,-0.8472,-0.8612,-0.8612,-0.8612,-0.8612,-0.8612,-0.8612,-0.8612,-0.8612,-0.8612,-0.8612,-0.8612,-0.8612,-0.8612,-0.8612,-0.874,-0.8959,-0.8959,-0.9345,-0.999,-1.0207,-1.0554,-1.0992,-1.1219,-1.1386,-1.1433,-1.0945,-1.0279,-0.9533,-0.9029,-0.8583,-0.8092,-0.7627,-0.7486,-0.7392,-0.6926,-0.6788,-0.6694,-0.6225,-0.6086,0.0,0.0,-0.5994,-0.5961,-0.5841,-0.5817,-0.5801,-0.5699,-0.5688,-0.5688,-0.5688,-0.5688,-0.5729,-0.5893,-0.5909,-0.5909,-0.5909,-0.5909,-0.5909,-0.5909,-0.5909,-0.5909,-0.5909,-0.5909,-0.5909,-0.5909,-0.5909,-0.5909,-0.5909,-0.585,-0.5817,-0.5817,-0.5718,-0.5688,-0.5688,-0.5688,-0.5688,-0.5688,-0.5688,-0.5688,-0.5688,-0.5688,-0.5688,-0.5688,-0.5863,-0.5908,-0.5908,-0.6171,-0.6299,-0.6432,-0.6833,-0.701,-0.7095,-0.1436,-0.1569,-0.1928,-0.2777,-0.3179,-0.3714,-0.4467,-0.5359,-0.5985,-0.5985,-0.6653,-0.7279,-0.7462,-0.7551,-0.768,-0.7896,-0.794,-0.794,-0.794,-0.816,-0.8288,-0.8288,-0.8476,-0.8612,-0.8612,-0.8612,-0.8612,-0.8612,-0.8612,-0.8612,-0.8612,-0.8612,-0.8612,-0.8612,-0.8696,-0.87,-0.8612,-0.8784,-0.8872,-0.8915,-0.9345,-0.9907,-1.0506,-1.0549,-1.0987,-1.1516,-1.1516,-1.1554,-1.1634,-1.1634,-1.117,-1.0635,-1.0447,-0.9802,-0.9058,-0.8874,-0.8828,-0.8644,-0.7909,-0.7677,-0.7449,-0.6526,-0.6295,-0.6223,0.0,0.0,0.0,-0.5707,-0.5688,-0.5688,-0.5688,-0.5688,-0.5688,-0.5688,-0.5688,-0.5688,-0.5688,-0.5688,-0.5688,-0.5688,-0.5688,-0.5688,-0.5688,-0.5688,-0.5688,-0.5688,-0.5688,-0.5688,-0.5688,-0.5688,-0.5688,-0.5688,-0.5688,-0.5688,-0.5688,-0.5688,-0.5777,-0.5952,-0.5952,-0.6086,-0.626,-0.626,-0.613,-0.5952,-0.5952,-0.5952,-0.5997,-0.626,-0.639,-0.6346,-0.626,-0.6346,-0.652,-0.6748,-0.6969,-0.7095,-0.1569,-0.2107,-0.2777,-0.2867,-0.4293,-0.5408,-0.5539,-0.634,-0.6962,-0.6962,-0.7234,-0.7462,-0.7507,-0.7724,-0.7856,-0.79,-0.8072,-0.8157,-0.8157,-0.8428,-0.8564,-0.8564,-0.8568,-0.8612,-0.8612,-0.8612,-0.8612,-0.8612,-0.8612,-0.8612,-0.8612,-0.8612,-0.8612,-0.8612,-0.9047,-0.9003,-0.8652,-0.9476,-0.9825,-0.9864,-1.0294,-1.0294,-1.012,-1.0463,-1.1284,-1.2283,-1.2283,-1.1877,-1.1348,-1.1348,-1.1277,-1.1076,-1.0236,-0.9886,-0.9618,-0.8777,-0.8557,-0.8516,-0.8424,-0.8384,-0.8163,-0.7235,-0.6968,-0.6745,-0.5933,0.0,-0.5704,-0.5691,0.0,-0.5688,-0.5688,0.0,0.0,-0.5688,-0.5688,-0.5688,-0.5688,-0.5688,-0.5688,-0.5688,-0.5688,-0.5688,-0.5688,-0.5688,-0.5688,-0.5688,-0.5688,-0.5688,-0.5688,-0.5688,-0.5688,-0.5688,-0.5688,-0.5688,-0.5688,-0.5688,-0.613,-0.6918,-0.6918,-0.736,-0.8193,-0.8193,-0.7709,-0.6918,-0.6918,-0.6918,-0.6966,-0.7224,-0.7356,-0.7312,-0.6877,-0.6751,-0.6792,-0.701,-0.7098,-0.7095,-0.224,-0.3044,-0.389,-0.4427,-0.5186,-0.5897,-0.6432,-0.683,-0.7231,-0.7544,-0.7547,-0.7591,-0.7896,-0.8028,-0.8116,-0.83,-0.8388,-0.8428,-0.8428,-0.852,-0.8612,-0.8612,-0.8612,-0.8612,-0.8612,-0.8612,-0.8612,-0.8612,-0.8612,-0.8612,-0.8612,-0.8612,-0.8612,-0.8612,-0.9087,-0.9174,-0.9043,-0.9738,-0.9994,-1.0038,-1.0419,-1.0766,-1.103,-1.1499,-1.2186,-1.2966,-1.2966,-1.254,-1.194,-1.194,-1.1645,-1.1219,-1.0824,-1.0694,-1.0646,-1.0255,-1.012,-0.999,-0.9462,-0.9331,-0.9069,-0.8149,-0.7929,-0.7797,-0.7404,-0.7316,-0.7183,-0.6612,0.0,0.0,0.0,0.0,0.0,0.0,-0.5688,-0.5688,-0.5688,-0.5688,-0.5688,-0.5688,-0.5688,-0.5688,-0.5688,-0.5688,-0.5688,-0.5688,-0.5688,-0.5688,-0.5688,-0.5688,-0.5688,-0.5688,-0.5688,-0.5952,-0.6526,-0.6526,-0.6962,-0.7929,-0.7929,-0.8105,-0.85,-0.85,-0.8281,-0.7929,-0.7929,-0.8017,-0.8145,-0.8408,-0.858,-0.8711,-0.8623,-0.8185,-0.7573,-0.7098,-0.736,-0.7841,-0.3089,-0.3846,-0.4601,-0.5542,-0.5897,-0.634,-0.7098,-0.7231,-0.7367,-0.7856,-0.7768,-0.7808,-0.8157,-0.8245,-0.8384,-0.8568,-0.8612,-0.8612,-0.8612,-0.8612,-0.8612,-0.8612,-0.8612,-0.8612,-0.8612,-0.8612,-0.8612,-0.8612,-0.8612,-0.8612,-0.8612,-0.8612,-0.8612,-0.8612,-0.9087,-0.9305,-0.9349,-0.9907,-1.0294,-1.0511,-1.0939,-1.1623,-1.2479,-1.2826,-1.313,-1.3434,-1.3603,-1.3258,-1.2662,-1.2662,-1.2326,-1.1817,-1.1645,-1.1602,-1.1559,-1.1348,-1.1305,-1.1132,-1.0472,-1.0299,-1.0077,-0.9113,-0.8894,-0.8807,-0.8544,-0.85,-0.8324,-0.7621,-0.7492,0.0,0.0,0.0,-0.6086,-0.6086,0.0,-0.5688,-0.5688,-0.5688,-0.5688,-0.5688,-0.5688,-0.5688,-0.5688,-0.5718,-0.5723,-0.5691,-0.5718,-0.5721,-0.5691,-0.5688,-0.5822,-0.6086,-0.6086,-0.6523,-0.7492,-0.7492,-0.7973,-0.8894,-0.8894,-0.9026,-0.9288,-0.9288,-0.9113,-0.8894,-0.8894,-0.9026,-0.9283,-0.9492,-0.9753,-1.0019,-1.0231,-0.9792,-0.8921,-0.8013,-0.8189,-0.8798,-0.4067,-0.4287,-0.4601,-0.5542,-0.6428,-0.7143,-0.7459,-0.7507,-0.7595,-0.7856,-0.8072,-0.8197,-0.8201,-0.8428,-0.8612,-0.8612,-0.8612,-0.8612,-0.8612,-0.8612,-0.8612,-0.8612,-0.8612,-0.8612,-0.8612,-0.8612,-0.8612,-0.8612,-0.8612,-0.8612,-0.8612,-0.8612,-0.8612,-0.8612,-0.9087,-0.9305,-0.9345,-1.0207,-1.0982,-1.1671,-1.2149,-1.3124,-1.4314,-1.4307,-1.3935,-1.3483,-1.4146,-1.3935,-1.3355,-1.3355,-1.3355,-1.3222,-1.2577,-1.2363,-1.2235,-1.1516,-1.1305,-1.1305,-1.1262,-1.1262,-1.1046,-1.0077,-0.9859,-0.9637,-0.8719,-0.85,-0.85,-0.8456,-0.8456,-0.8456,-0.8412,-0.7665,-0.7051,-0.7051,-0.6305,0.0,0.0,-0.5688,-0.5688,-0.5688,-0.5688,-0.5688,-0.5688,-0.5833,-0.5852,-0.5696,-0.5836,-0.585,-0.5694,-0.5688,-0.613,-0.701,-0.7051,-0.7489,-0.8456,-0.8456,-0.8938,-0.9859,-0.9859,-1.0342,-1.1219,-1.1219,-1.0694,-0.9859,-0.9859,-0.999,-1.0294,-1.0491,-1.0707,-1.0982,-1.1198,-1.1235,-1.1106,-1.0144,-0.9836,-0.9836,-0.4111,-0.4779,-0.5539,-0.6473,-0.6874,-0.7231,-0.768,-0.7768,-0.79,-0.83,-0.8248,-0.8288,-0.8428,-0.8564,-0.8612,-0.8612,-0.8612,-0.8612,-0.8612,-0.8612,-0.8612,-0.8612,-0.8612,-0.8612,-0.8612,-0.8612,-0.8612,-0.8612,-0.8612,-0.8612,-0.8612,-0.8612,-0.8784,-0.9087,-0.9563,-0.9907,-1.0207,-1.0819,-1.151,-1.2235,-1.3294,-1.4013,-1.4398,-1.4398,-1.4524,-1.4748,-1.4999,-1.4615,-1.4062,-1.4062,-1.3773,-1.3349,-1.3137,-1.3052,-1.3009,-1.2753,-1.2674,-1.2674,-1.2674,-1.2369,-1.194,-1.1628,-1.1203,-1.0738,-1.0429,-1.0342,-1.0164,-0.955,-0.9419,-0.9244,-0.8632,-0.8237,-0.8017,-0.8017,-0.7753,-0.7533,0.0,-0.7533,-0.7533,-0.7533,-0.6438,-0.5688,-0.5688,-0.5723,-0.5729,-0.5691,-0.5723,-0.5729,-0.5691,-0.5688,-0.613,-0.7051,-0.7095,-0.7841,-0.9419,-0.9419,-0.999,-1.1084,-1.1084,-1.1262,-1.157,-1.1699,-1.1521,-1.1084,-1.1214,-1.1424,-1.1714,-1.1752,-1.1923,-1.2143,-1.2186,-1.2229,-1.2052,-1.0486,-1.0274,-1.0755,-0.4559,-0.5272,-0.5985,-0.6918,-0.7187,-0.7411,-0.7856,-0.794,-0.8164,-0.8568,-0.8428,-0.8428,-0.8568,-0.8612,-0.8612,-0.8612,-0.8612,-0.8612,-0.8612,-0.8612,-0.8656,-0.8828,-0.8828,-0.8915,-0.9087,-0.8911,-0.8828,-0.8828,-0.87,-0.87,-0.8828,-0.8828,-0.9087,-0.9563,-0.9864,-1.0207,-1.0636,-1.0906,-1.1553,-1.2534,-1.3844,-1.4524,-1.4741,-1.4741,-1.5041,-1.5389,-1.5389,-1.5124,-1.4741,-1.4741,-1.4447,-1.4068,-1.3815,-1.3773,-1.373,-1.3476,-1.3398,-1.3398,-1.3398,-1.3094,-1.279,-1.2912,-1.2613,-1.2277,-1.2277,-1.2063,-1.1714,-1.1025,-1.0727,-1.0381,-0.9854,-0.9414,-0.9157,-0.9157,-0.8763,-0.85,0.0,-0.85,-0.85,-0.85,-0.7139,-0.6216,-0.6216,-0.5947,-0.5731,-0.5691,-0.5726,-0.5731,-0.5691,-0.5997,-0.6612,-0.7577,-0.7929,-0.8851,-1.0386,-1.0386,-1.0824,-1.1699,-1.1699,-1.1742,-1.1828,-1.1957,-1.1914,-1.1828,-1.1957,-1.216,-1.2406,-1.2406,-1.2534,-1.2705,-1.2705,-1.2705,-1.2528,-1.1354,-1.1273,-1.1714,-0.5272,-0.5719,-0.603,-0.6962,-0.7323,-0.7591,-0.7856,-0.8069,-0.8292,-0.8564,-0.8612,-0.8612,-0.8612,-0.8612,-0.8612,-0.8612,-0.8612,-0.8612,-0.8612,-0.8612,-0.8828,-0.9262,-0.9305,-0.9519,-0.9994,-0.9519,-0.9305,-0.9349,-0.8872,-0.8872,-0.9349,-0.9349,-0.9563,-1.0038,-1.0038,-1.025,-1.0636,-1.0636,-1.1327,-1.2534,-1.3844,-1.4783,-1.534,-1.5389,-1.5389,-1.5389,-1.5389,-1.5389,-1.5389,-1.5389,-1.5389,-1.5298,-1.465,-1.444,-1.4314,-1.3688,-1.3483,-1.3483,-1.3483,-1.3483,-1.3561,-1.3964,-1.4041,-1.4041,-1.4041,-1.3529,-1.3021,-1.2826,-1.2246,-1.1828,-1.2037,-1.1165,-1.0381,-1.0381,-0.9419,-0.8675,-0.8675,-0.8675,-0.8675,-0.8675,-0.7841,-0.7228,-0.7139,-0.6412,-0.5895,-0.5741,-0.5833,-0.5847,-0.5783,-0.6656,-0.7577,-0.8544,-0.9462,-1.0386,-1.1348,-1.1348,-1.1478,-1.1742,-1.1742,-1.1828,-1.2043,-1.2043,-1.2043,-1.2043,-1.2043,-1.216,-1.2406,-1.2406,-1.2534,-1.2705,-1.2705,-1.2705,-1.2705,-1.2705,-1.2705,-1.2705,-0.4556,-0.5802,-0.683,-0.7051,-0.7499,-0.7812,-0.79,-0.8252,-0.852,-0.8612,-0.8612,-0.8612,-0.8612,-0.8612,-0.8612,-0.8612,-0.8612,-0.8612,-0.8612,-0.8612,-0.8828,-0.9262,-0.9305,-0.9519,-0.9994,-0.9519,-0.9476,-0.982,-0.9349,-0.9345,-0.982,-0.982,-1.0038,-1.0463,-1.0463,-1.0684,-1.1127,-1.1127,-1.1639,-1.2534,-1.3844,-1.4482,-1.4699,-1.5215,-1.5389,-1.5389,-1.5389,-1.5389,-1.5389,-1.5389,-1.5389,-1.5389,-1.5215,-1.5131,-1.5131,-1.4922,-1.488,-1.488,-1.488,-1.4783,-1.4685,-1.4803,-1.4671,-1.4538,-1.4538,-1.4413,-1.4238,-1.4203,-1.3535,-1.2991,-1.3033,-1.2235,-1.1559,-1.1559,-1.1295,-1.1079,-1.1079,-1.1079,-1.1079,-1.1079,-1.0279,-0.9096,-0.7533,-0.704,-0.656,-0.6041,-0.6025,-0.6248,-0.67,-0.7309,-0.8317,-0.9811,-1.0236,-1.089,-1.1823,-1.1828,-1.1952,-1.2198,-1.2198,-1.224,-1.2283,-1.2454,-1.2454,-1.2326,-1.2454,-1.2583,-1.2619,-1.2619,-1.2662,-1.2705,-1.2705,-1.2705,-1.2705,-1.2705,-1.2705,-1.2705,-0.4736,-0.6071,-0.7095,-0.7095,-0.754,-0.79,-0.79,-0.83,-0.8612,-0.8612,-0.8612,-0.8612,-0.8612,-0.8612,-0.8612,-0.8612,-0.8612,-0.8612,-0.8612,-0.8784,-0.913,-0.9607,-0.9777,-1.0081,-1.0564,-1.0125,-0.9994,-1.025,-0.982,-0.982,-1.025,-1.025,-1.0467,-1.0906,-1.0906,-1.1041,-1.1305,-1.1305,-1.1731,-1.2448,-1.3209,-1.3886,0.0,-1.4824,-1.5131,-1.5389,-1.5389,-1.5389,-1.5389,-1.5389,-1.5389,-1.5389,-1.5389,-1.5389,-1.5389,-1.5389,-1.5389,-1.5389,-1.5389,-1.5458,-1.5567,-1.5767,-1.5842,-1.5876,-1.5876,-1.5662,-1.5406,-1.533,-1.4664,-1.4119,-1.4252,-1.3753,-1.3167,-1.2705,-1.2246,-1.2,-1.2,-1.2,-1.2,-1.2,-1.1548,-1.0626,-0.9192,-0.84,-0.7874,-0.7478,-0.7434,-0.761,-0.8006,-0.8655,-0.9444,-1.0409,-1.0928,-1.1462,-1.2,-1.2,-1.2118,-1.2406,-1.2406,-1.2448,-1.2534,-1.2662,-1.2619,-1.2534,-1.2662,-1.2705,-1.2705,-1.2705,-1.2705,-1.2705,-1.2705,-1.2705,-1.2705,-1.2705,-1.2705,-1.2705,-0.5184,-0.6207,-0.683,-0.6918,-0.7408,-0.7808,-0.79,-0.83,-0.8612,-0.8612,-0.8612,-0.8612,-0.8612,-0.8612,-0.8612,-0.8612,-0.8612,-0.8612,-0.8696,-0.9087,-0.9519,-1.0081,-1.0419,-1.0814,-1.1305,-1.0862,-1.0636,-1.0684,-1.0294,-1.0294,-1.0684,-1.0684,-1.0906,-1.1305,-1.1305,-1.1305,-1.1305,-1.1305,-1.1688,-1.2277,-1.2363,-1.3082,-1.4139,-1.4307,-1.4741,-1.5257,-1.5389,-1.5389,-1.5389,-1.5389,-1.5389,-1.5389,-1.5389,-1.5389,-1.5389,-1.5389,-1.5389,-1.5389,-1.5389,-1.5797,-1.6252,-1.6607,-1.7106,-1.7473,-1.7473,-1.7041,-1.6568,-1.6378,-1.5752,-1.5289,-1.5511,-1.5296,-1.4747,-1.3824,-1.2997,-1.2423,-1.2295,-1.2252,-1.2209,-1.2123,-1.208,0.0,-1.1284,-1.0091,-0.9344,-0.9257,-0.9257,-0.93,-0.9387,-1.0216,-1.074,-1.0832,-1.1634,-1.208,-1.208,-1.208,-1.2203,-1.2448,-1.2448,-1.2534,-1.2705,-1.2705,-1.2705,-1.2705,-1.2705,-1.2705,-1.2705,-1.2705,-1.2705,-1.2705,-1.2705,-1.2705,-1.2705,-1.2705,-1.2705,-1.2705,-0.4334,-0.5003,-0.5497,-0.5897,-0.6653,-0.7408,-0.7808,-0.83,-0.8612,-0.8612,-0.8612,-0.8612,-0.8612,-0.8612,-0.8612,-0.8612,-0.8612,-0.8784,-0.9174,-0.9262,-0.9646,-1.0463,-1.0549,-1.0814,-1.1305,-1.0862,-1.0771,-1.1176,-1.0727,-1.0727,-1.1176,-1.1176,-1.1219,-1.1305,-1.1305,-1.1305,-1.1305,-1.1305,-1.1392,-1.1564,-1.2155,-1.2534,-1.2875,-1.3971,-1.4482,-1.4657,-1.5215,-1.5389,-1.5389,-1.5389,-1.5389,-1.5389,-1.5389,-1.5389,-1.5389,-1.5389,-1.5389,-1.5389,-1.5389,-1.5997,-1.6607,-1.6697,-1.7302,-1.7878,-1.7878,-1.7789,-1.77,-1.7668,-1.6992,-1.6412,-1.6453,-1.5842,-1.5262,-1.5095,-1.4887,-1.451,-1.3753,-1.3669,-1.3372,-1.2662,-1.2577,-1.2534,-1.2406,-1.1176,-1.0135,-0.9575,-0.9531,-0.9792,-1.0346,-1.088,-1.1451,-1.2057,-1.2406,-1.2577,-1.2577,-1.2577,-1.2619,-1.2662,-1.2662,-1.2662,-1.2705,-1.2705,-1.2705,-1.2705,-1.2705,-1.2705,-1.2705,-1.2705,-1.2705,-1.2705,-1.2705,-1.2705,-1.2705,-1.2705,-1.2705,-1.2705,-0.3801,-0.4336,-0.4961,-0.6077,-0.6517,-0.7044,-0.7937,-0.8384,-0.8612,-0.8612,-0.8612,-0.8612,-0.8612,-0.8612,-0.8612,-0.8612,-0.8612,-0.8784,-0.9262,-0.9519,-0.9951,-1.0549,-1.0814,-1.1084,-1.1305,-1.1084,-1.1084,-1.1305,-1.1084,-1.1084,-1.1305,-1.1305,-1.1305,-1.1305,-1.1305,-1.1305,-1.1305,-1.1305,-1.1305,-1.1348,-1.1688,-1.2069,-1.2448,-1.3124,-1.3802,-1.444,-1.4783,-1.5082,-1.5389,-1.5389,-1.5389,-1.5389,-1.5389,-1.5389,-1.5389,-1.5389,-1.5389,-1.5472,-1.5714,-1.6203,-1.6771,-1.6984,-1.7554,-1.8,-1.8,-1.8,-1.8,-1.8,-1.7659,-1.7367,-1.7367,-1.6665,-1.609,-1.609,-1.5677,-1.5228,-1.4803,-1.4294,-1.3831,-1.3415,-1.2997,-1.2705,-1.2705,-1.2095,-1.1569,-1.123,-1.123,-1.1354,-1.1655,-1.188,-1.2186,-1.2534,-1.2662,-1.2705,-1.2705,-1.2705,-1.2705,-1.2705,-1.2705,-1.2705,-1.2705,-1.2705,-1.2705,-1.2705,-1.2705,-1.2705,-1.2705,-1.2705,-1.2705,-1.2705,-1.2705,-1.2705,-1.2705,-1.2705,-1.2705,-1.2705,-0.3223,-0.3667,-0.4469,-0.5988,-0.6337,-0.6773,-0.7801,-0.834,-0.8612,-0.8612,-0.8612,-0.8612,-0.8612,-0.8612,-0.8612,-0.8612,-0.8612,-0.8828,-0.9388,-0.9781,-1.0207,-1.0727,-1.1084,-1.1305,-1.1305,-1.1305,-1.1305,-1.1305,-1.1305,-1.1305,-1.1305,-1.1305,-1.1305,-1.1305,-1.1305,-1.1305,-1.1305,-1.1305,-1.1305,-1.1305,-1.1305,-1.1645,-1.2198,-1.232,-1.3124,-1.423,-1.4356,-1.4824,-1.5389,-1.5389,-1.5389,-1.5389,-1.5389,-1.5389,-1.5389,-1.5389,-1.5472,-1.5631,-1.6004,-1.6451,-1.6943,-1.731,-1.7716,-1.8,-1.8,-1.8,-1.8,-1.8,-1.8,-1.8,-1.8,-1.7448,-1.6992,-1.6992,-1.6419,-1.5891,-1.5718,-1.5047,-1.4496,-1.4371,-1.3542,-1.2997,-1.3075,-1.2869,-1.279,-1.279,-1.2747,-1.2705,-1.2705,-1.2705,-1.2705,-1.2705,-1.2705,-1.2705,-1.2705,-1.2705,-1.2705,-1.2705,-1.2705,-1.2705,-1.2705,-1.2705,-1.2705,-1.2705,-1.2705,-1.2705,-1.2705,-1.2705,-1.2705,-1.2705,-1.2705,-1.2705,-1.2705,-1.2705,-1.2705,-1.2705,-0.2242,-0.2689,-0.3358,-0.4342,-0.5586,-0.6561,-0.7139,-0.7988,-0.8612,-0.8612,-0.8612,-0.8612,-0.8612,-0.8612,-0.8612,-0.8612,-0.8612,-0.8999,-0.9868,-0.9994,-1.0386,-1.1219,-1.1262,-1.1305,-1.1305,-1.1305,-1.1305,-1.1305,-1.1305,-1.1305,-1.1305,-1.1305,-1.1305,-1.1305,-1.1305,-1.1305,-1.1305,-1.1305,-1.1305,-1.1305,-1.1305,-1.1348,-1.1478,-1.2155,-1.2875,-1.3561,-1.4188,-1.4824,-1.5389,-1.5389,-1.5389,-1.5389,-1.5389,-1.5389,-1.5389,-1.5389,-1.5714,-1.6046,-1.6095,-1.6697,-1.7351,-1.7392,-1.7716,-1.8,-1.8,-1.8,-1.8,-1.8,-1.8,-1.8,-1.8,-1.791,-1.787,-1.787,-1.7789,-1.7497,-1.6698,-1.6486,-1.6239,-1.5621,-1.4538,-1.3957,-1.4238,-1.3548,-1.3052,-1.3052,-1.2839,-1.2705,-1.2705,-1.2705,-1.2705,-1.2705,-1.2705,-1.2705,-1.2705,-1.2705,-1.2705,-1.2705,-1.2705,-1.2705,-1.2705,-1.2705,-1.2705,-1.2705,-1.2705,-1.2705,-1.2705,-1.2705,-1.2705,-1.2705,-1.2705,-1.2705,-1.2705,-1.2705,-1.2705,-1.2705,-0.296,-0.2959,-0.3315,-0.4701,-0.5142,-0.5628,-0.6564,-0.7404,-0.7937,-0.7937,-0.834,-0.8612,-0.8612,-0.8612,-0.8612,-0.8612,-0.8872,-0.9305,-0.9951,-1.025,-1.0646,-1.1267,-1.1305,-1.1305,-1.1305,-1.1305,-1.1305,-1.1305,-1.1305,-1.1305,-1.1305,-1.1305,-1.1305,-1.1305,-1.1305,-1.1305,-1.1305,-1.1305,-1.1305,-1.1305,-1.1305,-1.1305,-1.1348,-1.1645,-1.2198,-1.2875,-1.3555,-1.423,-1.4866,-1.5257,-1.5389,-1.5389,-1.5389,-1.5597,-1.5797,-1.5797,-1.6128,-1.6533,-1.6779,-1.7147,-1.7473,-1.7716,-1.7878,-1.8,-1.8,-1.8,-1.8,-1.8,-1.8,-1.8,-1.8,-1.8,-1.8,-1.8,-1.8161,-1.8112,-1.7772,-1.7359,-1.7025,-1.6683,-1.5812,-1.5025,-1.4615,-1.474,-1.4413,-1.3349,-1.3179,-1.3052,-1.2966,-1.2924,-1.2881,-1.2705,-1.2705,-1.2705,-1.2705,-1.2705,-1.2705,-1.2705,-1.2705,-1.2705,-1.2705,-1.2705,-1.2705,-1.2705,-1.2705,-1.2705,-1.2705,-1.2705,-1.2705,-1.2705,-1.2705,-1.2705,-1.2705,-1.2705,-1.2705,-1.2705,-0.3497,-0.3317,-0.3539,-0.4835,-0.4921,-0.5142,-0.5988,-0.6694,-0.718,-0.718,-0.7628,-0.812,-0.8568,-0.8612,-0.8612,-0.8612,-0.9047,-0.9519,-0.9951,-1.0376,-1.0814,-1.1262,-1.1305,-1.1305,-1.1305,-1.1305,-1.1305,-1.1305,-1.1305,-1.1305,-1.1305,-1.1305,-1.1305,-1.1305,-1.1305,-1.1305,-1.1305,-1.1305,-1.1305,-1.1305,-1.1305,-1.1305,-1.1305,-1.1305,-1.1774,-1.2448,-1.2924,-1.3555,-1.423,-1.4873,-1.5208,-1.5333,-1.5548,-1.5839,-1.6128,-1.6252,-1.6574,-1.6984,-1.731,-1.7473,-1.7635,-1.7919,-1.8,-1.8,-1.8,-1.8,-1.8,-1.8,-1.8,-1.8,-1.8,-1.8,-1.804,-1.8121,-1.8282,-1.8442,-1.8482,-1.8063,-1.7772,-1.7796,-1.696,-1.6175,-1.5647,-1.564,-1.5191,-1.3971,-1.3646,-1.3355,-1.31,-1.3094,-1.2966,-1.2705,-1.2705,-1.2705,-1.2705,-1.2705,-1.2705,-1.2705,-1.2705,-1.2705,-1.2705,-1.2705,-1.2705,-1.2705,-1.2705,-1.2705,-1.2705,-1.2705,-1.2705,-1.2705,-1.2705,-1.2705,-1.2705,-1.2705,-1.2705,-1.2705,-0.3497,-0.3587,-0.3765,-0.421,-0.4924,-0.5416,-0.5416,-0.5988,-0.6428,-0.6428,-0.6432,-0.6962,-0.8432,-0.8612,-0.8612,-0.8612,-0.9047,-0.9519,-0.9951,-1.0376,-1.0814,-1.1262,-1.1305,-1.1305,-1.1305,-1.1305,-1.1305,-1.1305,-1.1305,-1.1305,-1.1305,-1.1305,-1.1305,-1.1305,-1.1305,-1.1305,-1.1305,-1.1305,-1.1305,-1.1305,-1.1305,-1.1305,-1.1305,-1.1305,-1.1774,-1.2406,-1.2406,-1.2839,-1.3519,-1.4188,-1.4727,-1.5228,-1.5873,-1.6087,-1.617,-1.6574,-1.7025,-1.7392,-1.7392,-1.7676,-1.7991,-1.8,-1.8,-1.8,-1.8,-1.8,-1.8,-1.8,-1.8,-1.8,-1.8,-1.8,-1.808,-1.8353,-1.8402,-1.8482,-1.866,-1.87,-1.8772,-1.8962,-1.7965,-1.7374,-1.7658,-1.606,-1.4998,-1.4998,-1.4181,-1.3525,-1.3137,-1.3094,-1.2966,-1.2705,-1.2705,-1.2705,-1.2705,-1.2705,-1.2705,-1.2705,-1.2705,-1.2705,-1.2705,-1.2705,-1.2705,-1.2705,-1.2705,-1.2705,-1.2705,-1.2705,-1.2705,-1.2705,-1.2705,-1.2705,-1.2705,-1.2705,-1.2705,-1.2705,-0.4032,-0.4076,-0.4121,-0.4253,-0.4478,-0.4656,-0.4656,-0.528,-0.5725,-0.5725,-0.6121,-0.6564,-0.7051,-0.7536,-0.8072,-0.8564,-0.9301,-0.9825,-0.9994,-1.0689,-1.1127,-1.1305,-1.1305,-1.1305,-1.1305,-1.1305,-1.1305,-1.1305,-1.1305,-1.1305,-1.1305,-1.1305,-1.1305,-1.1305,-1.1305,-1.1305,-1.1305,-1.1305,-1.1305,-1.1305,-1.1305,-1.1305,-1.1305,-1.1305,-1.1435,-1.1731,-1.224,-1.2534,-1.2833,-1.3639,-1.444,-1.522,-1.5899,-1.6525,-1.7025,-1.7147,-1.7473,-1.7797,-1.7797,-1.7919,-1.8,-1.8,-1.8,-1.8,-1.8,-1.8,-1.8,-1.8,-1.8,-1.808,-1.8241,-1.8273,-1.8362,-1.8571,-1.8732,-1.8843,-1.8891,-1.9033,-1.9112,-1.9192,-1.8895,-1.8439,-1.7948,-1.7908,-1.7455,-1.6239,-1.6445,-1.5662,-1.3434,-1.3185,-1.2966,-1.2705,-1.2705,-1.2705,-1.2705,-1.2875,-1.2966,-1.2966,-1.2966,-1.2966,-1.2966,-1.3094,-1.3179,-1.3179,-1.3179,-1.3179,-1.3179,-1.3179,-1.3179,-1.3179,-1.3179,-1.3179,-1.3179,-1.3179,-1.3179,-1.3179,-0.43,-0.43,-0.43,-0.43,-0.43,-0.43,-0.43,-0.4701,-0.4971,-0.4971,-0.5366,-0.5719,-0.5988,-0.6432,-0.7007,-0.772,-0.8899,-0.9598,-0.9598,-1.0651,-1.1305,-1.1305,-1.1305,-1.1305,-1.1305,-1.1305,-1.1305,-1.1305,-1.1305,-1.1305,-1.1305,-1.1305,-1.1305,-1.1305,-1.1305,-1.1305,-1.1305,-1.1305,-1.1354,-1.1435,-1.1354,-1.1348,-1.144,-1.144,-1.144,-1.1527,-1.2075,-1.2246,-1.2369,-1.3179,-1.3928,-1.4754,-1.5801,-1.6591,-1.7212,-1.7546,-1.7797,-1.8,-1.8,-1.8,-1.8,-1.8,-1.8,-1.8,-1.8,-1.8,-1.8,-1.8,-1.808,-1.8201,-1.8362,-1.8442,-1.8563,-1.8772,-1.8922,-1.9042,-1.9112,-1.9222,-1.9301,-1.9301,-1.9301,-1.9094,-1.8527,-1.8687,-1.8359,-1.7269,-1.7302,-1.656,-1.4636,-1.409,-1.3548,-1.296,-1.296,-1.296,-1.296,-1.3137,-1.3222,-1.3222,-1.3222,-1.3222,-1.3222,-1.3355,-1.3398,-1.3398,-1.3398,-1.3398,-1.3398,-1.3398,-1.3398,-1.3398,-1.3398,-1.3398,-1.3398,-1.3398,-1.3398,-1.3398,-0.43,-0.43,-0.43,-0.43,-0.43,-0.43,-0.43,-0.43,-0.43,-0.43,-0.43,-0.4567,-0.5238,-0.5327,-0.5591,-0.621,-0.7834,-0.8803,-0.8803,-1.025,-1.1132,-1.1219,-1.1219,-1.1219,-1.1305,-1.1305,-1.1305,-1.1305,-1.1305,-1.1311,-1.1348,-1.1348,-1.1354,-1.1354,-1.1354,-1.1354,-1.1354,-1.1354,-1.1483,-1.1699,-1.144,-1.1483,-1.1699,-1.1699,-1.1699,-1.1742,-1.1914,-1.2,-1.208,-1.2753,-1.3288,-1.3957,-1.5462,-1.6288,-1.6862,-1.7749,-1.8,-1.8,-1.8,-1.8,-1.8,-1.8,-1.8,-1.8,-1.804,-1.804,-1.8031,-1.804,-1.8241,-1.8442,-1.8442,-1.8612,-1.8772,-1.9002,-1.9002,-1.9073,-1.9262,-1.9301,-1.9301,-1.9301,-1.9301,-1.9301,-1.9301,-1.8567,-1.8078,-1.8078,-1.718,-1.656,-1.6519,-1.5696,-1.4671,-1.3519,-1.3476,-1.3476,-1.3398,-1.3398,-1.3434,-1.3434,-1.344,-1.344,-1.3434,-1.344,-1.344,-1.344,-1.344,-1.344,-1.344,-1.344,-1.344,-1.344,-1.344,-1.344,-1.344,-1.344,-1.344,-1.344,-0.43,-0.43,-0.43,-0.43,-0.43,-0.43,-0.43,-0.43,-0.43,-0.43,-0.43,-0.4387,-0.4523,-0.4567,-0.4701,-0.506,-0.6779,-0.7837,-0.7837,-0.8675,-0.9462,-1.0212,-1.0207,-1.0559,-1.1262,-1.1305,-1.1305,-1.1305,-1.1305,-1.1392,-1.1613,-1.1613,-1.1699,-1.1828,-1.1828,-1.1828,-1.1828,-1.1828,-1.1871,-1.1914,-1.1871,-1.1871,-1.1914,-1.1914,-1.1914,-1.1957,-1.2,-1.2,-1.2037,-1.2412,-1.3075,-1.3789,-1.4336,-1.5496,-1.6862,-1.7749,-1.8,-1.8,-1.8,-1.8,-1.8,-1.8,-1.8,-1.8031,-1.8282,-1.8322,-1.8362,-1.8491,-1.8571,-1.8692,-1.8843,-1.8882,-1.9002,-1.9192,-1.9231,-1.9271,-1.9301,-1.9301,-1.9301,-1.9301,-1.9301,-1.9301,-1.9301,-1.9094,-1.8975,-1.8975,-1.8767,-1.8318,-1.7666,-1.7423,-1.6396,-1.4461,-1.4378,-1.409,-1.3398,-1.3568,-1.3652,-1.3652,-1.3828,-1.3828,-1.3652,-1.3828,-1.3913,-1.3913,-1.3913,-1.3913,-1.3913,-1.3913,-1.3913,-1.3913,-1.3913,-1.3913,-1.3913,-1.3913,-1.3913,-1.3913,-0.43,-0.43,-0.43,-0.43,-0.43,-0.43,-0.43,-0.43,-0.43,-0.43,-0.43,-0.43,-0.43,-0.4389,-0.4525,-0.4705,-0.6115,-0.7041,-0.7177,-0.8013,-0.8719,-0.9244,-0.9244,-0.968,-1.0646,-1.0781,-1.1084,-1.1613,-1.1613,-1.1699,-1.1828,-1.1828,-1.1914,-1.2,-1.2,-1.2,-1.2,-1.2,-1.208,-1.216,-1.2043,-1.208,-1.216,-1.216,-1.216,-1.2203,-1.2289,-1.2332,-1.2332,-1.2491,-1.2869,-1.333,-1.3831,-1.4963,-1.6296,-1.7164,-1.77,-1.8,-1.8,-1.8,-1.8,-1.8,-1.8072,-1.8241,-1.8362,-1.8482,-1.8571,-1.87,-1.8772,-1.8851,-1.8962,-1.9073,-1.9183,-1.9262,-1.9301,-1.9301,-1.9301,-1.9301,-1.9301,-1.9301,-1.9301,-1.9301,-1.9301,-1.9301,-1.9301,-1.9301,-1.9301,-1.9094,-1.8607,-1.8607,-1.7504,-1.5088,-1.5005,-1.4594,-1.3737,-1.3828,-1.3864,-1.3864,-1.4046,-1.3997,-1.3913,-1.4046,-1.4088,-1.4088,-1.4088,-1.4088,-1.4088,-1.4088,-1.4088,-1.4088,-1.4088,-1.4088,-1.4088,-1.4088,-1.4088,-1.4088,-0.43,-0.43,-0.43,-0.43,-0.43,-0.43,-0.43,-0.43,-0.43,-0.43,-0.43,-0.43,-0.4344,-0.4569,-0.475,-0.4795,-0.5672,-0.6331,-0.6558,-0.7533,-0.8149,-0.8281,-0.8281,-0.8719,-0.968,-0.9941,-1.0641,-1.178,-1.178,-1.1866,-1.2037,-1.2037,-1.208,-1.2123,-1.2123,-1.2123,-1.2123,-1.2123,-1.2246,-1.2448,-1.2203,-1.2246,-1.2448,-1.2448,-1.2448,-1.2448,-1.2619,-1.2705,-1.2705,-1.2705,-1.2705,-1.2833,-1.3584,-1.4426,-1.5345,-1.6247,-1.7123,-1.7829,-1.7951,-1.8,-1.8,-1.8031,-1.8233,-1.8442,-1.8482,-1.8612,-1.8732,-1.8772,-1.8922,-1.9042,-1.9042,-1.9192,-1.9301,-1.9301,-1.9301,-1.9301,-1.9301,-1.9301,-1.9301,-1.9301,-1.9301,-1.9301,-1.9301,-1.9301,-1.9301,-1.9301,-1.9301,-1.9301,-1.9301,-1.9301,-1.8198,-1.5884,-1.5801,-1.5311,-1.4292,-1.4173,-1.4088,-1.4088,-1.4088,-1.4088,-1.4088,-1.4088,-1.4088,-1.4088,-1.4124,-1.4166,-1.4166,-1.4166,-1.4208,-1.4208,-1.4208,-1.4208,-1.4208,-1.4208,-1.4166,-1.4166,-0.43,-0.43,-0.43,-0.43,-0.43,-0.43,-0.43,-0.43,-0.43,-0.43,-0.43,-0.4389,-0.4614,-0.4661,-0.4839,-0.5238,-0.546,-0.5591,-0.5636,-0.5949,-0.6482,-0.7272,-0.7316,-0.7753,-0.8719,-0.8978,-0.9676,-1.0809,-1.0809,-1.1332,-1.2326,-1.2326,-1.2412,-1.2583,-1.2583,-1.2583,-1.2583,-1.2583,-1.2619,-1.2662,-1.2619,-1.2619,-1.2662,-1.2662,-1.2662,-1.2662,-1.2705,-1.2705,-1.2705,-1.2705,-1.2705,-1.2705,-1.2875,-1.3499,-1.442,-1.5345,-1.6214,-1.7074,-1.7789,-1.8,-1.8031,-1.8282,-1.8362,-1.8482,-1.8843,-1.8922,-1.9002,-1.9152,-1.9231,-1.9262,-1.9262,-1.9262,-1.9301,-1.9301,-1.9301,-1.9301,-1.9301,-1.9301,-1.9301,-1.9301,-1.9301,-1.9301,-1.9301,-1.9301,-1.9301,-1.9301,-1.9301,-1.9301,-1.9301,-1.9301,-1.8767,-1.7634,-1.7594,-1.6813,-1.5193,-1.4454,-1.4088,-1.4088,-1.4088,-1.4088,-1.4088,-1.4088,-1.4088,-1.413,-1.4279,-1.4356,-1.4356,-1.4531,-1.4615,-1.4615,-1.4615,-1.4615,-1.4615,-1.4615,-1.4482,-1.4398,-0.43,-0.43,-0.43,-0.43,-0.43,-0.43,-0.43,-0.43,-0.43,-0.43,-0.4433,-0.4569,-0.4705,-0.4928,-0.5149,-0.5371,-0.5508,-0.5552,-0.5552,-0.5644,-0.5911,-0.6305,-0.6349,-0.6918,-0.8101,-0.8755,-0.9453,-1.0231,-1.0231,-1.0491,-1.1052,-1.158,-1.1843,-1.1972,-1.2485,-1.2705,-1.2705,-1.2705,-1.2705,-1.2705,-1.2705,-1.2705,-1.2705,-1.2705,-1.2705,-1.2705,-1.2705,-1.2705,-1.2705,-1.2705,-1.2705,-1.2705,-1.2705,-1.3626,-1.4845,-1.5269,-1.6337,-1.7497,-1.787,-1.8121,-1.8241,-1.8362,-1.8563,-1.8754,-1.8962,-1.9073,-1.9183,-1.9262,-1.9301,-1.9301,-1.9301,-1.9301,-1.9301,-1.9301,-1.9301,-1.9341,-1.9429,-1.9478,-1.9508,-1.9627,-1.9618,-1.9618,-1.9618,-1.9618,-1.9618,-1.9618,-1.9618,-1.9618,-1.9618,-1.9618,-1.946,-1.9054,-1.7917,-1.6698,-1.5394,-1.4985,-1.4783,-1.4783,-1.4894,-1.522,-1.567,-1.5752,-1.5553,-1.5144,-1.522,-1.5019,-1.4566,-1.465,-1.4692,-1.4692,-1.4692,-1.4977,-1.5387,-1.5387,-1.5628,-1.5992,-0.4253,-0.43,-0.43,-0.43,-0.43,-0.43,-0.43,-0.43,-0.4344,-0.4389,-0.4569,-0.475,-0.4839,-0.5193,-0.5416,-0.5463,-0.5599,-0.5688,-0.5688,-0.5688,-0.5688,-0.5688,-0.5777,-0.6349,-0.7529,-0.8273,-0.893,-0.9575,-0.9575,-0.9705,-0.9923,-1.0621,-1.0971,-1.102,-1.1972,-1.2357,-1.24,-1.2619,-1.2705,-1.2705,-1.2705,-1.2705,-1.2705,-1.2705,-1.2705,-1.2705,-1.2705,-1.2705,-1.2705,-1.2705,-1.2705,-1.2705,-1.2705,-1.3626,-1.4831,-1.5216,-1.6532,-1.7937,-1.8109,-1.8322,-1.8482,-1.8523,-1.8754,-1.9002,-1.9073,-1.9183,-1.9301,-1.9301,-1.9301,-1.9301,-1.9301,-1.9301,-1.9301,-1.9301,-1.9341,-1.9429,-1.9566,-1.9636,-1.9715,-1.9863,-1.9902,-1.9902,-1.9902,-1.9902,-1.9902,-1.9902,-1.9902,-1.9902,-1.9902,-1.9902,-1.9902,-1.9902,-1.8118,-1.6813,-1.6165,-1.5918,-1.5842,-1.5842,-1.5992,-1.6437,-1.7082,-1.7212,-1.6935,-1.6322,-1.6363,-1.5918,-1.511,-1.5345,-1.5352,-1.5186,-1.5387,-1.5876,-1.6445,-1.6445,-1.6854,-1.7415,-0.4119,-0.43,-0.43,-0.43,-0.43,-0.43,-0.43,-0.43,-0.4389,-0.4661,-0.4705,-0.4884,-0.5282,-0.5371,-0.5463,-0.5644,-0.5688,-0.5688,-0.5688,-0.5688,-0.5688,-0.5688,-0.5952,-0.6305,-0.6881,-0.6925,-0.7492,-0.8584,-0.8584,-0.9061,-0.9923,-0.9966,-1.0009,-1.0053,-1.0971,-1.1408,-1.1451,-1.2314,-1.2705,-1.2705,-1.2705,-1.2705,-1.2705,-1.2705,-1.2705,-1.2705,-1.2705,-1.2705,-1.2705,-1.2705,-1.2705,-1.2705,-1.2705,-1.279,-1.3201,-1.4696,-1.6265,-1.7693,-1.8457,-1.8652,-1.8732,-1.8922,-1.8962,-1.9042,-1.9222,-1.9301,-1.9301,-1.9301,-1.9301,-1.9301,-1.9301,-1.9301,-1.9301,-1.9301,-1.9478,-1.9566,-1.9606,-1.9754,-1.9863,-1.9902,-1.9902,-1.9902,-1.9902,-1.9902,-1.9902,-1.9902,-1.9902,-1.9902,-1.9902,-1.9902,-1.9902,-1.9902,-1.8966,-1.8439,-1.8359,-1.7545,-1.718,-1.718,-1.718,-1.722,-1.7302,-1.7293,-1.7261,-1.722,-1.7455,-1.7058,-1.6345,-1.7359,-1.7261,-1.6617,-1.7432,-1.7796,-1.7836,-1.7836,-1.7787,-1.7698,-0.336,-0.3896,-0.43,-0.43,-0.43,-0.4344,-0.4525,-0.4569,-0.4614,-0.4835,-0.5015,-0.5193,-0.5371,-0.5508,-0.5599,-0.5688,-0.5688,-0.5688,-0.5688,-0.5688,-0.5777,-0.5952,-0.6038,-0.6305,-0.6795,-0.6705,-0.6964,-0.7527,-0.7425,-0.7581,-0.7916,-0.8615,-0.9226,-0.9833,-1.0828,-1.1628,-1.2186,-1.2528,-1.2705,-1.2705,-1.2705,-1.2705,-1.2705,-1.2705,-1.2705,-1.2705,-1.2705,-1.2705,-1.2705,-1.2705,-1.279,-1.2893,-1.2679,-1.3437,-1.4674,-1.6295,-1.7223,-1.7762,-1.819,-1.8233,-1.8148,-1.8224,-1.8339,-1.8526,-1.8841,-1.8935,-1.9008,-1.9256,-1.9301,-1.9301,-1.9301,-1.939,-1.9478,-1.9478,-1.9636,-1.9833,-2.0029,-2.0108,-2.0186,-2.0333,-2.0333,-2.0333,-2.0333,-2.0333,-2.0333,-2.0333,-2.0333,-2.0333,-2.0333,-2.0333,-2.0333,-2.0333,-2.0001,-1.9441,-1.8598,-1.827,-1.8109,-1.8109,-1.827,-1.8638,-1.9164,-1.9274,-1.9036,-1.8567,-1.8647,-1.8198,-1.744,-1.7836,-1.7796,-1.7553,-1.7876,-1.8327,-1.8816,-1.8816,-1.9085,-1.9511,-0.2777,-0.3403,-0.3985,-0.4344,-0.4433,-0.4523,-0.4748,-0.4792,-0.4879,-0.5102,-0.528,-0.5416,-0.5508,-0.5599,-0.5688,-0.5688,-0.5653,-0.5632,-0.5632,-0.5687,-0.5813,-0.611,-0.6162,-0.6356,-0.6747,-0.6692,-0.6681,-0.6858,-0.6753,-0.6702,-0.6702,-0.7468,-0.8149,-0.8787,-0.9846,-1.08,-1.1643,-1.1949,-1.2247,-1.2578,-1.2578,-1.2626,-1.2705,-1.2705,-1.2705,-1.2705,-1.2705,-1.2693,-1.2662,-1.2662,-1.2782,-1.2933,-1.2936,-1.4153,-1.5777,-1.6885,-1.7339,-1.7551,-1.7706,-1.7624,-1.7569,-1.7823,-1.8007,-1.8229,-1.8623,-1.8715,-1.8825,-1.9307,-1.939,-1.9429,-1.946,-1.9587,-1.9676,-1.9676,-1.9863,-2.0108,-2.0264,-2.0342,-2.045,-2.0566,-2.0605,-2.0605,-2.0605,-2.0605,-2.0605,-2.0605,-2.0605,-2.0605,-2.0605,-2.0605,-2.0605,-2.0605,-2.0605,-2.0206,-1.9323,-1.9244,-1.9244,-1.9234,-1.9402,-1.9844,-2.0508,-2.0615,-2.0411,-1.9902,-1.9902,-1.9402,-1.8638,-1.8877,-1.8838,-1.863,-1.8917,-1.9362,-1.9902,-1.9902,-2.0294,-2.0809,-0.2509,-0.2911,-0.327,-0.448,-0.4705,-0.4748,-0.4966,-0.501,-0.5099,-0.5371,-0.5416,-0.5463,-0.5688,-0.5688,-0.5688,-0.5686,-0.5575,-0.5505,-0.5505,-0.5608,-0.5846,-0.6187,-0.6279,-0.6415,-0.6702,-0.6698,-0.6698,-0.6698,-0.6698,-0.6698,-0.6698,-0.6698,-0.6698,-0.674,-0.7687,-0.8541,-0.938,-1.0328,-1.1328,-1.2312,-1.2312,-1.2469,-1.2699,-1.2699,-1.2699,-1.2699,-1.2699,-1.2656,-1.2601,-1.2601,-1.2585,-1.2638,-1.3449,-1.4714,-1.5891,-1.5928,-1.6367,-1.6908,-1.6908,-1.6908,-1.7101,-1.7871,-1.8072,-1.8219,-1.8614,-1.8705,-1.8863,-1.9474,-1.9597,-1.9676,-1.9863,-1.9902,-1.9902,-1.9902,-2.0147,-2.0303,-2.0303,-2.045,-2.0605,-2.0605,-2.0605,-2.0605,-2.0605,-2.0605,-2.0605,-2.0605,-2.0605,-2.0605,-2.0605,-2.0605,-2.0605,-2.0605,-2.0605,-2.0693,-2.0906,-2.0693,-2.0605,-2.0605,-2.0605,-2.0693,-2.0906,-2.0906,-2.1022,-2.1205,-2.1205,-2.0722,-1.9982,-2.0838,-2.0683,-1.9982,-2.0838,-2.1205,-2.1205,-2.1205,-2.1205,-2.1205,-0.1836,-0.264,-0.3489,-0.4699,-0.4924,-0.5013,-0.5235,-0.528,-0.5371,-0.5597,-0.5599,-0.5612,-0.557,-0.5561,-0.5526,-0.5485,-0.5445,-0.551,-0.5639,-0.585,-0.6037,-0.6119,-0.6258,-0.6415,-0.6702,-0.6597,-0.6539,-0.6539,-0.648,-0.6433,-0.6433,-0.6532,-0.6903,-0.7588,-0.8517,-0.943,-1.0328,-1.1186,-1.1721,-1.2041,-1.2041,-1.2164,-1.2319,-1.2196,-1.2319,-1.2522,-1.24,-1.2432,-1.2599,-1.3194,-1.3445,-1.3768,-1.5054,-1.5634,-1.5925,-1.6466,-1.6746,-1.6908,-1.6908,-1.6908,-1.6963,-1.7211,-1.7275,-1.7412,-1.7925,-1.8276,-1.8667,-1.9277,-1.9587,-1.9833,-1.9902,-2.0059,-2.0186,-2.0186,-2.0381,-2.0489,-2.0489,-2.0566,-2.0605,-2.0605,-2.0605,-2.0605,-2.0605,-2.0605,-2.0605,-2.0605,-2.0605,-2.0654,-2.0819,-2.0819,-2.0896,-2.1002,-2.1002,-2.1051,-2.1099,-2.0896,-2.0896,-2.1002,-2.1002,-2.1051,-2.1099,-2.1099,-2.1128,-2.1205,-2.1205,-2.1041,-2.0838,-2.1089,-2.1041,-2.0838,-2.1089,-2.1205,-2.1205,-2.1205,-2.1205,-2.1205,-0.1522,-0.2326,-0.3264,-0.4877,-0.5146,-0.5235,-0.5463,-0.5468,-0.5484,-0.5618,-0.5619,-0.5561,-0.5485,-0.548,-0.5447,-0.5418,-0.5408,-0.5524,-0.576,-0.5919,-0.6073,-0.6156,-0.6241,-0.6367,-0.6525,-0.6474,-0.6429,-0.6429,-0.634,-0.63,-0.6303,-0.6388,-0.6899,-0.7764,-0.8339,-0.9266,-1.042,-1.0897,-1.1353,-1.1769,-1.1848,-1.1988,-1.22,-1.216,-1.228,-1.2485,-1.2359,-1.237,-1.2589,-1.3395,-1.4112,-1.4869,-1.5839,-1.6227,-1.6473,-1.6968,-1.7151,-1.7151,-1.7151,-1.7151,-1.7151,-1.7151,-1.7081,-1.7149,-1.7681,-1.819,-1.8704,-1.9279,-1.9773,-2.0098,-2.0177,-2.0294,-2.042,-2.042,-2.0527,-2.0605,-2.0605,-2.0605,-2.0605,-2.0605,-2.0605,-2.0605,-2.0605,-2.0605,-2.0644,-2.0693,-2.0809,-2.0886,-2.1022,-2.1022,-2.1051,-2.1205,-2.1205,-2.1244,-2.132,-2.1205,-2.1177,-2.1205,-2.1205,-2.1244,-2.132,-2.132,-2.1359,-2.1436,-2.1436,-2.1436,-2.1436,-2.1436,-2.1436,-2.1436,-2.1436,-2.1436,-2.1436,-2.1436,-2.1436,-2.1436,-0.138,-0.1958,-0.2803,-0.4896,-0.5341,-0.5476,-0.5656,-0.5561,-0.5491,-0.5491,-0.5436,-0.5407,-0.5396,-0.5394,-0.5391,-0.538,-0.5482,-0.5643,-0.587,-0.5941,-0.606,-0.63,-0.63,-0.63,-0.63,-0.63,-0.63,-0.63,-0.63,-0.6338,-0.6412,-0.6412,-0.6834,-0.7595,-0.7672,-0.8508,-0.9922,-0.9992,-1.0579,-1.1492,-1.1684,-1.191,-1.2205,-1.237,-1.2443,-1.2482,-1.2449,-1.244,-1.2528,-1.3388,-1.4697,-1.5939,-1.6079,-1.6603,-1.7279,-1.747,-1.7505,-1.7505,-1.7505,-1.7505,-1.7505,-1.7505,-1.7358,-1.7338,-1.7696,-1.8261,-1.8907,-1.9448,-1.9976,-2.0372,-2.0566,-2.0605,-2.0605,-2.0605,-2.0605,-2.0605,-2.0605,-2.0605,-2.0605,-2.0605,-2.0605,-2.0605,-2.0644,-2.0644,-2.0731,-2.0906,-2.1099,-2.1205,-2.1244,-2.1244,-2.1244,-2.1244,-2.1244,-2.1359,-2.154,-2.154,-2.1425,-2.1244,-2.1244,-2.1359,-2.154,-2.154,-2.1617,-2.1807,-2.1845,-2.1835,-2.1835,-2.1835,-2.1883,-2.1921,-2.1883,-2.1835,-2.1845,-2.1883,-2.1845,-2.1807,-0.098,-0.1788,-0.2723,-0.4128,-0.4937,-0.5405,-0.5447,-0.5426,-0.5409,-0.5409,-0.5427,-0.5375,-0.5238,-0.5224,-0.527,-0.5331,-0.5614,-0.5856,-0.5902,-0.6099,-0.6219,-0.63,-0.63,-0.63,-0.63,-0.63,-0.63,-0.63,-0.63,-0.6606,-0.7253,-0.7253,-0.7676,-0.8475,-0.9084,-0.9576,-0.996,-1.0556,-1.1073,-1.1427,-1.1465,-1.1721,-1.2041,-1.1929,-1.2079,-1.2304,-1.2154,-1.219,-1.2547,-1.3923,-1.5486,-1.689,-1.6915,-1.7176,-1.7426,-1.7505,-1.7505,-1.7505,-1.7505,-1.7505,-1.7505,-1.7505,-1.7554,-1.7598,-1.7693,-1.834,-1.9024,-1.9294,-2.0001,-2.0566,-2.0605,-2.0605,-2.0605,-2.0605,-2.0605,-2.0605,-2.0605,-2.0605,-2.0605,-2.0605,-2.0605,-2.0654,-2.0819,-2.0974,-2.1089,-2.1128,-2.1177,-2.1282,-2.1436,-2.1425,-2.1512,-2.1655,-2.1655,-2.1693,-2.1731,-2.1731,-2.1693,-2.1655,-2.1655,-2.1693,-2.1731,-2.1731,-2.1769,-2.1807,-2.2138,-2.2252,-2.2252,-2.2252,-2.2478,-2.2703,-2.2402,-2.2252,-2.2327,-2.2628,-2.2327,-2.1845,-0.1385,-0.2098,-0.2977,-0.4446,-0.5116,-0.541,-0.541,-0.5361,-0.5322,-0.5322,-0.5235,-0.5175,-0.5113,-0.5105,-0.5199,-0.5407,-0.5709,-0.5941,-0.6099,-0.6219,-0.63,-0.63,-0.63,-0.63,-0.63,-0.63,-0.63,-0.63,-0.63,-0.6721,-0.7484,-0.7484,-0.8131,-0.9311,-0.9728,-1.0105,-1.0519,-1.1037,-1.1298,-1.1409,-1.1595,-1.1818,-1.2003,-1.2003,-1.2114,-1.2298,-1.2187,-1.2696,-1.3528,-1.443,-1.5851,-1.7235,-1.7407,-1.751,-1.7623,-1.7701,-1.7745,-1.7745,-1.7745,-1.7745,-1.7745,-1.7745,-1.7794,-1.7818,-1.7706,-1.845,-1.9178,-1.9287,-2.0008,-2.0605,-2.0605,-2.0605,-2.0605,-2.0605,-2.0605,-2.0605,-2.0605,-2.0605,-2.0605,-2.0605,-2.0693,-2.0819,-2.1012,-2.1244,-2.1359,-2.1359,-2.1436,-2.154,-2.1655,-2.1655,-2.1693,-2.1807,-2.1807,-2.1807,-2.1807,-2.1807,-2.1807,-2.1807,-2.1807,-2.1921,-2.2111,-2.2111,-2.2176,-2.2365,-2.259,-2.2703,-2.2703,-2.2703,-2.2815,-2.2964,-2.2777,-2.2703,-2.2703,-2.2927,-2.274,-2.2402,-0.1618,-0.2323,-0.3151,-0.4641,-0.5141,-0.535,-0.535,-0.5222,-0.5156,-0.5156,-0.5075,-0.5018,-0.5018,-0.5057,-0.5249,-0.5637,-0.5828,-0.606,-0.63,-0.63,-0.63,-0.63,-0.63,-0.63,-0.63,-0.63,-0.63,-0.63,-0.6454,-0.6949,-0.7748,-0.7902,-0.8775,-1.0218,-1.0218,-1.0588,-1.1223,-1.1372,-1.1484,-1.1521,-1.1855,-1.2003,-1.2077,-1.2224,-1.2305,-1.2305,-1.2305,-1.331,-1.4673,-1.4832,-1.5965,-1.7339,-1.7604,-1.7706,-1.7784,-1.794,-1.8008,-1.8008,-1.8008,-1.8008,-1.8008,-1.8008,-1.8008,-1.7959,-1.7871,-1.8605,-1.9307,-1.9375,-2.0057,-2.0605,-2.0605,-2.0605,-2.0605,-2.0605,-2.0605,-2.0605,-2.0644,-2.0644,-2.0644,-2.0683,-2.0896,-2.1061,-2.1244,-2.1425,-2.154,-2.154,-2.1693,-2.1807,-2.1807,-2.1807,-2.1807,-2.1807,-2.1807,-2.1807,-2.1807,-2.1883,-2.1921,-2.1921,-2.1959,-2.2138,-2.2402,-2.2478,-2.2665,-2.3001,-2.3075,-2.3113,-2.3113,-2.3113,-2.315,-2.3187,-2.315,-2.3113,-2.3075,-2.3038,-2.3075,-2.3187,-0.0277,-0.1503,-0.2608,-0.2844,-0.411,-0.5064,-0.5064,-0.505,-0.504,-0.504,-0.5026,-0.5018,-0.5018,-0.5326,-0.5598,-0.5825,-0.6103,-0.6261,-0.63,-0.63,-0.63,-0.63,-0.63,-0.63,-0.63,-0.63,-0.63,-0.63,-0.6988,-0.7825,-0.8808,-0.9496,-1.04,-1.1446,-1.1446,-1.1521,-1.1632,-1.1632,-1.1744,-1.1929,-1.1966,-1.2114,-1.2261,-1.2298,-1.2305,-1.2305,-1.2305,-1.3382,-1.4859,-1.4903,-1.6132,-1.7638,-1.7672,-1.7818,-1.7974,-1.7974,-1.8008,-1.8008,-1.8008,-1.8008,-1.8008,-1.8008,-1.8008,-1.8071,-1.8397,-1.89,-1.9394,-1.9756,-2.0225,-2.0605,-2.0605,-2.0605,-2.0605,-2.0605,-2.0605,-2.0654,-2.0819,-2.0867,-2.0935,-2.1089,-2.132,-2.1436,-2.1474,-2.1655,-2.1769,-2.1769,-2.1769,-2.1807,-2.1807,-2.1807,-2.1807,-2.1807,-2.1807,-2.1807,-2.1807,-2.2138,-2.2327,-2.2327,-2.2665,-2.2665,-2.2402,-2.2777,-2.2964,-2.3001,-2.3372,-2.3519,-2.3519,-2.3519,-2.3714,-2.4007,-2.3629,-2.3519,-2.3482,-2.315,-2.3446,-2.397,-0.0628,-0.1684,-0.2659,-0.3127,-0.4229,-0.5018,-0.5018,-0.5018,-0.5018,-0.5018,-0.5018,-0.5018,-0.5018,-0.5365,-0.5673,-0.5864,-0.6141,-0.63,-0.63,-0.63,-0.63,-0.63,-0.63,-0.63,-0.63,-0.63,-0.63,-0.63,-0.7103,-0.8012,-0.9003,-0.9836,-1.0738,-1.1706,-1.1706,-1.1706,-1.1706,-1.1818,-1.1929,-1.2003,-1.2114,-1.2231,-1.2305,-1.2305,-1.2305,-1.2378,-1.2813,-1.3781,-1.4974,-1.5498,-1.6585,-1.7706,-1.7828,-1.793,-1.8008,-1.8008,-1.8008,-1.8008,-1.8008,-1.8008,-1.8008,-1.8008,-1.8008,-1.8184,-1.8848,-1.915,-1.9404,-1.9824,-2.0264,-2.0605,-2.0605,-2.0605,-2.0605,-2.0605,-2.0693,-2.0819,-2.0906,-2.0984,-2.1128,-2.1359,-2.1436,-2.154,-2.1655,-2.1769,-2.1807,-2.1807,-2.1807,-2.1807,-2.1807,-2.1987,-2.2035,-2.1807,-2.2531,-2.267,-2.2138,-2.282,-2.3043,-2.274,-2.315,-2.3224,-2.3075,-2.3261,-2.3446,-2.3677,-2.3861,-2.3934,-2.3934,-2.3934,-2.4043,-2.4189,-2.4007,-2.3934,-2.3897,-2.3751,-2.3897,-2.4164]},{"header":{"parameterUnit":"m.s-1","parameterCategory":1,"la1":30.6,"la2":28.766,"lo1":-90.7593,"lo2":-88.6598,"dy":0.0162,"dx":0.0183,"nx":116,"ny":114,"refTime":"2023-08-28T06:00:00:Z","depth":0,"parameterNumber":3,"parameterNumberName":"V-component_of_WINDS"},"data":[0.0,0.0,0.0,0.0,0.0,0.0,0.0,0.0,0.0,0.0,0.0,0.0,0.0,0.0,0.0,0.0,0.0,0.0,0.0,0.0,0.0,0.0,0.0,0.0,0.0,0.0,0.0,0.0,0.0,0.0,0.0,0.0,0.0,0.0,0.0,0.0,0.0,0.0,0.0,0.0,0.0,0.0,0.0,0.0,0.0,0.0,0.0,0.0,0.0,0.0,0.0,0.0,0.0,0.0,0.0,0.0,0.0,0.0,0.0,0.0,0.0,0.0,0.0,0.0,0.0,0.0,0.0,0.0,0.0,0.0,0.0,0.0,0.0,0.0,0.0,0.0,0.0,0.0,0.0,0.0,0.0,0.0,0.0,0.0,0.0,0.0,0.0,0.0,0.0,0.0,0.0,0.0,0.0,0.0,0.0,0.0,0.0,0.0,0.0,0.0,0.0,0.0,0.0,0.0,0.0,0.0,0.0,0.0,0.0,0.0,0.0,0.0,0.0,0.0,0.0,0.0,0.0,0.0,0.0,0.0,0.0,0.0,0.0,0.0,0.0,0.0,0.0,0.0,0.0,0.0,0.0,0.0,0.0,0.0,0.0,0.0,0.0,0.0,0.0,0.0,0.0,0.0,0.0,0.0,0.0,0.0,0.0,0.0,0.0,0.0,0.0,0.0,0.0,0.0,0.0,0.0,0.0,0.0,0.0,0.0,0.0,0.0,0.0,0.0,0.0,0.0,0.0,0.0,0.0,0.0,0.0,0.0,0.0,0.0,0.0,0.0,0.0,0.0,0.0,0.0,0.0,0.0,0.0,0.0,0.0,0.0,0.0,0.0,0.0,0.0,0.0,0.0,0.0,0.0,0.0,0.0,0.0,0.0,0.0,0.0,0.0,0.0,0.0,0.0,0.0,0.0,0.0,0.0,0.0,0.0,0.0,0.0,0.0,0.0,0.0,0.0,0.0,0.0,0.0,0.0,0.0,0.0,0.0,0.0,0.0,0.0,0.0,0.0,0.0,0.0,0.0,0.0,0.0,0.0,0.0,0.0,0.0,0.0,0.0,0.0,0.0,0.0,0.0,0.0,0.0,0.0,0.0,0.0,0.0,0.0,0.0,0.0,0.0,0.0,0.0,0.0,0.0,0.0,0.0,0.0,0.0,0.0,0.0,0.0,0.0,0.0,0.0,0.0,0.0,0.0,0.0,0.0,0.0,0.0,0.0,0.0,0.0,0.0,0.0,0.0,0.0,0.0,0.0,0.0,0.0,0.0,0.0,0.0,0.0,0.0,0.0,0.0,0.0,0.0,0.0,0.0,0.0,0.0,0.0,0.0,0.0,0.0,0.0,0.0,0.0,0.0,0.0,0.0,0.0,0.0,0.0,0.0,0.0,0.0,0.0,0.0,0.0,0.0,0.0,0.0,0.0,0.0,0.0,0.0,0.0,0.0,0.0,0.0,0.0,0.0,0.0,0.0,0.0,0.0,0.0,0.0,0.0,0.0,0.0,0.0,0.0,0.0,0.0,0.0,0.0,0.0,0.0,0.0,0.0,0.0,0.0,0.0,0.0,0.0,0.0,0.0,0.0,0.0,0.0,0.0,0.0,0.0,0.0,0.0,0.0,0.0,0.0,0.0,0.0,0.0,0.0,0.0,0.0,0.0,0.0,0.0,0.0,0.0,0.0,0.0,0.0,0.0,0.0,0.0,0.0,0.0,0.0,0.0,0.0,0.0,0.0,0.0,0.0,0.0,0.0,0.0,0.0,0.0,0.0,0.0,0.0,0.0,0.0,0.0,0.0,0.0,0.0,0.0,0.0,0.0,0.0,0.0,0.0,0.0,0.0,0.0,0.0,0.0,0.0,0.0,0.0,0.0,0.0,0.0,0.0,0.0,0.0,0.0,0.0,0.0,0.0,0.0,0.0,0.0,0.0,0.0,0.0,0.0,0.0,0.0,0.0,0.0,0.0,0.0,0.0,0.0,0.0,0.0,0.0,0.0,0.0,0.0,0.0,0.0,0.0,0.0,0.0,0.0,0.0,0.0,0.0,0.0,0.0,0.0,0.0,0.0,0.0,0.0,0.0,0.0,0.0,0.0,0.0,0.0,0.0,0.0,0.0,0.0,0.0,0.0,0.0,0.0,0.0,0.0,0.0,0.0,0.0,0.0,0.0,0.0,0.0,0.0,0.0,0.0,0.0,0.0,0.0,0.0,0.0,0.0,0.0,0.0,0.0,0.0,0.0,0.0,0.0,0.0,0.0,0.0,0.0,0.0,0.0,0.0,0.0,0.0,0.0,0.0,0.0,0.0,0.0,0.0,0.0,0.0,0.0,0.0,0.0,0.0,0.0,0.0,0.0,0.0,0.0,0.0,0.0,0.0,0.0,0.0,0.0,0.0,0.0,0.0,0.0,0.0,0.0,0.0,0.0,0.0,0.0,0.0,0.0,0.0,0.0,0.0,0.0,0.0,0.0,0.0,0.0,0.0,0.0,0.0,0.0,0.0,0.0,0.0,0.0,0.0,0.0,0.0,0.0,0.0,0.0,0.0,0.0,0.0,0.0,0.0,0.0,0.0,0.0,0.0,0.0,0.0,0.0,0.0,0.0,0.0,0.0,0.0,0.0,0.0,0.0,0.0,0.0,0.0,0.0,0.0,0.0,0.0,0.0,0.0,0.0,0.0,0.0,0.0,0.0,0.0,0.0,0.0,0.0,0.0,0.0,0.0,0.0,0.0,0.0,0.0,0.0,0.0,0.0,0.0,0.0,0.0,0.0,0.0,0.0,0.0,0.0,0.0,0.0,0.0,0.0,0.0,0.0,0.0,0.0,0.0,0.0,0.0,0.0,0.0,0.0,0.0,0.0,0.0,0.0,0.0,0.0,0.0,0.0,0.0,0.0,0.0,0.0,0.0,0.0,0.0,0.0,0.0,0.0,0.0,0.0,0.0,0.0,0.0,0.0,0.0,0.0,0.0,0.0,0.0,0.0,0.0,0.0,0.0,0.0,0.0,0.0,0.0,0.0,0.0,0.0,0.0,0.0,0.0,0.0,0.0,0.0,0.0,0.0,0.0,0.0,0.0,0.0,0.0,0.0,0.0,0.0,0.0,0.0,0.0,0.0,0.0,0.0,0.0,0.0,0.0,0.0,0.0,0.0,0.0,0.0,0.0,0.0,0.0,0.0,0.0,0.0,0.0,0.0,0.0,0.0,0.0,0.0,0.0,0.0,0.0,0.0,0.0,0.0,0.0,0.0,0.0,0.0,0.0,0.0,0.0,0.0,0.0,0.0,0.0,0.0,0.0,0.0,0.0,0.0,0.0,0.0,0.0,0.0,0.0,0.0,0.0,0.0,0.0,0.0,0.0,0.0,0.0,0.0,0.0,0.0,0.0,0.0,0.0,0.0,0.0,0.0,0.0,0.0,0.0,0.0,0.0,0.0,0.0,0.0,0.0,0.0,0.0,0.0,0.0,0.0,0.0,0.0,0.0,0.0,0.0,0.0,0.0,0.0,0.0,0.0,0.0,0.0,0.0,0.0,0.0,0.0,0.0,0.0,0.0,0.0,0.0,0.0,0.0,0.0,0.0,0.0,0.0,0.0,0.0,0.0,0.0,0.0,0.0,0.0,0.0,0.0,0.0,0.0,0.0,0.0,0.0,0.0,0.0,0.0,0.0,0.0,0.0,0.0,0.0,0.0,0.0,0.0,0.0,0.0,0.0,0.0,0.0,0.0,0.0,0.0,0.0,0.0,0.0,0.0,0.0,0.0,0.0,0.0,0.0,0.0,0.0,0.0,0.0,0.0,0.0,0.0,0.0,0.0,0.0,0.0,0.0,0.0,0.0,0.0,0.0,0.0,0.0,0.0,0.0,0.0,0.0,0.0,0.0,0.0,0.0,0.0,0.0,0.0,0.0,0.0,0.0,0.0,0.0,0.0,0.0,0.0,0.0,0.0,0.0,0.0,0.0,0.0,0.0,0.0,0.0,0.0,0.0,0.0,0.0,0.0,0.0,0.0,0.0,0.0,0.0,0.0,0.0,0.0,0.0,0.0,0.0,0.0,0.0,0.0,0.0,0.0,0.0,0.0,0.0,0.0,0.0,0.0,0.0,0.0,0.0,0.0,0.0,0.0,0.0,0.0,0.0,0.0,0.0,0.0,0.0,0.0,0.0,0.0,0.0,0.0,0.0,0.0,0.0,0.0,0.0,0.0,0.0,0.0,0.0,0.0,0.0,0.0,0.0,0.0,0.0,0.0,0.0,0.0,0.0,0.0,0.0,0.0,0.0,0.0,0.0,0.0,0.0,0.0,0.0,0.0,0.0,0.0,0.0,0.0,0.0,0.0,0.0,0.0,0.0,0.0,0.0,0.0,0.0,0.0,0.0,0.0,0.0,0.0,0.0,0.0,0.0,0.0,0.0,0.0,0.0,0.0,0.0,0.0,0.0,0.0,0.0,0.0,0.0,0.0,0.0,0.0,0.0,0.0,0.0,0.0,0.0,0.0,0.0,0.0,0.0,0.0,0.0,0.0,0.0,0.0,0.0,0.0,0.0,0.0,0.0,0.0,0.0,0.0,0.0,0.0,0.0,0.0,0.0,0.0,0.0,0.0,0.0,0.0,0.0,0.0,0.0,0.0,0.0,0.0,0.0,0.0,0.0,0.0,0.0,0.0,0.0,0.0,0.0,0.0,0.0,0.0,0.0,0.0,0.0,0.0,0.0,0.0,0.0,0.0,0.0,0.0,0.0,0.0,0.0,0.0,0.0,0.0,0.0,0.0,0.0,0.0,0.0,0.0,0.0,0.0,0.0,0.0,0.0,0.0,0.0,0.0,0.0,0.0,0.0,0.0,0.0,0.0,0.0,0.0,0.0,0.0,0.0,0.0,0.0,0.0,0.0,0.0,0.0,0.0,0.0,0.0,0.0,0.0,0.0,0.0,0.0,0.0,0.0,0.0,0.0,0.0,0.0,0.0,0.0,0.0,0.0,0.0,0.0,0.0,0.0,0.0,0.0,0.0,0.0,0.0,0.0,0.0,0.0,0.0,0.0,0.0,0.0,0.0,0.0,0.0,0.0,0.0,0.0,0.0,0.0,0.0,0.0,0.0,0.0,0.0,0.0,0.0,0.0,0.0,0.0,0.0,0.0,0.0,0.0,0.0,0.0,0.0,0.0,0.0,0.0,0.0,0.0,0.0,0.0,0.0,0.0,0.0,0.0,0.0,0.0,0.0,0.0,0.0,0.0,0.0,0.0,0.0,0.0,0.0,0.0,0.0,0.0,0.0,0.0,0.0,0.0,0.0,0.0,0.0,0.0,0.0,0.0,0.0,0.0,0.0,0.0,0.0,0.0,0.0,0.0,0.0,0.0,0.0,0.0,0.0,0.0,0.0,0.0,0.0,0.0,0.0,0.0,0.0,0.0,0.0,0.0,0.0,0.0,0.0,0.0,0.0,0.0,0.0,0.0,0.0,0.0,0.0,0.0,0.0,0.0,0.0,0.0,0.0,0.0,0.0,0.0,0.0,0.0,0.0,0.0,0.0,0.0,0.0,0.0,0.0,0.0,0.0,0.0,0.0,0.0,0.0,0.0,0.0,0.0,0.0,0.0,0.0,0.0,0.0,0.0,0.0,0.0,0.0,0.0,0.0,0.0,0.0,0.0,0.0,0.0,0.0,0.0,0.0,0.0,0.0,0.0,0.0,0.0,0.0,0.0,0.0,0.0,0.0,0.0,0.0,0.0,0.0,0.0,0.0,0.0,0.0,0.0,0.0,0.0,0.0,0.0,0.0,0.0,0.0,0.0,0.0,0.0,0.0,0.0,0.0,0.0,0.0,0.0,0.0,0.0,0.0,0.0,0.0,0.0,0.0,0.0,0.0,0.0,0.0,0.0,0.0,0.0,0.0,0.0,0.0,0.0,0.0,0.0,0.0,0.0,0.0,0.0,0.0,0.0,0.0,0.0,0.0,0.0,0.0,0.0,0.0,0.0,0.0,0.0,0.0,0.0,0.0,0.0,0.0,0.0,0.0,0.0,0.0,0.0,0.0,0.0,0.0,0.0,0.0,0.0,0.0,0.0,0.0,0.0,0.0,0.0,0.0,0.0,0.0,0.0,0.0,0.0,3.8272,3.8242,0.0,0.0,0.0,0.0,0.0,0.0,0.0,0.0,0.0,0.0,0.0,0.0,0.0,0.0,0.0,0.0,0.0,0.0,0.0,0.0,0.0,0.0,0.0,0.0,0.0,0.0,0.0,0.0,0.0,0.0,0.0,0.0,0.0,0.0,0.0,0.0,0.0,3.8047,3.8024,3.7777,3.7315,3.6911,3.6481,3.6077,0.0,0.0,0.0,0.0,0.0,0.0,0.0,0.0,0.0,0.0,0.0,0.0,0.0,0.0,0.0,0.0,0.0,0.0,0.0,0.0,0.0,0.0,0.0,0.0,0.0,0.0,0.0,0.0,0.0,0.0,0.0,0.0,0.0,0.0,0.0,0.0,0.0,0.0,0.0,0.0,0.0,0.0,0.0,0.0,0.0,0.0,0.0,0.0,0.0,0.0,0.0,0.0,0.0,0.0,0.0,0.0,0.0,0.0,0.0,0.0,0.0,0.0,0.0,0.0,0.0,0.0,0.0,0.0,0.0,0.0,3.8649,3.8242,0.0,0.0,0.0,0.0,0.0,0.0,0.0,0.0,0.0,0.0,0.0,0.0,0.0,0.0,0.0,0.0,0.0,0.0,0.0,0.0,0.0,0.0,0.0,4.1109,4.1109,4.1109,4.1109,4.1109,0.0,0.0,0.0,0.0,0.0,0.0,3.8757,3.8612,3.8548,3.8548,3.8356,3.8243,3.8243,3.8234,3.7834,3.7142,3.6846,0.0,0.0,0.0,0.0,0.0,0.0,0.0,0.0,0.0,0.0,0.0,0.0,0.0,0.0,0.0,0.0,0.0,0.0,0.0,0.0,0.0,0.0,0.0,0.0,0.0,0.0,0.0,0.0,0.0,0.0,0.0,0.0,0.0,0.0,0.0,0.0,0.0,0.0,0.0,0.0,0.0,0.0,0.0,0.0,0.0,0.0,0.0,0.0,0.0,0.0,0.0,0.0,0.0,0.0,0.0,0.0,0.0,0.0,0.0,0.0,0.0,0.0,0.0,4.05,4.0726,4.1336,4.0991,4.0993,4.1159,3.9469,3.8789,3.8838,3.8773,0.0,0.0,0.0,0.0,0.0,0.0,0.0,0.0,0.0,0.0,0.0,0.0,0.0,0.0,0.0,0.0,0.0,0.0,0.0,0.0,4.1109,4.1109,4.1109,4.1109,4.1109,4.1109,4.1109,0.0,0.0,0.0,0.0,0.0,4.0475,4.0411,4.0365,4.0365,3.9598,3.9225,3.9199,3.915,3.9073,3.8892,3.7373,3.6692,3.6654,0.0,0.0,0.0,0.0,0.0,0.0,0.0,0.0,0.0,0.0,0.0,0.0,0.0,0.0,0.0,0.0,0.0,0.0,0.0,0.0,0.0,0.0,0.0,0.0,0.0,0.0,0.0,0.0,0.0,0.0,0.0,0.0,0.0,0.0,0.0,0.0,0.0,0.0,0.0,0.0,0.0,3.9935,3.9903,0.0,0.0,0.0,0.0,0.0,0.0,0.0,0.0,0.0,0.0,0.0,0.0,0.0,3.9651,4.0516,4.0465,4.0825,4.1618,4.1591,4.1567,4.1553,4.1455,4.1425,4.1437,4.1071,0.0,4.1061,4.0929,0.0,0.0,0.0,0.0,0.0,0.0,0.0,0.0,0.0,0.0,0.0,0.0,0.0,0.0,0.0,0.0,0.0,0.0,0.0,0.0,0.0,4.1109,4.1109,4.1109,4.1109,4.1109,4.1109,4.1109,0.0,0.0,0.0,4.0882,4.0791,4.0766,4.0759,4.0759,4.0343,4.0139,4.0133,4.0012,3.9977,3.9919,3.87,3.8161,3.8065,3.6731,0.0,0.0,0.0,0.0,0.0,0.0,0.0,0.0,0.0,0.0,0.0,0.0,0.0,0.0,0.0,0.0,0.0,0.0,0.0,0.0,0.0,0.0,0.0,0.0,0.0,0.0,0.0,0.0,0.0,0.0,0.0,0.0,0.0,0.0,0.0,0.0,0.0,0.0,0.0,4.0196,4.0118,4.0118,3.9892,3.9682,0.0,0.0,0.0,0.0,0.0,0.0,0.0,0.0,0.0,4.0389,4.0282,4.0702,4.1767,4.1654,4.2027,4.2812,4.2661,4.2796,4.3207,4.2961,4.2934,4.307,4.2924,4.2984,4.3098,4.1831,4.1224,4.1093,0.0,0.0,0.0,0.0,4.0145,4.0285,0.0,0.0,0.0,0.0,0.0,0.0,0.0,0.0,0.0,0.0,0.0,0.0,4.1109,4.1109,4.1109,4.1109,4.1109,4.1109,4.1109,4.1109,4.1076,4.1039,4.1,4.0948,4.0846,4.0846,4.0859,4.0879,4.0806,4.0773,4.0768,4.0622,4.0557,4.0518,3.9896,3.9496,3.9207,3.768,3.7019,3.6981,0.0,0.0,0.0,0.0,0.0,0.0,0.0,0.0,0.0,0.0,0.0,0.0,0.0,0.0,0.0,0.0,0.0,0.0,0.0,0.0,0.0,0.0,0.0,0.0,0.0,0.0,0.0,0.0,0.0,0.0,0.0,0.0,0.0,0.0,0.0,0.0,0.0,4.0301,4.0301,4.0301,4.0118,3.9986,0.0,0.0,0.0,0.0,0.0,0.0,4.0244,4.0323,4.0704,4.1507,4.1404,4.1832,4.2903,4.2781,4.3097,4.3887,4.3672,4.3922,4.4496,4.4192,4.4162,4.4344,4.4248,4.4321,4.4393,4.2787,4.2087,4.1989,4.1801,4.1711,4.1693,4.1489,4.159,4.1832,0.0,0.0,0.0,0.0,0.0,0.0,0.0,0.0,0.0,0.0,0.0,4.1108,4.1091,4.1109,4.1109,4.1109,4.1109,4.1109,4.1109,4.1109,4.1108,4.1106,4.1025,4.101,4.0987,4.0987,4.1017,4.1085,4.1014,4.0981,4.0977,4.0779,4.0687,4.0681,4.0506,4.0015,3.9246,3.8315,3.793,3.793,3.7892,0.0,0.0,0.0,0.0,0.0,0.0,0.0,0.0,0.0,0.0,0.0,0.0,0.0,0.0,0.0,0.0,0.0,0.0,0.0,0.0,0.0,0.0,0.0,0.0,0.0,0.0,0.0,0.0,0.0,0.0,0.0,0.0,0.0,0.0,0.0,0.0,0.0,0.0,4.0301,4.0291,0.0,0.0,0.0,0.0,4.0679,4.1884,4.2519,4.2272,4.2498,4.2649,4.2698,4.2584,4.2911,4.3732,4.3608,4.3913,4.4636,4.4623,4.4581,4.4501,4.4487,4.4487,4.4487,4.4487,4.4501,4.4482,4.4393,4.4175,4.3871,4.3118,4.2824,4.2739,4.1953,4.2319,4.3192,0.0,0.0,0.0,0.0,0.0,0.0,0.0,0.0,4.1101,4.1099,4.1109,4.1093,4.1094,4.1091,4.1106,4.1106,4.1097,4.1109,4.1109,4.1109,4.1109,4.1109,4.1076,4.1068,4.1068,4.1068,4.1076,4.1109,4.1022,4.099,4.1007,4.0789,4.0694,4.0694,4.0564,4.0342,4.0015,3.9188,3.8834,3.8796,3.8238,3.7815,0.0,0.0,0.0,0.0,0.0,0.0,0.0,0.0,0.0,0.0,0.0,0.0,0.0,0.0,0.0,0.0,0.0,0.0,0.0,0.0,0.0,0.0,0.0,0.0,0.0,0.0,0.0,0.0,0.0,0.0,0.0,0.0,0.0,0.0,0.0,0.0,0.0,4.1074,4.1571,0.0,4.1777,4.2105,4.2256,4.2061,4.2522,4.2764,4.2663,4.2754,4.3042,4.3548,4.3444,4.3745,4.4512,4.4379,4.441,4.4565,4.4565,4.4556,4.4501,4.4501,4.4501,4.4501,4.4501,4.4501,4.4501,4.4501,4.444,4.4331,4.4046,4.3919,4.39,4.3601,4.3732,4.4083,0.0,0.0,0.0,0.0,0.0,0.0,0.0,0.0,4.11,4.1092,4.109,4.1101,4.1107,4.1093,4.1094,4.1094,4.1091,4.1105,4.11,4.1099,4.1097,4.1109,4.1109,4.1109,4.1109,4.1109,4.1109,4.1109,4.1061,4.1025,4.1022,4.0876,4.08,4.0795,4.0655,4.0582,4.054,4.0,3.9752,3.965,3.9084,3.8681,3.843,0.0,0.0,0.0,0.0,0.0,0.0,0.0,0.0,0.0,0.0,0.0,0.0,0.0,0.0,0.0,0.0,0.0,0.0,0.0,0.0,0.0,0.0,0.0,0.0,0.0,0.0,0.0,0.0,0.0,0.0,0.0,0.0,0.0,0.0,4.1511,4.2001,4.2001,4.2489,4.2794,4.2794,4.3061,4.3195,4.3195,4.3482,4.3768,4.4036,4.4055,4.4437,4.5267,4.5106,4.5245,4.5748,4.5574,4.5425,4.5345,4.5345,4.5345,4.5345,4.5345,4.5345,4.5345,4.5345,4.5345,4.5345,4.5345,4.5345,4.5308,4.5007,4.4909,4.4946,4.5233,4.5514,4.5791,0.0,0.0,0.0,0.0,0.0,0.0,4.1107,4.1107,4.1106,4.1107,4.1092,4.1103,4.1104,4.1106,4.1107,4.1107,4.1107,4.1092,4.1092,4.1092,4.1108,4.1093,4.1091,4.1091,4.109,4.109,4.1109,4.1109,4.1109,4.1109,4.1108,4.1022,4.099,4.0987,4.085,4.0751,4.07,4.07,4.0629,4.0512,4.0496,4.0035,3.9342,0.0,0.0,0.0,0.0,0.0,0.0,0.0,0.0,0.0,0.0,0.0,0.0,0.0,0.0,0.0,0.0,0.0,0.0,0.0,0.0,0.0,0.0,0.0,0.0,0.0,0.0,0.0,0.0,0.0,0.0,0.0,0.0,0.0,4.1945,4.2579,4.3035,4.3045,4.2957,4.288,4.287,4.3567,4.4045,4.4045,4.4819,4.564,4.6424,4.6462,4.6863,4.7731,4.7497,4.739,4.7397,4.7132,4.6993,4.7012,4.7012,4.7012,4.7012,4.7012,4.7012,4.7012,4.7012,4.7012,4.7012,4.7012,4.7012,4.6918,4.6073,4.5735,4.5848,4.6692,4.75,4.8269,0.0,0.0,0.0,0.0,0.0,0.0,4.1107,4.1107,4.1094,4.1109,4.1109,4.1095,4.1106,4.1092,4.1106,4.1106,4.11,4.1108,4.1092,4.1092,4.1092,4.1093,4.1093,4.1093,4.1108,4.1108,4.1103,4.1109,4.1109,4.1109,4.1108,4.1022,4.099,4.0987,4.085,4.0796,4.0766,4.0766,4.0751,4.0707,4.0566,4.0362,4.0169,0.0,0.0,0.0,0.0,0.0,0.0,0.0,0.0,0.0,0.0,0.0,0.0,0.0,0.0,0.0,0.0,0.0,0.0,0.0,0.0,0.0,0.0,0.0,0.0,0.0,0.0,0.0,0.0,0.0,0.0,0.0,4.3576,4.3627,4.2932,4.3524,4.3981,4.388,4.4411,4.472,4.4629,4.48,4.4934,4.4934,4.5163,4.5403,4.5621,4.5621,4.6003,4.6825,4.6686,4.6859,4.7378,4.7229,4.7094,4.7012,4.7012,4.7012,4.7012,4.7012,4.7012,4.7012,4.7012,4.7012,4.7012,4.7012,4.7012,4.6993,4.6749,4.6636,4.6674,4.6918,4.7143,4.7368,0.0,0.0,0.0,0.0,0.0,0.0,4.1107,4.1107,4.1107,4.1107,4.1107,4.1107,4.1107,4.1095,4.1111,4.1111,4.109,4.1106,4.1097,4.1104,4.1107,4.1107,4.1107,4.1091,4.1094,4.1094,4.1093,4.109,4.109,4.109,4.111,4.1069,4.1033,4.1031,4.0964,4.0901,4.0886,4.0886,4.0846,4.0801,4.0666,4.0623,4.0623,4.0623,4.0623,4.0623,4.0623,4.0674,4.0726,4.0649,0.0,0.0,0.0,0.0,0.0,0.0,0.0,0.0,0.0,0.0,0.0,0.0,0.0,0.0,0.0,0.0,0.0,0.0,0.0,0.0,0.0,0.0,0.0,0.0,4.5066,4.511,4.4944,4.4987,4.5,4.4913,4.5318,4.5558,4.5476,4.5429,4.539,4.539,4.5319,4.5449,4.5774,4.5793,4.6154,4.695,4.683,4.6954,4.7318,4.7514,4.7588,4.7519,4.7875,4.8044,4.8044,4.8044,4.8044,4.8044,4.8044,4.8044,4.8044,4.8044,4.8044,4.8007,0.0,0.0,0.0,0.0,4.8044,4.8044,0.0,0.0,0.0,0.0,0.0,0.0,4.1045,4.1045,4.1068,4.1078,4.1078,4.1081,4.1107,4.1107,4.1107,4.1107,4.1107,4.1109,4.1105,4.1093,4.1102,4.1102,4.1102,4.1103,4.1105,4.1105,4.1106,4.1107,4.1107,4.1107,4.1108,4.1094,4.1093,4.1092,4.1103,4.1078,4.1011,4.1011,4.0935,4.0822,4.0822,4.0829,4.081,4.081,4.081,4.081,4.081,4.0815,4.0824,4.0815,0.0,0.0,0.0,0.0,0.0,0.0,0.0,0.0,0.0,0.0,0.0,0.0,0.0,0.0,0.0,0.0,0.0,0.0,0.0,0.0,0.0,0.0,0.0,0.0,4.6723,4.6521,4.722,4.6589,4.6029,4.5919,4.5791,4.5723,4.5708,4.5601,4.5522,4.5522,4.54,4.5634,4.635,4.6388,0.0,0.0,0.0,4.7257,4.7219,4.7791,4.8063,4.8063,4.8852,4.9227,4.9227,4.9302,4.9358,4.9358,4.9471,4.9509,4.9509,4.9509,4.9509,4.9415,4.8645,4.8345,4.8438,4.9208,4.9509,4.9509,0.0,0.0,0.0,0.0,0.0,0.0,4.079,4.079,4.0823,4.0926,4.0935,4.0984,4.1085,4.1107,4.1107,4.1107,4.1107,4.1094,4.1103,4.1092,4.1098,4.1098,4.1098,4.1093,4.1101,4.1103,4.1093,4.1107,4.1107,4.1107,4.1107,4.111,4.1091,4.1091,4.1092,4.1093,4.1084,4.1084,4.1073,4.1046,4.1046,4.0932,4.081,4.081,4.081,4.081,4.081,4.0878,4.0944,4.0833,4.0878,4.1087,4.1795,4.1968,0.0,0.0,0.0,0.0,0.0,0.0,0.0,0.0,0.0,0.0,0.0,0.0,0.0,0.0,0.0,0.0,0.0,0.0,0.0,4.8227,4.818,4.79,4.7376,4.7146,4.6742,4.5984,4.588,4.5812,4.5715,4.5684,4.5668,4.5668,4.554,4.5534,4.5688,4.5688,4.6062,4.6854,4.6644,4.6823,4.7434,4.7306,4.7237,4.7237,4.7406,0.0,4.7519,4.8157,4.8438,4.8495,4.9189,4.9509,4.9509,4.9509,4.9509,4.9471,4.9302,4.9246,4.9265,4.9434,4.9509,4.9509,0.0,0.0,0.0,0.0,0.0,0.0,4.0694,4.0694,4.0718,4.0782,4.0807,4.0828,4.0883,4.0907,4.0907,4.0907,4.0907,4.0907,4.0907,4.0952,4.0996,4.0996,4.1052,4.11,4.1103,4.1106,4.1096,4.1094,4.1064,4.1064,4.1094,4.108,4.1067,4.1094,4.1104,4.1345,4.1757,4.1757,4.1992,4.2401,4.2397,4.2085,4.1554,4.1123,4.0955,4.0955,4.0955,4.1268,4.1696,4.1629,4.1933,4.2425,4.2854,4.2983,4.305,0.0,0.0,0.0,0.0,0.0,0.0,0.0,0.0,0.0,0.0,0.0,0.0,0.0,0.0,4.8075,4.8522,0.0,4.8735,4.9182,4.924,4.8949,4.8075,4.7958,4.7456,4.6116,4.5955,4.5917,4.5867,4.5814,4.5798,4.5798,4.5684,4.561,4.561,4.5565,4.5694,4.6033,4.5925,4.6012,4.6355,4.6487,4.6596,4.6708,4.6897,4.7047,4.7155,4.7446,4.7594,4.7612,4.8063,4.8476,4.887,4.9321,4.9509,4.9509,4.9509,4.9509,4.9509,4.9509,4.9227,4.8852,0.0,0.0,0.0,0.0,0.0,0.0,0.0,4.0615,4.0622,4.0655,4.0655,4.0662,4.0681,4.0694,4.0694,4.0694,4.0694,4.0694,4.0694,4.0807,4.0859,4.0859,4.0952,4.1027,4.1027,4.1027,4.1027,4.1,4.0988,4.0992,4.1015,4.1016,4.1139,4.1332,4.1322,4.1822,4.2624,4.2624,4.3055,4.3702,4.3691,4.3281,4.2578,4.1869,4.1508,4.1343,4.1343,4.1908,4.265,4.265,4.3118,4.3725,4.3899,4.3957,4.3974,4.4143,4.4156,0.0,0.0,0.0,0.0,0.0,0.0,0.0,0.0,4.8599,4.8658,4.8813,4.8852,4.8891,4.9066,4.9104,4.9337,5.0042,5.0159,4.9784,4.8755,4.8599,4.7939,4.6215,4.6002,4.6002,4.6002,4.5955,4.5925,4.5925,4.5812,4.5739,4.5712,4.568,4.5577,4.5463,4.5456,4.5381,4.5273,4.5704,4.6012,4.6173,4.6499,4.6728,4.6898,4.6884,4.6869,4.6887,4.7057,4.7504,4.8164,4.8847,4.9148,4.9148,4.9148,4.9148,4.9152,4.9217,4.8701,4.7965,0.0,0.0,0.0,0.0,0.0,0.0,0.0,0.0,4.0398,4.0504,4.0519,4.0545,4.0597,4.0655,4.0694,4.0694,4.0694,4.0694,4.0694,4.0712,4.0718,4.0718,4.073,4.0736,4.0736,4.0736,4.0724,4.0649,4.0819,4.0845,4.0757,4.0976,4.1468,4.2163,4.2163,4.2646,4.3476,4.3476,4.3569,4.3701,4.3703,4.3646,4.3548,4.3452,4.2929,4.2259,4.2259,4.2806,4.3548,4.3548,4.3626,4.384,4.4602,4.4855,4.4985,4.5715,4.593,4.5908,4.5862,4.6429,4.7065,4.7254,4.7881,4.8483,0.0,4.8599,4.8813,4.9596,4.9751,4.9984,5.0775,5.0911,5.095,5.1047,5.1047,5.0484,4.8832,4.8599,4.7939,4.6215,4.6002,4.6002,4.6002,4.5991,4.5986,4.5986,4.5918,4.5847,4.5793,4.5786,4.573,4.5665,4.5605,4.5535,4.5463,4.535,4.5314,4.5335,4.5377,4.5404,4.5464,4.6145,4.6466,4.6504,4.7285,4.7666,4.7762,4.7857,4.7895,4.7895,4.7895,4.7895,4.7931,4.8235,4.7838,4.7154,0.0,0.0,0.0,0.0,0.0,0.0,0.0,0.0,0.0,4.0381,4.0353,4.0342,4.0356,4.04,4.0408,4.0408,4.0433,4.046,4.046,4.0542,4.0574,4.0574,4.0655,4.0687,4.0643,4.0643,4.061,4.0531,4.0591,4.0604,4.0597,4.1214,4.174,4.2208,4.2702,4.3475,4.4356,4.4356,4.4677,4.5141,4.5143,4.4855,4.4406,4.4401,4.4177,4.3789,4.332,4.3691,0.0,4.4448,4.4796,4.5284,4.5636,4.5765,4.581,4.611,4.6198,4.6279,4.6669,4.7026,4.755,4.8561,4.9085,4.9493,4.9998,5.0114,5.0212,5.0581,5.0658,5.0775,5.1125,5.1202,5.1202,5.1202,5.1202,5.06,4.8852,4.8599,4.7939,4.6215,4.6002,4.6002,4.6002,4.6002,4.6002,4.6002,4.5964,4.5949,4.5918,4.588,4.5848,4.5812,4.5749,4.5708,4.5665,4.5491,4.5427,4.5552,4.5304,4.5254,4.5381,4.5597,4.5706,4.5744,4.6574,4.6945,4.6983,4.7479,4.7708,4.7708,4.7708,4.7384,4.7018,4.7675,4.7378,4.6651,0.0,0.0,0.0,0.0,0.0,0.0,0.0,0.0,0.0,0.0,4.0234,4.0196,4.0176,4.0176,4.0176,4.0196,4.0244,4.0368,4.0616,4.0504,4.0523,4.077,4.065,4.0559,4.0496,4.0496,4.0454,4.0361,4.0361,4.0385,4.0435,4.1366,4.2014,4.241,4.3311,4.4263,4.5192,4.5192,4.5593,4.6203,4.6198,4.5819,4.5253,4.5258,4.5267,4.5151,4.4323,4.4562,4.5266,4.5312,4.5742,4.6269,4.6269,4.6267,4.6261,4.6202,4.6199,4.63,4.6859,4.7324,4.7981,4.9255,4.9911,5.0431,5.1053,5.1202,5.1202,5.1202,5.1202,5.1202,5.1202,5.1202,5.1202,5.1202,5.1202,5.06,4.8852,4.8599,4.7939,4.6215,4.6002,4.6002,4.6002,4.6002,4.6002,4.6002,4.5991,4.5994,4.5966,4.5931,4.588,4.5867,4.584,4.5807,4.5807,4.565,4.565,4.58,4.5498,4.5436,4.5585,4.5427,4.5362,4.54,4.5975,4.6225,4.6282,4.6924,4.7173,4.7173,4.7173,4.679,4.632,4.6943,4.6719,4.6088,0.0,0.0,0.0,0.0,0.0,0.0,0.0,0.0,0.0,0.0,0.0,0.0,0.0,4.0087,4.0137,4.0196,4.0196,4.0568,4.1418,4.0673,4.0597,4.1428,4.0721,4.0282,4.0215,4.0215,4.0147,4.0017,4.0213,4.0266,4.0223,4.1305,4.2244,4.311,4.4051,4.5034,4.5968,4.5968,4.6065,4.6199,4.6199,4.618,4.616,4.6164,4.6164,4.606,4.5173,4.5422,4.6165,4.6166,4.6185,4.6205,4.6205,4.6205,4.6207,4.6191,4.6148,4.6114,4.6202,4.7428,4.8667,4.872,4.9968,5.1174,5.1186,5.1202,5.1202,5.1202,5.1202,5.1202,5.1202,5.1202,5.1202,5.1202,5.1202,5.06,4.8852,4.8599,4.7939,4.6215,4.6002,4.6002,4.6002,4.6002,4.6002,4.6002,4.5994,4.5966,4.5911,4.5899,4.5867,4.5807,4.5807,4.5807,4.5807,4.578,4.578,4.5807,4.5793,4.5773,4.58,4.5773,4.5773,4.5773,4.5812,4.5831,4.5831,4.5851,4.587,4.587,4.587,4.5851,4.5831,4.5851,4.5582,4.5251,0.0,0.0,0.0,0.0,0.0,0.0,0.0,0.0,0.0,0.0,0.0,0.0,0.0,0.0,0.0,0.0,4.0592,4.1061,4.1348,4.1692,4.1711,4.1386,4.1149,4.0729,4.0077,4.0077,4.0017,3.9933,3.9989,4.0059,4.0108,4.158,4.2525,4.3025,4.4465,4.5357,4.5796,4.5796,4.5894,4.6071,4.6071,4.6111,4.6199,4.6199,4.6199,4.6164,0.0,4.5952,4.6192,4.6197,4.6202,4.6202,4.6202,4.6237,4.6268,4.621,4.6181,4.6284,4.6846,4.7411,4.8111,4.9265,4.9949,5.049,5.1064,5.12,5.1202,5.1202,5.1202,5.1202,5.1202,5.1202,5.1202,5.1202,5.1202,5.0794,4.9635,4.8949,4.8172,4.7007,4.6346,4.6002,4.6002,4.6002,4.5991,4.5994,4.6003,4.5974,4.5899,4.5906,4.586,4.5807,4.5807,4.5807,4.5807,4.5807,4.5807,4.5807,4.5807,4.5807,4.5807,4.5807,4.5807,4.5807,4.5807,4.5807,4.5807,4.5807,4.5807,4.5807,4.5807,4.5807,4.5807,4.5807,4.5715,4.561,0.0,0.0,0.0,0.0,0.0,0.0,0.0,0.0,0.0,0.0,0.0,0.0,0.0,0.0,0.0,0.0,0.0,4.1496,4.1853,4.2111,4.216,4.1891,4.1604,4.1033,4.0127,4.0108,3.9922,3.958,3.958,3.9663,3.9886,4.1283,4.2087,4.2439,4.4145,4.5002,4.5217,4.5507,4.5729,4.5896,4.5896,4.5988,4.6134,4.6134,4.6154,0.0,4.6199,4.6199,4.6203,4.6195,4.6206,4.6206,4.6206,4.6232,4.6256,4.6248,4.623,4.6346,4.6873,4.7224,4.773,4.8836,4.9304,4.972,5.0548,5.0743,5.082,5.113,5.1202,5.1202,5.1202,5.1202,5.1202,5.1202,5.1202,5.0891,5.0023,4.9421,4.8638,4.7434,4.6812,4.6346,4.6041,4.5991,4.5994,4.5997,4.5974,4.5944,4.59,4.5886,4.5847,4.5807,4.5807,4.5807,4.5807,4.5807,4.5807,4.5807,4.5807,4.5807,4.5807,4.5807,4.5807,4.5807,4.5807,4.5807,4.5807,4.5807,4.5807,4.5807,4.5807,4.5807,4.5807,4.5807,4.5807,4.5807,0.0,0.0,0.0,0.0,0.0,0.0,0.0,0.0,0.0,0.0,0.0,0.0,0.0,0.0,0.0,0.0,0.0,0.0,4.2822,4.2102,4.2009,4.2841,4.2103,4.1255,4.0393,4.0361,3.9956,3.9124,3.9124,3.9333,3.975,4.0563,4.1139,4.155,4.3193,4.4039,4.4288,4.5077,4.5505,4.5638,4.5677,4.5803,4.5991,4.5997,4.608,4.6192,4.6196,4.6199,4.6199,4.6199,4.6199,4.6199,4.6199,4.6193,4.6212,4.6277,4.6306,4.6308,4.6298,4.6905,4.7538,4.7519,4.8125,4.8921,4.966,4.9839,5.0079,5.0959,5.1125,5.1144,5.1183,5.1202,5.1202,5.1202,5.1202,5.0911,5.0081,4.9926,4.9285,4.7628,4.7395,4.7026,4.6152,4.6067,4.603,4.5991,4.5938,4.59,4.5893,4.5827,4.5807,4.5807,4.5807,4.5807,4.5807,4.5807,4.5807,4.5807,4.5807,4.5807,4.5807,4.5807,4.5807,4.5807,4.5807,4.5807,4.5807,4.5807,4.5807,4.5807,4.5807,4.5807,4.5807,4.5807,4.5807,4.5807,0.0,0.0,0.0,0.0,0.0,0.0,0.0,0.0,0.0,0.0,0.0,0.0,0.0,0.0,0.0,0.0,0.0,0.0,4.2753,4.3133,4.317,4.2772,4.2594,4.2058,4.1134,4.1115,4.1007,4.0789,4.0789,4.0989,4.14,4.1562,4.1898,4.2378,4.2777,4.304,4.3235,4.4039,4.4479,4.4718,4.5316,4.5642,4.579,4.595,4.6017,4.6051,4.6158,4.6199,4.6199,4.6199,4.6199,4.6199,4.6193,4.6209,4.6206,4.6279,4.629,4.6298,4.63,4.6456,4.677,4.7424,4.7692,4.8046,4.8899,4.9047,4.9243,5.0056,5.0232,5.0425,5.1086,5.1202,5.1202,5.1202,5.1202,5.1125,5.0891,5.0309,4.9732,4.9285,4.8658,4.7928,4.7051,4.6925,4.6629,4.5964,4.5906,4.5886,4.5821,4.5807,4.5807,4.5807,4.5807,4.5807,4.5807,4.5807,4.5807,4.5807,4.5807,4.5807,4.5807,4.5807,4.5807,4.5807,4.5807,4.5807,4.5807,4.5807,4.5807,4.5807,4.5807,4.5807,4.5807,4.5807,4.5807,4.5807,0.0,0.0,0.0,0.0,0.0,0.0,0.0,0.0,0.0,0.0,0.0,0.0,0.0,0.0,0.0,0.0,0.0,0.0,0.0,4.3251,4.3304,4.2797,4.2811,4.2425,4.1552,4.1534,4.135,4.1018,4.1018,4.1299,4.1817,4.1817,4.2134,4.2713,4.3065,4.3058,4.2851,4.3663,4.3847,0.0,0.0,4.4942,4.514,4.5674,4.5914,4.6017,4.615,4.6199,4.6199,4.6206,4.6209,4.6213,4.6237,4.625,4.6258,4.6288,4.6296,4.63,4.63,4.63,4.6417,4.6905,4.6998,4.7185,4.8047,4.8181,4.8373,4.9196,4.9353,4.959,5.0464,5.0619,5.0755,5.1144,5.1202,5.1202,5.1202,5.0775,5.0328,4.9945,4.9443,4.8804,4.7951,4.7462,4.6997,4.6519,4.6099,4.5847,4.5807,4.5807,4.5807,4.5807,4.5807,4.5807,4.5807,4.5807,4.5807,4.5807,4.5807,4.5807,4.5807,4.5807,4.5807,4.5807,4.5807,4.5807,4.5807,4.5807,4.5807,4.5807,4.5807,4.5807,4.5807,4.5807,4.5807,4.5807,0.0,0.0,0.0,0.0,0.0,0.0,0.0,0.0,0.0,0.0,0.0,0.0,0.0,0.0,0.0,0.0,0.0,0.0,0.0,0.0,4.2901,4.2901,4.2901,4.2574,4.1868,4.185,4.1506,4.0818,4.0836,4.1182,4.1839,4.1838,4.219,4.2804,4.3507,4.3433,4.2851,4.3663,4.3605,4.3023,4.3854,4.4279,4.4511,0.0,4.579,4.5977,4.615,4.6199,4.6203,4.6203,4.6209,4.6209,4.6275,4.6284,4.6306,4.6296,4.63,4.63,4.63,4.63,4.63,4.63,4.63,4.6485,4.7168,4.7276,4.7496,4.835,4.8477,4.8735,4.9712,4.9906,5.0198,5.1066,5.1202,5.1202,5.1202,5.1202,5.093,5.0153,5.0007,4.9653,4.8826,4.7902,4.7326,4.7203,4.6324,4.5807,4.5807,4.5807,4.5807,4.5807,4.5807,4.5807,4.5807,4.5807,4.5807,4.5807,4.5807,4.5807,4.5807,4.5807,4.5807,4.5807,4.5807,4.5807,4.5807,4.5807,4.5807,4.5807,4.5807,4.5807,4.5807,4.5807,4.5807,4.5807,0.0,0.0,0.0,0.0,0.0,0.0,0.0,0.0,0.0,0.0,4.3958,4.3848,0.0,0.0,0.0,0.0,0.0,0.0,0.0,0.0,0.0,4.2901,4.2901,4.2828,4.2683,4.2683,4.2611,4.2466,4.2595,4.2795,4.3083,4.2828,4.2878,4.3183,4.2998,4.2868,4.2851,4.3663,4.3911,4.3873,4.4723,4.5098,4.5149,4.5433,0.0,0.0,4.6088,4.619,4.6206,4.6267,4.6245,4.6209,4.6206,4.6258,4.6306,4.6308,4.6294,4.63,4.63,4.63,4.63,4.63,4.63,4.6329,4.6405,4.6418,4.6637,4.7453,4.7563,4.8017,4.9615,4.9906,5.0198,5.1066,5.1202,5.1202,5.1202,5.1202,5.1113,5.0914,5.0888,5.0513,4.96,4.8766,4.7951,4.7187,4.629,4.5807,4.5807,4.5807,4.5807,4.5807,4.5807,4.5807,4.5807,4.5807,4.5807,4.5807,4.5807,4.5807,4.5807,4.5807,4.5807,4.5807,4.5807,4.5807,4.5807,4.5807,4.5807,4.5807,4.5807,4.5807,4.5807,4.5807,4.5807,4.5807,0.0,0.0,0.0,0.0,0.0,0.0,0.0,4.3836,4.4542,4.4917,4.4485,4.439,4.4941,4.4544,4.4246,0.0,0.0,0.0,0.0,0.0,0.0,0.0,4.2976,4.2901,4.2901,4.2901,4.2938,4.2994,0.0,4.3491,4.3881,4.3858,4.4027,4.4319,4.4132,4.3824,4.3452,4.3834,4.3758,4.3463,4.4284,4.4628,4.4687,0.0,0.0,0.0,0.0,4.6146,4.6219,4.6275,4.6277,4.625,4.6243,4.6269,4.6294,4.6294,4.6296,4.63,4.63,4.63,4.63,4.63,4.63,4.627,4.621,0.0,0.0,4.6658,4.6673,4.7026,4.8308,4.891,4.9512,5.0386,5.0891,5.1202,5.1202,5.1202,5.119,5.1101,5.1102,5.0913,5.0412,4.9209,4.8259,4.7811,4.6561,4.5807,4.5807,4.5807,4.5807,4.5807,4.5807,4.5807,4.5807,4.5807,4.5807,4.5807,4.5807,4.5807,4.5807,4.5807,4.5807,4.5807,4.5807,4.5807,4.5807,4.5807,4.5807,4.5807,4.5807,4.5807,4.5807,4.5807,4.5807,4.5807,0.0,0.0,0.0,0.0,0.0,0.0,0.0,4.4431,4.4986,4.4986,4.4701,4.4649,4.4967,4.4467,4.4177,0.0,0.0,0.0,0.0,0.0,0.0,0.0,0.0,0.0,4.3032,0.0,0.0,4.3196,4.3525,0.0,0.0,0.0,0.0,0.0,4.5256,4.4914,4.4274,4.4274,4.3921,0.0,0.0,4.4274,4.4362,0.0,0.0,0.0,0.0,4.6084,4.6209,4.6279,4.6306,4.6306,4.6298,4.63,4.63,4.63,4.63,4.63,4.63,4.63,4.63,4.63,4.63,4.627,4.621,4.6204,4.6171,4.6115,4.6054,4.6268,4.7143,4.7861,4.8677,4.9732,5.0464,5.0989,5.1163,5.1196,5.1159,5.1108,5.1088,0.0,5.0998,4.942,4.8392,4.8392,4.6786,4.5807,4.5807,4.5807,4.5807,4.5807,4.5807,4.5807,4.5807,4.5807,4.5807,4.5807,4.5807,4.5807,4.5807,4.5807,4.5807,4.5807,4.5807,4.5807,4.5807,4.5807,4.5807,4.5807,4.5807,4.5807,4.5807,4.5807,4.5807,4.5807,0.0,0.0,0.0,0.0,0.0,0.0,0.0,4.4383,4.4907,4.4907,4.4719,4.4693,4.4967,4.4467,4.3983,0.0,0.0,0.0,0.0,0.0,0.0,0.0,0.0,0.0,0.0,0.0,0.0,4.3454,4.3989,0.0,0.0,0.0,0.0,0.0,0.0,4.5269,4.5182,4.5182,0.0,0.0,0.0,0.0,0.0,0.0,0.0,0.0,0.0,4.6096,4.6212,4.6288,4.6292,4.6306,4.6298,4.63,4.63,4.63,0.0,0.0,4.63,4.63,4.63,4.63,4.63,4.627,4.621,0.0,4.6171,4.6115,4.6054,4.6268,4.7143,4.737,4.7958,4.9635,4.9965,5.0289,5.1086,5.1159,5.1108,5.1107,0.0,0.0,5.0914,4.9397,4.8392,4.8392,4.6786,4.5807,4.5807,4.5807,4.5807,4.5807,4.5807,4.5807,4.5807,4.5807,4.5807,4.5807,4.5807,4.5807,4.5807,4.5807,4.5807,4.5807,4.5807,4.5807,4.5807,4.5807,4.5807,4.5807,4.5807,4.5807,4.5807,4.5807,4.5807,4.5807,0.0,0.0,0.0,0.0,0.0,0.0,4.4213,4.4687,4.4895,4.4895,4.4642,4.4517,4.4623,4.4308,4.424,4.4538,0.0,0.0,0.0,0.0,0.0,0.0,0.0,0.0,0.0,0.0,4.3906,4.3971,4.4369,0.0,0.0,0.0,0.0,0.0,0.0,4.4819,4.5307,4.5307,0.0,0.0,0.0,0.0,0.0,0.0,0.0,0.0,0.0,0.0,4.6255,4.6294,4.6298,4.6296,4.63,4.63,4.63,4.63,4.63,4.63,4.63,4.63,4.63,4.63,4.63,4.6274,4.6227,0.0,4.6165,4.6052,4.6013,4.6113,4.6441,4.694,4.7517,4.8159,4.9168,4.9963,5.0313,5.0785,5.1088,5.1034,5.1012,5.0971,5.0906,4.9378,4.7966,4.6902,4.6194,4.5807,4.5807,4.5807,4.5807,4.5807,4.5807,4.5807,4.5807,4.5807,4.5807,4.5807,4.5807,4.5807,4.5807,4.5807,4.5807,4.5807,4.5807,4.5807,4.5807,4.5807,4.5807,4.5807,4.5807,4.5807,4.5807,4.5807,4.5807,4.5807,0.0,0.0,0.0,0.0,0.0,4.2969,4.4649,4.4895,4.4895,4.4895,4.4694,4.4557,4.4557,4.4421,4.4549,4.5084,4.4924,0.0,0.0,0.0,0.0,0.0,0.0,0.0,0.0,0.0,4.4323,4.4416,4.472,4.4595,0.0,0.0,4.4369,4.4369,0.0,0.0,0.0,0.0,0.0,0.0,0.0,0.0,0.0,0.0,0.0,0.0,0.0,0.0,0.0,0.0,0.0,4.63,4.63,4.63,4.63,4.63,4.63,4.63,4.63,4.63,4.63,4.63,4.6288,4.6264,0.0,0.0,4.6142,4.6046,4.6012,4.6,4.5966,4.6465,4.6938,4.7172,4.8445,4.9511,4.9763,5.0532,5.1053,5.1012,5.0978,5.0956,5.0906,4.9378,4.7676,4.5923,4.5807,4.5807,4.5807,4.5807,4.5807,4.5807,4.5807,4.5807,4.5807,4.5807,4.5807,4.5807,4.5807,4.5807,4.5807,4.5807,4.5807,4.5807,4.5807,4.5807,4.5807,4.5807,4.5807,4.5807,4.5807,4.5807,4.5807,4.5807,4.5807,4.5807,0.0,0.0,0.0,0.0,0.0,0.0,4.4649,4.4895,4.4895,4.4895,4.4895,4.4883,4.4883,4.4883,4.4919,4.501,4.457,0.0,0.0,0.0,0.0,0.0,0.0,0.0,0.0,0.0,4.4688,4.4707,4.5098,4.5297,4.5277,4.5277,4.5288,4.5288,0.0,0.0,0.0,0.0,0.0,0.0,0.0,0.0,0.0,0.0,0.0,0.0,0.0,0.0,0.0,0.0,0.0,0.0,0.0,4.63,4.63,4.63,4.63,4.63,4.63,4.63,4.63,4.63,4.6243,4.6191,4.6191,4.6142,4.6095,4.6092,4.6056,4.5986,4.5917,4.5911,4.6202,4.7068,4.7934,4.8806,4.9685,5.0491,5.1005,5.1005,5.0948,5.0898,5.0898,4.9378,4.7676,4.5923,4.5807,4.5807,4.5807,4.5807,4.5807,4.5807,4.5807,4.5807,4.5807,4.5807,4.5807,4.5807,4.5807,4.5807,4.5807,4.5807,4.5807,4.5807,4.5807,4.5807,4.5807,4.5807,4.5807,4.5807,4.5807,4.5807,4.5807,4.5807,4.5807,4.5807,0.0,0.0,0.0,0.0,0.0,0.0,0.0,4.4895,4.4895,4.4895,4.4895,4.4895,4.4895,4.4895,4.4919,4.4991,4.4864,0.0,0.0,0.0,0.0,0.0,0.0,0.0,0.0,0.0,4.5109,4.5109,4.5235,4.4991,4.4418,4.4418,4.4418,4.4418,4.4566,4.4919,0.0,0.0,0.0,0.0,0.0,0.0,0.0,0.0,0.0,0.0,0.0,0.0,0.0,0.0,0.0,0.0,0.0,0.0,0.0,4.63,4.63,4.63,4.63,4.63,4.6287,4.6245,4.621,4.619,4.6134,4.6111,4.6099,4.6032,4.6,4.598,4.5906,4.5893,4.5984,4.6209,4.746,4.8525,4.8796,5.0039,5.0921,5.0921,5.043,4.9861,4.9243,4.8179,4.7038,4.5884,4.5807,4.5807,4.5807,4.5807,4.5807,4.5807,4.5807,4.5807,4.5807,4.5807,4.5807,4.5807,4.5807,4.5807,4.5807,4.5807,4.5807,4.5807,4.5807,4.5807,4.5807,4.5807,4.5807,4.5807,4.5807,4.5807,4.5807,4.5807,4.5807,4.5807,0.0,0.0,0.0,0.0,0.0,0.0,0.0,4.4895,4.4895,4.4895,4.4895,4.4895,4.4895,4.4919,4.4943,4.501,4.5014,0.0,0.0,0.0,0.0,0.0,0.0,0.0,4.5307,4.5307,4.5307,4.5307,4.5351,4.5093,4.4576,4.4613,4.463,4.4659,4.4771,4.5117,0.0,0.0,0.0,0.0,0.0,0.0,4.6236,0.0,0.0,0.0,0.0,0.0,0.0,0.0,0.0,0.0,0.0,0.0,0.0,0.0,4.6264,4.6267,4.6261,4.6258,4.6244,4.6209,4.6182,4.6145,4.6102,4.6072,4.6036,4.5983,4.5968,4.5944,4.5867,4.586,4.5854,4.5807,4.725,4.8392,4.8392,4.9842,5.0898,5.0898,5.0183,4.9359,4.8488,4.7618,4.6728,4.5865,4.5807,4.5807,4.5807,4.5807,4.5807,4.5807,4.5807,4.5807,4.5807,4.5807,4.5807,4.5807,4.5807,4.5807,4.5807,4.5807,4.5807,4.5807,4.5807,4.5807,0.0,4.5807,4.5807,4.5807,4.5807,4.5807,4.5807,4.5807,4.5807,4.5807,0.0,0.0,0.0,0.0,0.0,0.0,0.0,4.4895,4.4895,4.4895,4.4895,4.4895,4.4907,4.4955,4.4991,4.5003,0.0,0.0,0.0,0.0,0.0,0.0,0.0,0.0,4.5307,4.5317,4.5309,4.5309,4.5456,4.5516,4.5516,4.5638,4.5703,4.571,4.5717,4.5731,0.0,0.0,0.0,0.0,0.0,0.0,0.0,0.0,0.0,0.0,0.0,0.0,0.0,0.0,0.0,0.0,0.0,0.0,0.0,0.0,0.0,0.0,0.0,4.6191,4.6209,4.6188,4.6145,4.6098,4.6091,4.6047,0.0,4.5911,4.5899,4.5886,4.5814,4.5807,4.5826,4.5884,4.7289,4.8411,4.8488,4.9881,5.0898,5.0898,5.0152,4.9301,4.8488,4.756,4.667,4.5865,4.5807,4.5807,4.5807,4.5807,4.5807,4.5807,4.5807,4.5807,4.5807,4.5807,4.5807,4.5807,4.5807,4.5807,4.5807,4.5807,4.5807,4.5807,4.5807,4.5807,4.5807,4.5807,4.5807,4.5807,4.5807,4.5807,4.5807,4.5807,4.5807,4.5807,0.0,0.0,0.0,0.0,0.0,0.0,0.0,0.0,0.0,0.0,4.4895,4.4919,4.4967,4.4979,4.5038,0.0,0.0,0.0,0.0,0.0,0.0,0.0,0.0,0.0,4.5307,4.541,4.5446,4.5446,4.5587,4.5653,4.5653,4.5689,4.5703,4.571,4.5859,4.5988,0.0,0.0,0.0,0.0,0.0,0.0,0.0,0.0,0.0,0.0,4.63,4.63,0.0,0.0,0.0,0.0,0.0,0.0,0.0,0.0,4.6209,4.6199,4.6133,0.0,4.6188,4.6139,4.6102,4.608,0.0,4.5964,4.5911,4.5899,4.5906,4.5886,4.5814,4.5807,4.602,4.6689,4.7695,4.8624,4.9301,5.026,5.0898,5.0898,4.961,4.8624,4.8411,4.6999,4.602,4.5826,4.5807,4.5807,4.5807,4.5807,4.5807,4.5807,4.5807,4.5807,4.5807,4.5807,4.5807,4.5807,4.5807,4.5807,4.5807,4.5807,4.5807,4.5807,4.5807,4.5807,4.5807,4.5807,4.5807,4.5807,4.5807,4.5807,4.5807,4.5807,4.5807,4.5807,0.0,0.0,0.0,0.0,0.0,0.0,0.0,0.0,0.0,0.0,0.0,4.4938,4.4979,4.5033,0.0,0.0,0.0,0.0,0.0,0.0,0.0,0.0,0.0,4.5419,4.5491,4.5547,4.5595,4.5595,4.5757,4.5841,4.5841,4.59,4.5928,4.5928,4.6047,4.6123,0.0,0.0,0.0,0.0,4.6282,0.0,0.0,0.0,0.0,0.0,4.6277,4.6242,0.0,4.6249,4.623,4.6205,0.0,0.0,0.0,0.0,4.6134,4.6102,4.6056,4.6102,4.6139,4.6064,4.6046,4.6032,4.6008,4.5943,4.5899,4.59,4.5886,4.5847,4.5807,4.5807,4.6097,4.696,4.7831,4.8836,5.0074,5.0627,5.0763,5.0395,4.9204,4.8237,4.7831,4.66,4.5807,4.5807,4.5807,4.5807,4.5807,4.5807,4.5807,4.5807,4.5807,4.5807,4.5807,4.5807,4.5807,4.5807,4.5807,4.5807,4.5807,4.5807,4.5807,4.5807,4.5807,4.5807,4.5807,4.5807,4.5807,4.5807,4.5807,4.5807,4.5807,4.5807,4.5807,4.5807,0.0,0.0,0.0,0.0,0.0,0.0,0.0,0.0,0.0,0.0,0.0,0.0,0.0,0.0,0.0,0.0,0.0,0.0,0.0,0.0,0.0,0.0,4.5549,4.5587,4.5703,4.5731,4.5757,4.5757,4.5931,4.6027,4.6027,4.6146,4.6199,4.6199,4.6193,4.6206,0.0,0.0,4.6225,4.6277,4.6284,0.0,0.0,0.0,0.0,0.0,0.0,0.0,0.0,4.6192,4.6199,4.6173,4.6173,0.0,0.0,0.0,0.0,0.0,4.6002,4.6041,4.606,4.6003,4.5994,4.5991,4.5991,4.5938,4.5874,4.5874,0.0,4.5807,4.5807,4.5807,4.6136,4.7134,4.8121,4.9281,5.0705,5.0782,5.0453,4.9784,4.8817,4.7908,4.7173,4.631,4.5807,4.5807,4.5807,4.5807,4.5807,4.5807,4.5807,4.5807,4.5807,4.5807,4.5807,4.5807,4.5807,4.5807,4.5807,4.5807,4.5807,4.5807,4.5807,4.5807,4.5807,4.5807,4.5807,4.5807,4.5807,4.5807,4.5807,4.5807,4.5807,4.5807,4.5807,4.5807,0.0,0.0,0.0,0.0,0.0,0.0,0.0,0.0,0.0,0.0,0.0,0.0,0.0,0.0,0.0,0.0,0.0,0.0,0.0,0.0,0.0,4.5922,4.5757,4.5682,4.5703,4.5859,4.5956,4.5956,4.6098,4.6162,4.6162,4.6192,4.6199,4.6203,4.6206,4.6207,4.6191,4.6133,4.6152,4.6227,4.6226,0.0,0.0,0.0,0.0,0.0,0.0,0.0,0.0,4.6204,4.6158,4.6115,4.6115,0.0,0.0,0.0,0.0,0.0,4.6002,4.6016,4.6011,4.5997,4.5958,4.5917,4.5917,4.5867,4.5814,0.0,4.5807,4.5807,4.5807,4.5807,4.6329,4.7947,4.9494,5.0608,5.0859,5.0299,4.9842,4.9707,4.8275,4.725,4.7115,4.631,4.5807,4.5807,4.5807,4.5807,4.5807,4.5807,4.5807,4.5807,4.5807,4.5807,4.5807,4.5807,4.5807,4.5807,4.5807,4.5807,4.5807,4.5807,4.5807,4.5807,4.5807,4.5807,4.5807,4.5807,4.5807,4.5807,4.5807,4.5807,4.5807,4.5807,4.5807,4.5807,0.0,0.0,0.0,0.0,0.0,0.0,0.0,0.0,0.0,0.0,0.0,0.0,0.0,0.0,0.0,0.0,0.0,0.0,0.0,0.0,4.6018,4.6102,4.6018,4.5973,4.5973,4.606,4.6102,4.6102,4.6162,4.6199,4.6199,4.6206,4.6192,4.6193,4.6201,4.6209,4.6191,4.6127,4.6141,4.6205,0.0,0.0,0.0,0.0,0.0,0.0,0.0,0.0,0.0,0.0,4.6064,4.605,4.605,0.0,0.0,0.0,0.0,0.0,4.6002,4.5991,4.6,4.6,4.5949,4.5899,4.5899,4.5841,4.5807,4.5807,4.5807,4.5807,4.5807,4.5807,4.6368,4.8121,4.9823,5.0743,5.0299,4.9939,4.9359,4.8411,4.7579,4.6902,4.6445,4.6039,4.5807,4.5807,4.5807,4.5807,4.5807,4.5807,4.5807,4.5807,4.5807,4.5807,4.5807,4.5807,4.5807,4.5807,4.5807,4.5807,4.5807,4.5807,4.5807,4.5807,4.5807,4.5807,4.5807,4.5807,4.5807,4.5807,4.5807,4.5807,4.5807,4.5807,4.5807,4.5807,0.0,0.0,0.0,0.0,0.0,0.0,0.0,0.0,0.0,0.0,0.0,0.0,0.0,0.0,0.0,0.0,0.0,0.0,0.0,4.6146,4.6199,4.6199,4.6199,4.6199,4.6199,4.6199,4.6199,4.6199,4.619,4.6203,4.6195,4.6206,4.6192,4.6207,4.6172,4.6187,4.6161,4.612,4.6128,4.6186,0.0,0.0,0.0,0.0,0.0,0.0,0.0,0.0,0.0,0.0,0.0,0.0,0.0,0.0,0.0,4.6002,4.6002,4.5997,4.5991,4.5986,4.5975,4.598,4.5944,4.5906,4.59,4.5854,4.5807,4.5807,4.5807,4.5807,4.5807,4.5981,4.6542,4.7869,4.9339,5.0105,4.9475,4.9223,4.8604,4.725,4.6922,4.6542,4.5865,4.5807,4.5807,4.5807,4.5807,4.5807,4.5807,4.5807,4.5807,4.5807,4.5807,4.5807,4.5807,4.5807,4.5807,4.5807,4.5807,4.5807,4.5807,4.5807,4.5807,4.5807,4.5807,4.5807,4.5807,4.5807,4.5807,4.5807,4.5807,4.5807,4.5807,4.5807,4.5807,4.5807,0.0,0.0,0.0,0.0,0.0,0.0,0.0,0.0,0.0,0.0,0.0,0.0,0.0,0.0,0.0,0.0,0.0,0.0,0.0,4.6196,4.6199,4.6199,4.6199,4.6199,4.6199,4.6199,4.6199,4.6199,4.6203,4.6199,4.6201,4.6202,4.6207,4.6191,4.6134,4.6101,4.6092,4.6039,4.6059,4.6102,4.6041,0.0,0.0,0.0,0.0,0.0,0.0,0.0,0.0,0.0,0.0,0.0,0.0,0.0,4.6002,4.6002,4.6002,4.5997,4.6008,4.596,4.5911,4.5912,4.5906,4.5899,4.5906,4.5854,4.5807,4.5807,4.5807,4.5807,4.5807,4.6464,4.7038,4.7173,4.7966,4.8566,4.8508,4.7792,4.7231,4.7115,4.6387,4.5865,4.5807,4.5807,4.5807,4.5807,4.5807,4.5807,4.5807,4.5807,4.5807,4.5807,4.5807,4.5807,4.5807,4.5807,4.5807,4.5807,4.5807,4.5807,4.5807,4.5807,4.5807,4.5807,4.5807,4.5807,4.5807,4.5807,4.5807,4.5807,4.5807,4.5807,4.5807,4.5807,4.5807,4.5807,0.0,0.0,0.0,0.0,0.0,0.0,0.0,0.0,0.0,0.0,0.0,0.0,0.0,0.0,0.0,0.0,0.0,0.0,0.0,4.6199,4.6199,4.6199,4.6199,4.6193,4.6203,4.6196,4.6193,4.6203,4.62,4.6222,4.6269,4.6269,4.6268,4.6257,4.6197,4.6161,4.6164,4.6051,4.6003,4.6036,4.6017,4.6027,0.0,0.0,0.0,0.0,0.0,0.0,0.0,0.0,4.6002,4.6002,4.6002,4.6002,4.6002,4.6002,4.6005,4.5989,4.5997,4.5955,4.5899,4.5906,4.5906,4.5887,4.5854,4.5814,4.5807,4.5807,4.5807,4.5807,4.5807,4.6523,4.7096,4.7096,4.7831,4.8217,4.7676,4.7308,4.6902,4.6368,4.6,4.5807,4.5807,4.5807,4.5807,4.5807,4.5807,4.5807,4.5807,4.5807,4.5807,4.5807,4.5807,4.5807,4.5807,4.5807,4.5807,4.5807,4.5807,4.5807,4.5807,4.5807,4.5807,4.5807,4.5807,4.5807,4.5807,4.5807,4.5807,4.5807,4.5807,4.5807,4.5807,4.5807,4.5807,4.5807,0.0,0.0,0.0,0.0,0.0,0.0,0.0,0.0,0.0,0.0,0.0,0.0,0.0,0.0,0.0,0.0,0.0,0.0,4.6199,4.6199,4.6206,4.6203,4.6203,4.6206,4.62,4.6199,4.6199,4.6202,4.6223,4.6269,4.6302,4.6279,4.6267,4.6279,4.6209,4.6154,4.6138,4.6032,4.6002,4.6002,4.6002,4.6002,0.0,0.0,0.0,0.0,0.0,0.0,0.0,0.0,4.6002,4.6002,4.6002,4.6002,4.6002,4.6002,4.6,4.5991,4.5966,4.5937,4.5886,4.5874,4.586,4.5854,4.5814,4.5807,4.5807,4.5807,4.5807,4.5807,4.5807,4.629,4.6689,4.6689,4.7192,4.7366,4.6767,4.6689,4.6464,4.5865,4.5807,4.5807,4.5807,4.5807,4.5807,4.5807,4.5807,4.5807,4.5807,4.5807,4.5807,4.5807,4.5807,4.5807,4.5807,4.5807,4.5807,4.5807,4.5807,4.5807,4.5807,4.5807,4.5807,4.5807,4.5807,4.5807,4.5807,4.5807,4.5807,4.5807,4.5807,4.5807,4.5807,4.5807,4.5807,4.5807,0.0,0.0,0.0,0.0,0.0,0.0,0.0,0.0,0.0,0.0,0.0,0.0,0.0,0.0,0.0,0.0,0.0,0.0,4.6199,4.6199,4.6203,4.6206,4.6189,4.6183,4.6184,4.6184,4.6184,4.6184,4.6269,4.6282,4.628,4.6238,4.6192,4.6196,4.6134,4.6071,4.6002,4.6002,4.6002,4.6002,4.6002,4.6002,4.6002,0.0,0.0,0.0,0.0,0.0,0.0,0.0,4.6002,4.6002,4.6002,4.6002,4.6002,4.6002,4.6,4.5991,4.5917,4.5906,4.5874,4.5814,4.5807,4.5807,4.5807,4.5807,4.5807,4.5807,4.5807,4.5807,4.5807,4.5807,4.5807,4.5807,4.5807,4.5807,4.5807,4.5807,4.5807,4.5807,4.5807,4.5807,4.5807,4.5807,4.5807,4.5807,4.5807,4.5807,4.5807,4.5807,4.5807,4.5807,4.5807,4.5807,4.5807,4.5807,4.5807,4.5807,4.5807,4.5807,4.5807,4.5807,4.5807,4.5807,4.5807,4.5807,4.5807,4.5807,4.5807,4.5807,4.5807,4.5807,4.5807,4.5807,4.5807,4.5807,0.0,0.0,0.0,0.0,0.0,0.0,0.0,0.0,0.0,0.0,0.0,0.0,0.0,0.0,0.0,0.0,0.0,0.0,4.6209,4.6209,4.6206,4.6195,4.5609,4.5305,4.5351,4.4762,4.4742,4.5351,4.5383,4.5365,4.5338,4.5919,4.6192,4.6196,4.6134,4.6089,4.6071,4.6017,4.6002,4.6002,4.6002,4.6002,4.6002,0.0,0.0,0.0,0.0,0.0,0.0,0.0,0.0,0.0,4.6002,4.6002,4.6002,4.6002,4.6,4.5991,4.5986,4.5944,4.5893,4.5886,4.5827,4.5807,4.5807,4.5807,4.5807,4.5807,4.5807,4.5807,4.5807,4.5807,4.5807,4.5807,4.5807,4.5807,4.5807,4.5807,4.5807,4.5807,4.5807,4.5807,4.5807,4.5807,4.5807,4.5807,4.5807,4.5807,4.5807,4.5807,4.5807,4.5807,4.5807,4.5807,4.5807,4.5807,4.5807,4.5807,4.5807,4.5807,4.5807,4.5807,4.5807,4.5807,4.5807,4.5807,4.5807,4.5807,4.5807,4.5807,4.5807,4.5807,4.5807,4.5807,4.5807,4.5807,0.0,0.0,0.0,0.0,0.0,0.0,0.0,0.0,0.0,0.0,0.0,0.0,0.0,0.0,0.0,0.0,0.0,0.0,0.0,4.5872,4.5707,4.5721,4.4881,4.4433,4.4484,4.3633,4.3438,4.3977,4.4317,4.4629,4.4916,4.5432,4.5859,4.6154,4.6089,4.6066,4.6066,4.6012,4.6002,4.6002,4.6002,4.6002,4.6002,0.0,0.0,0.0,0.0,0.0,0.0,0.0,0.0,0.0,4.6002,4.6002,4.6002,4.6002,4.6,4.5997,4.5997,4.595,4.59,4.59,4.5854,4.5807,4.5807,4.5807,4.5807,4.5807,4.5807,4.5807,4.5807,4.5807,4.5807,4.5807,4.5807,4.5807,4.5807,4.5807,4.5807,4.5807,4.5807,4.5807,4.5807,4.5807,4.5807,4.5807,4.5807,4.5807,4.5807,4.5807,4.5807,4.5807,4.5807,4.5807,4.5807,4.5807,4.5807,4.5807,4.5807,4.5807,4.5807,4.5807,4.5807,4.5807,4.5807,4.5807,4.5807,4.5807,4.5807,4.5807,4.5807,4.5807,4.5807,4.5807,4.5807,4.5807,0.0,0.0,0.0,0.0,0.0,0.0,0.0,0.0,0.0,0.0,4.6193,0.0,0.0,0.0,0.0,0.0,0.0,0.0,0.0,4.5267,4.4822,4.4881,4.4041,4.3548,4.3452,4.2689,4.2279,4.2279,4.3157,4.3986,4.4774,4.4861,4.5332,4.6089,4.6022,4.6002,4.6002,4.6002,4.6002,4.6002,4.6002,4.6002,4.6002,4.6002,0.0,0.0,0.0,0.0,0.0,0.0,0.0,0.0,4.6002,4.6002,4.6002,4.6002,4.6,4.6003,4.6003,4.5956,4.5906,4.5906,4.5854,4.5807,4.5807,4.5807,4.5807,4.5807,4.5807,4.5807,4.5807,4.5807,4.5807,4.5807,4.5807,4.5807,4.5807,4.5807,4.5807,4.5807,4.5807,4.5807,4.5807,4.5807,4.5807,4.5807,4.5807,4.5807,4.5807,4.5807,4.5807,4.5807,4.5807,4.5807,4.5807,4.5807,4.5807,4.5807,4.5807,4.5807,4.5807,4.5807,4.5807,4.5807,4.5807,4.5807,4.5807,4.5807,4.5807,4.5807,4.5807,4.5807,4.5807,4.5807,4.5807,4.5807,0.0,0.0,0.0,0.0,0.0,0.0,0.0,0.0,0.0,0.0,0.0,0.0,0.0,0.0,0.0,0.0,0.0,0.0,0.0,4.4433,4.3963,4.3986,4.3145,4.2363,4.1675,4.148,4.1382,4.1382,4.2259,4.3099,4.3884,4.4579,4.5297,4.6017,4.6007,4.6002,4.6002,4.6002,4.6002,4.6002,4.6002,4.6002,4.6002,4.6002,4.6002,0.0,0.0,0.0,0.0,0.0,0.0,0.0,4.6002,4.6002,4.6002,4.6002,4.5997,4.5991,4.5991,4.5983,4.5968,4.5905,4.5854,4.5807,4.5807,4.5807,4.5807,4.5807,4.5807,4.5807,4.5807,4.5807,4.5807,4.5807,4.5807,4.5807,4.5807,4.5807,4.5807,4.5807,4.5807,4.5807,4.5807,4.5807,4.5807,4.5807,4.5807,4.5807,4.5807,4.5807,4.5807,4.5807,4.5807,4.5807,4.5807,4.5807,4.5807,4.5807,4.5807,4.5807,4.5807,4.5807,4.5807,4.5807,4.5807,4.5807,4.5807,4.5807,4.5807,4.5807,4.5807,4.5807,4.5807,4.5807,4.5807,4.5807,0.0,0.0,0.0,0.0,0.0,0.0,0.0,0.0,0.0,0.0,0.0,0.0,0.0,0.0,0.0,0.0,0.0,0.0,0.0,0.0,4.2898,4.2476,4.2025,4.1557,4.1109,4.1109,4.1109,4.1109,4.1568,4.2186,4.2997,4.3833,4.4669,4.5433,4.5827,4.6002,4.6002,4.6002,4.6002,4.6002,4.6002,4.6002,4.6002,4.6002,4.6002,4.6002,4.6002,0.0,0.0,0.0,0.0,0.0,0.0,0.0,4.6002,4.6002,4.6002,4.6002,4.6002,4.6,4.5986,4.5918,4.5848,4.5807,4.5807,4.5807,4.5807,4.5807,4.5807,4.5807,4.5807,4.5807,4.5807,4.5807,4.5807,4.5807,4.5807,4.5807,4.5807,4.5807,4.5807,4.5807,4.5807,4.5807,4.5807,4.5807,4.5807,4.5807,4.5807,4.5807,4.5807,4.5807,4.5807,4.5807,4.5807,4.5807,4.5807,4.5807,4.5807,4.5807,4.5807,4.5807,4.5807,4.5807,4.5807,4.5807,4.5807,4.5807,4.5807,4.5807,4.5807,4.5807,4.5807,4.5807,4.5807,4.5807,0.0,0.0,0.0,0.0,0.0,0.0,0.0,0.0,0.0,0.0,0.0,0.0,0.0,0.0,0.0,0.0,0.0,0.0,0.0,0.0,0.0,4.1119,4.1087,4.1109,4.1109,4.1109,4.1108,4.1104,4.1081,4.1424,4.2091,4.2914,4.3747,4.4598,4.5278,4.5652,4.5788,4.5788,4.5866,4.6002,4.6002,4.6002,4.6002,4.6002,4.6002,4.6002,4.6002,4.6002,4.6002,4.6002,0.0,0.0,0.0,0.0,4.5963,4.5827,4.5885,4.5963,4.5827,4.5897,4.5974,4.5899,4.5854,4.5807,4.5807,4.5807,4.5807,4.5807,4.5807,4.5807,4.5807,4.5807,4.5807,4.5807,4.5807,4.5807,4.5807,4.5807,4.5807,4.5807,4.5807,4.5807,4.5807,4.5807,4.5807,4.5807,4.5807,4.5807,4.5807,4.5807,4.5807,4.5807,4.5807,4.5807,4.5807,4.5807,4.5807,4.5807,4.5807,4.5807,4.5807,4.5807,4.5807,4.5807,4.5807,4.5807,4.5807,4.5807,4.5807,4.5807,4.5807,4.5807,4.5807,4.5807,4.5807,4.5807,0.0,0.0,0.0,0.0,0.0,0.0,0.0,0.0,0.0,0.0,0.0,0.0,0.0,0.0,0.0,0.0,0.0,0.0,4.2572,0.0,0.0,4.1028,4.107,4.1109,4.1109,4.1109,4.1101,4.1098,4.1034,4.1078,4.1198,4.2066,4.2896,4.3685,4.3802,4.4248,4.4967,4.4967,4.5356,4.6002,4.6002,4.6002,4.6002,4.6002,4.6002,4.6002,4.6002,4.6002,4.6002,4.6002,4.6002,0.0,0.0,0.0,4.5866,4.5161,4.5453,4.5846,4.5142,4.5434,4.5911,4.5905,4.5854,4.5807,4.5807,4.5807,4.5807,4.5807,4.5807,4.5807,4.5807,4.5807,4.5807,4.5807,4.5807,4.5807,4.5807,4.5807,4.5807,4.5807,4.5807,4.5807,4.5807,4.5807,4.5807,4.5807,4.5807,4.5807,4.5807,4.5807,4.5807,4.5807,4.5807,4.5807,4.5807,4.5807,4.5807,4.5807,4.5807,4.5807,4.5807,4.5807,4.5807,4.5807,4.5807,4.5807,4.5807,4.5807,4.5807,4.5807,4.5807,4.5807,4.5807,4.5807,4.5807,4.5807,0.0,0.0,0.0,0.0,0.0,0.0,0.0,0.0,0.0,0.0,0.0,0.0,0.0,0.0,0.0,4.2222,4.1763,4.1507,4.1507,4.1136,4.0928,4.089,4.098,4.1033,4.1033,4.1078,4.1053,4.098,4.0967,4.0889,4.0775,4.1175,4.1856,4.2792,4.3192,4.3643,4.4074,4.4074,4.4287,4.4598,4.4598,4.4889,4.5336,4.5336,4.5336,4.5336,4.5336,4.5336,4.5336,4.5336,4.5633,4.6002,4.6002,0.0,0.0,0.0,4.5394,4.5142,4.4307,4.4963,4.5795,4.5343,4.5525,4.5807,4.5807,4.5807,4.5807,4.5807,4.5807,4.5807,4.5807,4.5807,4.5807,4.5807,4.5807,4.5807,4.5807,4.5807,4.5807,4.5807,4.5807,4.5807,4.5807,4.5807,4.5807,4.5807,4.5807,4.5807,4.5807,4.5807,4.5807,4.5807,4.5807,4.5807,4.5807,4.5807,4.5807,4.5807,4.5807,4.5807,4.5807,4.5807,4.5807,4.5807,4.5807,4.5807,4.5807,4.5807,4.5807,4.5807,4.5807,4.5807,4.5807,4.5807,4.5807,4.5807,0.0,0.0,0.0,0.0,0.0,0.0,0.0,0.0,0.0,0.0,0.0,0.0,0.0,0.0,0.0,0.0,4.0882,4.0796,4.0771,4.0796,4.0796,4.0771,4.0882,4.0944,4.0944,4.0995,4.0964,4.0843,4.0824,4.0745,4.0591,4.0568,4.0984,4.1817,4.2398,4.2842,4.313,4.313,4.3236,4.3447,4.3682,4.4178,4.4746,4.4787,4.4792,4.4773,4.4559,4.4462,4.4462,4.4462,4.5025,4.571,4.571,4.5846,0.0,0.0,0.0,4.4661,4.4006,4.4875,4.5698,4.4665,4.5143,4.582,4.5601,4.5717,4.586,4.5848,4.5841,4.5848,4.5814,4.5807,4.5807,4.5807,4.5807,4.5807,4.5807,4.5807,4.5807,4.5807,4.5807,4.5807,4.5807,4.5807,4.5807,4.5807,4.5807,4.5807,4.5807,4.5807,4.5807,4.5807,4.5807,4.5807,4.5807,4.5807,4.5807,4.5807,4.5807,4.5807,4.5807,4.5807,4.5807,4.5807,4.5807,4.5807,4.5807,4.5807,4.5807,4.5807,4.5807,4.5807,4.5807,4.5807,4.5807,4.5807,0.0,0.0,0.0,0.0,0.0,0.0,0.0,0.0,0.0,0.0,0.0,0.0,4.1265,4.1108,4.1049,4.099,4.0882,4.0766,4.0712,4.0756,4.0766,4.0712,4.0761,0.0,4.0815,4.0801,4.0786,4.0715,4.0647,4.061,4.0595,4.0477,4.0504,4.0693,4.0855,4.1362,4.209,4.209,4.2525,4.3301,4.4189,4.4576,4.4621,4.4746,4.4792,4.4695,4.386,4.3563,4.3563,4.3563,4.4132,4.4851,4.4851,4.5394,4.5846,0.0,0.0,0.0,4.4737,4.541,4.5683,4.3991,4.4832,4.5875,4.5036,4.548,4.6064,4.5993,4.5991,4.5958,4.5808,4.5807,4.5807,4.5807,4.5807,4.5807,4.5807,4.5807,4.5807,4.5807,4.5807,4.5807,4.5807,4.5807,4.5807,4.5807,4.5807,4.5807,4.5807,4.5807,4.5807,4.5807,4.5807,4.5807,4.5807,4.5807,4.5807,4.5807,4.5807,4.5807,4.5807,4.5807,4.5807,4.5807,4.5807,4.5807,4.5807,4.5807,4.5807,4.5807,4.5807,4.5807,4.5807,4.5807,4.5807,4.5807,0.0,0.0,0.0,0.0,0.0,0.0,0.0,0.0,0.0,0.0,0.0,0.0,0.0,4.0902,4.0805,4.0805,4.068,4.0596,4.0566,4.0589,4.0596,4.0566,4.0674,4.0715,4.0672,4.0759,4.0726,4.057,4.0556,4.0496,4.0405,4.0353,4.0386,4.0477,4.0515,4.0754,4.1093,4.1093,4.1266,4.1567,4.1898,4.2396,4.2942,4.2972,4.3061,4.3088,4.2772,4.2675,4.2675,4.2675,4.3627,4.4792,4.4792,4.5356,4.5846,4.5045,4.5191,4.5398,4.432,4.5037,4.5825,4.4629,4.4802,4.5183,4.4871,4.5043,4.525,4.5219,4.5663,4.6048,4.5993,4.5885,4.5807,4.5807,4.5807,4.5807,4.5807,4.5807,4.5807,4.5807,4.5807,4.5807,4.5807,4.5807,4.5807,4.5807,4.5807,4.5807,4.5807,4.5807,4.5807,4.5807,4.5807,4.5807,4.5807,4.5297,4.5026,4.5026,4.4465,4.4194,4.4194,4.4194,4.4194,4.4194,4.4194,4.4504,4.5026,4.5026,4.4697,4.4194,4.4194,4.4194,4.4194,4.4194,4.4529,4.4972,0.0,0.0,0.0,0.0,0.0,0.0,0.0,0.0,0.0,4.1072,0.0,0.0,0.0,0.0,4.0681,4.0629,4.0557,4.0496,4.0496,4.0496,4.0496,4.0496,4.0579,4.0614,4.0566,4.0604,4.057,4.0427,4.043,4.0386,4.0301,4.0301,4.0318,4.0377,4.0377,4.0433,4.053,4.053,4.0527,4.0535,4.085,4.134,4.1892,4.1944,4.2038,4.2096,4.1819,4.1737,4.1811,4.2102,4.3146,4.4378,4.4679,4.5326,4.5889,4.5364,4.5604,4.5728,4.4359,4.5007,4.578,4.4643,4.4813,4.5194,4.4905,4.4858,4.4868,4.4847,4.5058,4.5247,4.5225,4.5123,4.52,4.5783,4.5874,4.5841,4.5814,4.5807,4.5807,4.5807,4.5807,4.5807,4.5807,4.5807,4.5807,4.5807,4.5807,4.5807,4.5807,4.5807,4.5807,4.5807,4.5807,4.5671,4.5394,4.4871,4.4439,4.4149,4.3576,4.3305,4.3305,4.3305,4.3305,4.3305,4.3305,4.3634,4.4149,4.4149,4.3827,4.3305,4.3305,4.3305,4.3305,4.3305,4.3626,4.41,0.0,0.0,0.0,0.0,0.0,0.0,0.0,0.0,4.1074,4.0997,0.0,0.0,0.0,0.0,0.0,4.0512,4.0496,4.0496,4.0496,4.0496,4.0496,4.0496,4.0507,4.0502,4.0502,4.037,4.0307,4.0307,4.0291,4.0301,4.0301,4.0301,4.0301,4.0301,4.0301,4.0345,4.0397,4.0397,4.036,4.0377,4.1285,4.1651,4.1687,4.1797,4.1892,4.184,4.1059,4.0823,4.1008,4.1853,4.269,4.3507,4.4428,4.5293,4.5997,4.5997,4.5955,4.5722,0.0,0.0,0.0,4.3975,4.4875,4.5938,4.509,4.4953,4.4979,4.488,4.4208,4.3609,4.353,4.3497,4.4036,4.5667,4.5944,4.5919,4.5827,4.5807,4.5807,4.5807,4.5807,4.5807,4.5807,4.5807,4.5807,4.5807,4.5807,4.5807,4.5807,4.5807,4.5807,4.5807,4.5787,4.5394,4.4613,4.4555,4.4091,4.3266,4.3247,4.3227,4.3227,4.3227,4.3227,4.3227,4.3227,4.3227,4.3227,4.3247,4.3247,4.3227,4.3227,4.3221,4.3221,4.3221,4.3201,4.3276,0.0,0.0,0.0,0.0,0.0,4.108,4.1044,4.1039,4.0997,0.0,0.0,0.0,4.0734,4.061,4.0542,4.0496,4.0496,4.0496,4.0496,4.0496,4.05,4.0507,4.0491,4.0449,4.037,4.0325,4.0308,4.031,4.0291,4.0301,4.0301,4.0301,4.0301,4.0301,4.0301,4.031,4.0327,4.0327,4.0319,4.0329,4.0586,4.0724,4.0751,4.0745,4.0781,4.0803,4.0492,4.0381,4.0438,4.0841,4.1551,4.2531,4.4181,4.5258,4.5923,4.5923,4.5942,4.592,4.5692,0.0,0.0,0.0,0.0,0.0,4.488,4.483,4.4663,4.4025,4.42,4.4273,4.3611,4.3491,4.3642,4.4059,4.4656,4.5235,4.5724,4.5807,4.5807,4.5807,4.5807,4.5807,4.5807,4.5807,4.5807,4.5807,4.5807,4.5807,4.5807,4.5807,4.5807,4.5807,4.5239,4.4833,4.4594,4.3343,4.2609,4.2357,4.1777,4.1487,4.1487,4.1487,4.1487,4.1487,4.1487,4.1487,4.1545,4.2125,4.2028,4.1487,4.1442,4.1428,4.1409,4.1363,4.174,4.229,0.0,0.0,0.0,0.0,0.0,4.1081,4.1054,4.1028,4.0948,0.0,0.0,0.0,4.0615,4.0549,4.0496,4.0496,4.0496,4.0496,4.0496,4.05,4.0495,4.0502,4.0449,4.0379,4.0307,4.0308,4.03,4.0301,4.0301,4.0301,4.0301,4.0301,4.0301,4.0301,4.0301,4.0301,4.0301,4.0301,4.0301,4.0301,4.0301,4.0291,4.027,4.0234,4.0242,4.0253,4.0192,4.0182,4.033,4.1141,4.2279,4.357,4.472,4.5454,4.5906,4.5906,4.5916,4.5917,4.5919,4.5954,4.5968,4.5974,0.0,0.0,4.4841,4.4495,4.4014,4.314,4.3082,4.3062,4.2555,4.2458,4.2532,4.2811,4.3272,4.3871,4.464,4.4755,4.4755,4.4755,4.4755,4.4755,4.4755,4.4755,4.4755,4.4755,4.4755,4.4755,4.4755,4.4755,4.4755,4.4755,4.4311,4.3885,4.3518,4.2512,4.1835,4.1487,4.1029,4.0797,4.0797,4.0797,4.0797,4.0797,4.0797,4.0797,4.0835,4.1313,4.1216,4.079,4.0733,4.07,4.0694,4.0621,4.0914,4.1404,0.0,0.0,4.1109,4.1109,4.1087,4.1081,4.1078,4.1014,4.0922,0.0,4.0703,4.0629,4.0512,4.0496,4.0496,4.0496,4.0489,4.0508,4.0508,4.0479,4.0493,4.0485,4.0351,4.0307,4.0298,4.031,4.0301,4.0301,4.0301,4.0301,4.0301,4.0301,4.0301,4.0301,4.0301,4.0301,4.0301,4.0301,4.0301,4.0291,4.0301,4.0225,4.0106,4.0077,4.0078,4.0051,4.0041,4.0081,4.0368,4.1887,4.3606,4.5148,4.5164,4.5352,4.5583,4.5596,4.5576,4.5517,4.5517,4.5517,4.5517,4.5517,4.5608,0.0,4.4718,4.399,4.3233,4.2357,4.1613,4.1084,4.0986,4.0986,4.1198,4.1849,4.1951,4.2269,4.3163,4.3305,4.3305,4.3305,4.3305,4.3305,4.3305,4.3305,4.3305,4.3305,4.3305,4.3305,4.3305,4.3305,4.3305,4.3305,4.3208,4.2783,4.2009,4.1912,4.1506,4.0797,4.0797,4.0797,4.0797,4.0797,4.0797,4.0797,4.0797,4.0797,4.0797,4.0797,4.0797,4.079,4.0726,4.0694,4.0687,4.0614,4.0598,4.0696,0.0,4.1109,4.1109,4.1109,4.1061,4.0974,4.0875,4.0801,4.0705,4.0588,4.0545,4.0527,4.0496,4.0496,4.0496,4.0496,4.0503,4.0499,4.0499,4.0449,4.0407,4.0334,4.0316,4.0308,4.0301,4.031,4.0301,4.0301,4.0301,4.0301,4.0301,4.0301,4.0301,4.0301,4.0301,4.0301,4.0301,4.0301,4.0234,4.0147,4.0253,4.0225,4.0096,3.9984,3.987,3.9773,3.972,3.9715,3.9792,4.0285,4.1245,4.2248,4.2415,4.2961,4.3594,4.3768,4.3795,4.3788,4.3788,4.3788,4.3788,4.3788,4.3808,0.0,4.3615,4.344,4.309,4.2224,4.1908,4.1618,4.0965,4.0848,4.0901,4.1027,4.1046,4.1576,4.3092,4.3305,4.3305,4.3305,4.3305,4.3305,4.3305,4.3305,4.3305,4.3305,4.3305,4.3305,4.3305,4.3305,4.3305,4.3305,4.2628,4.2164,4.2009,4.1351,4.0971,4.0797,4.0797,4.0797,4.0797,4.0797,4.0797,4.0797,4.0797,4.0797,4.0797,4.0797,4.0797,4.079,4.0668,4.0621,4.0614,4.0542,4.0512,4.0543,4.1109,4.1109,4.1083,4.1061,4.1014,4.0948,4.0824,4.0738,4.0675,4.0602,4.0542,4.0508,4.0503,4.0503,4.0487,4.0444,4.0438,4.0449,4.0449,4.0388,4.0344,4.0307,4.0299,4.0291,4.0301,4.0301,4.0301,4.0301,4.0301,4.0301,4.0301,4.0301,4.0301,4.0301,4.0301,4.0301,4.0301,4.0301,4.0253,4.0205,4.0205,4.0077,3.9881,3.9826,3.9735,3.9637,3.9614,3.9871,4.0203,4.0318,4.1037,4.1918,4.2029,4.2422,4.2876,4.2981,4.3006,4.3022,4.3119,4.3161,4.3176,4.3265,4.3305,0.0,0.0,4.2647,4.2415,4.1564,4.139,4.1274,4.0874,4.0797,4.0797,4.0797,4.0797,4.1087,4.1932,4.2048,4.2048,4.2048,4.2048,4.2048,4.2048,4.2048,4.2048,4.2048,4.2048,4.2048,4.2048,4.2048,4.2048,4.2048,4.1622,4.139,4.139,4.1009,4.0797,4.0797,4.0797,4.0797,4.0797,4.0797,4.0797,4.0797,4.0797,4.0797,4.0797,4.0752,4.0746,4.0746,4.0687,4.0628,4.0607,4.0561,4.0531,4.0496,4.1108,4.1083,4.1068,4.1,4.097,4.0906,4.0791,4.0703,4.0655,4.0655,4.0571,4.0503,4.051,4.0493,4.0449,4.0388,4.0379,4.0379,4.0379,4.0335,4.0289,4.0289,4.031,4.0301,4.0301,4.0301,4.0301,4.0301,4.0301,4.0301,4.0301,4.0301,4.0301,4.0301,4.0263,4.0282,4.0301,4.0244,4.0225,4.0215,4.0077,3.9922,3.9728,3.9717,3.9618,3.9508,3.9508,3.9965,4.0572,4.0572,4.1147,4.1874,4.1901,4.2036,4.2163,4.2202,4.2212,4.225,4.2413,4.2456,4.2516,4.2707,4.2762,4.2595,0.0,0.0,0.0,4.0932,4.0797,4.0797,4.0797,4.0797,4.0797,4.0797,4.0797,4.0797,4.0797,4.0797,4.0797,4.0797,4.0797,4.0797,4.0797,4.0797,4.0797,4.0797,4.0797,4.0797,4.0797,4.0797,4.0797,4.0797,4.0797,4.0797,4.0797,4.0797,4.0784,4.0739,4.0739,4.072,4.0673,4.0673,4.0713,4.0739,4.0739,4.0739,4.0733,4.0673,4.0633,4.064,4.0673,4.064,4.0593,4.0595,4.0558,4.0496,4.1083,4.1059,4.1,4.0994,4.0849,4.0736,4.0699,4.0602,4.0519,4.0519,4.0511,4.051,4.0502,4.0441,4.0415,4.0407,4.0353,4.0316,4.0316,4.03,4.0291,4.0291,4.031,4.0301,4.0301,4.0301,4.0301,4.0301,4.0301,4.0301,4.0301,4.0301,4.0301,4.0301,4.0186,4.0195,4.0272,4.0046,3.9962,3.9933,3.9804,3.9804,3.9848,3.9739,3.9514,3.9256,3.9256,3.9462,3.9739,3.9739,3.982,3.9938,4.0121,4.0209,4.0254,4.0425,4.0472,4.0501,4.05,4.0529,4.0574,4.0769,4.0816,4.0853,4.092,0.0,4.0913,4.0816,0.0,4.0797,4.0797,0.0,0.0,4.0797,4.0797,4.0797,4.0797,4.0797,4.0797,4.0797,4.0797,4.0797,4.0797,4.0797,4.0797,4.0797,4.0797,4.0797,4.0797,4.0797,4.0797,4.0797,4.0797,4.0797,4.0797,4.0797,4.0713,4.0527,4.0527,4.0449,4.0269,4.0269,4.0364,4.0527,4.0527,4.0527,4.0539,4.0454,4.043,4.0438,4.0554,4.0615,4.0588,4.0531,4.0516,4.0496,4.1033,4.0961,4.087,4.0835,4.0765,4.0668,4.0607,4.0542,4.0492,4.0455,4.0474,4.0466,4.0388,4.0362,4.0344,4.0346,4.0328,4.03,4.03,4.0301,4.0301,4.0301,4.0301,4.0301,4.0301,4.0301,4.0301,4.0301,4.0301,4.0301,4.0301,4.0301,4.0301,4.0301,4.0157,4.0137,4.0166,3.9984,3.99,3.9889,3.9751,3.9658,3.9606,3.9452,3.9245,3.9036,3.9036,3.9175,3.9362,3.9362,3.947,3.9614,3.9703,3.9738,3.9731,3.9834,3.9848,3.9881,3.9989,4.002,4.008,4.0278,4.0321,4.0347,4.0441,4.0457,4.0481,4.0598,0.0,0.0,0.0,0.0,0.0,0.0,4.0797,4.0797,4.0797,4.0797,4.0797,4.0797,4.0797,4.0797,4.0797,4.0797,4.0797,4.0797,4.0797,4.0797,4.0797,4.0797,4.0797,4.0797,4.0797,4.0739,4.0631,4.0631,4.0519,4.0321,4.0321,4.0286,4.0205,4.0205,4.0251,4.0321,4.0321,4.0304,4.0258,4.0204,4.0148,4.012,4.0139,4.023,4.037,4.0516,4.0449,4.0339,4.0958,4.0874,4.0776,4.0718,4.0668,4.0602,4.0516,4.0492,4.0487,4.0415,4.0432,4.0405,4.0316,4.0298,4.0309,4.031,4.0301,4.0301,4.0301,4.0301,4.0301,4.0301,4.0301,4.0301,4.0301,4.0301,4.0301,4.0301,4.0301,4.0301,4.0301,4.0301,4.0301,4.0301,4.0157,4.0106,4.0096,3.9922,3.9804,3.9747,3.9611,3.9395,3.9132,3.9041,3.896,3.8877,3.8818,3.8917,3.9115,3.9115,3.9242,3.9419,3.947,3.9483,3.9496,3.9577,3.9589,3.9638,3.9777,3.9823,3.9859,4.007,4.012,4.0139,4.0196,4.0205,4.0242,4.0381,4.0425,0.0,0.0,0.0,4.072,4.072,0.0,4.0797,4.0797,4.0797,4.0797,4.0797,4.0797,4.0797,4.0797,4.1009,4.1048,4.0816,4.1009,4.1029,4.0816,4.0797,4.0778,4.072,4.072,4.0612,4.0425,4.0425,4.0313,4.012,4.012,4.009,4.003,4.003,4.007,4.012,4.012,4.009,4.0011,3.9922,3.9859,3.9813,3.9739,3.9829,4.0034,4.0285,4.025,4.0101,4.0833,4.0791,4.0776,4.0718,4.0588,4.0508,4.0491,4.0502,4.0485,4.0415,4.0353,4.0288,4.0307,4.03,4.0301,4.0301,4.0301,4.0301,4.0301,4.0301,4.0301,4.0301,4.0301,4.0301,4.0301,4.0301,4.0301,4.0301,4.0301,4.0301,4.0301,4.0301,4.0301,4.0301,4.0157,4.0106,4.0077,3.9826,3.9599,3.9401,3.9277,3.8942,3.8541,3.8523,3.868,3.8881,3.8603,3.868,3.8925,3.8925,3.8925,3.895,3.9142,3.921,3.9251,3.9508,3.9589,3.9589,3.9602,3.9602,3.9662,3.9859,3.9914,3.9948,4.0158,4.0205,4.0205,4.0214,4.0214,4.0214,4.0223,4.0372,4.0504,4.0504,4.0666,0.0,0.0,4.0797,4.0797,4.0797,4.0797,4.0797,4.0797,4.1506,4.1641,4.0855,4.1525,4.1622,4.0835,4.0797,4.0713,4.0531,4.0504,4.0406,4.0214,4.0214,4.011,3.9914,3.9914,3.9811,3.9614,3.9614,3.9738,3.9914,3.9914,3.9881,3.9804,3.9671,3.9614,3.9599,3.9539,3.9508,3.9544,3.9761,3.9819,3.9819,4.0829,4.0756,4.0699,4.0581,4.0534,4.0492,4.0449,4.0432,4.0407,4.0346,4.0317,4.0289,4.03,4.0291,4.0301,4.0301,4.0301,4.0301,4.0301,4.0301,4.0301,4.0301,4.0301,4.0301,4.0301,4.0301,4.0301,4.0301,4.0301,4.0301,4.0301,4.0301,4.0244,4.0157,4.0026,3.9922,3.9826,3.9684,3.9489,3.9251,3.8884,3.8631,3.851,3.851,3.8462,3.8419,3.8322,3.8449,3.8634,3.8634,3.8758,3.8906,3.8979,3.9007,3.9021,3.9106,3.9152,3.9152,3.9152,3.9229,3.9362,3.9414,3.9557,3.9727,3.9789,3.9811,3.9837,3.9969,4.0,4.004,4.0177,4.026,4.0304,4.0304,4.0356,4.0397,0.0,4.0397,4.0397,4.0397,4.0646,4.0797,4.0797,4.1048,4.1087,4.0816,4.1048,4.1087,4.0816,4.0797,4.0713,4.0504,4.0496,4.0339,4.0,4.0,3.9881,3.9631,3.9631,3.9602,3.9533,3.9495,3.9527,3.9631,3.9595,3.9514,3.9389,3.9357,3.9305,3.9259,3.9245,3.9232,3.9266,3.9652,3.9728,3.9621,4.0801,4.0734,4.0655,4.0527,4.05,4.0479,4.0415,4.0379,4.0354,4.031,4.03,4.03,4.031,4.0301,4.0301,4.0301,4.0301,4.0301,4.0301,4.0301,4.0291,4.0234,4.0234,4.0215,4.0157,4.0196,4.0234,4.0234,4.0282,4.0282,4.0234,4.0234,4.0157,4.0026,3.9933,3.9826,3.9693,3.9661,3.9477,3.9156,3.8691,3.8462,3.8401,3.8401,3.8305,3.8209,3.8209,3.8272,3.8401,3.8401,3.8512,3.8652,3.8743,3.8758,3.8773,3.8862,3.891,3.891,3.891,3.8993,3.9073,3.9013,3.911,3.9237,3.9237,3.9304,3.9389,3.9587,3.9689,3.9781,3.9895,3.9981,4.006,4.006,4.0148,4.0205,0.0,4.0205,4.0205,4.0205,4.0489,4.068,4.068,4.1016,4.1106,4.0816,4.1067,4.1106,4.0816,4.0733,4.0598,4.0389,4.0321,4.0129,3.98,3.98,3.9703,3.9495,3.9495,3.9482,3.9457,3.9418,3.9431,3.9457,3.9418,3.9315,3.9197,3.9197,3.9156,3.9101,3.9101,3.9101,3.9137,3.9433,3.9477,3.9389,4.0734,4.0694,4.0649,4.0519,4.0495,4.0466,4.0415,4.0334,4.0308,4.0291,4.0301,4.0301,4.0301,4.0301,4.0301,4.0301,4.0301,4.0301,4.0301,4.0301,4.0234,4.0117,4.0106,4.0036,3.99,4.0036,4.0106,4.0096,4.0225,4.0225,4.0096,4.0096,4.0026,3.9889,3.9889,3.9815,3.9693,3.9693,3.9502,3.9156,3.8691,3.8385,3.8207,3.8209,3.8209,3.8209,3.8209,3.8209,3.8209,3.8209,3.8209,3.8224,3.8415,3.8494,3.8541,3.8788,3.8881,3.8881,3.8881,3.8881,3.8833,3.8628,3.8579,3.8579,3.8579,3.8741,3.8915,3.9041,3.9288,3.9457,3.9373,3.9588,3.9781,3.9781,4.0,4.0167,4.0167,4.0167,4.0167,4.0167,4.0339,4.0473,4.0489,4.1361,4.1616,4.0848,4.1506,4.1603,4.0823,4.0591,4.0389,4.0196,3.9989,3.98,3.9577,3.9577,3.954,3.9482,3.9482,3.9457,3.9391,3.9391,3.9391,3.9391,3.9391,3.9315,3.9197,3.9197,3.9156,3.9101,3.9101,3.9101,3.9101,3.9101,3.9101,3.9101,4.0781,4.0642,4.0542,4.0504,4.0463,4.0424,4.0407,4.0336,4.0301,4.0301,4.0301,4.0301,4.0301,4.0301,4.0301,4.0301,4.0301,4.0301,4.0301,4.0301,4.0234,4.0117,4.0106,4.0036,3.99,4.0036,4.0046,3.9943,4.0096,4.0077,3.9943,3.9943,3.9889,3.9739,3.9739,3.9701,3.9619,3.9619,3.9452,3.9156,3.8691,3.8478,3.8417,3.8257,3.8209,3.8209,3.8209,3.8209,3.8209,3.8209,3.8209,3.8209,3.8257,3.829,3.829,3.8372,3.8389,3.8389,3.8389,3.8385,3.838,3.8314,3.8344,3.8373,3.8373,3.8421,3.8465,3.8499,3.8759,3.8966,3.8952,3.9251,3.9496,3.9496,3.9552,3.9613,3.9613,3.9613,3.9613,3.9613,3.9747,3.9994,4.0397,4.0704,4.0844,4.0726,4.0926,4.0892,4.0583,4.0419,4.0203,3.9905,3.9758,3.9604,3.9438,3.9457,3.9399,3.9283,3.9283,3.9269,3.9256,3.9202,3.9202,3.9242,3.9202,3.9161,3.9129,3.9129,3.9115,3.9101,3.9101,3.9101,3.9101,3.9101,3.9101,3.9101,4.078,4.0623,4.0496,4.0496,4.0436,4.0407,4.0407,4.0346,4.0301,4.0301,4.0301,4.0301,4.0301,4.0301,4.0301,4.0301,4.0301,4.0301,4.0301,4.0244,4.0147,4.0015,3.9954,3.9878,3.9773,3.9867,3.99,3.9815,3.9943,3.9943,3.9815,3.9815,3.9758,3.9661,3.9661,3.9644,3.9589,3.9589,3.9445,3.9183,3.8913,3.8676,0.0,3.8368,3.829,3.8209,3.8209,3.8209,3.8209,3.8209,3.8209,3.8209,3.8209,3.8209,3.8209,3.8209,3.8209,3.8209,3.8209,3.8139,3.8052,3.7948,3.7896,3.7861,3.7861,3.7929,3.8012,3.8064,3.8326,3.853,3.8502,3.8703,3.8927,3.9101,3.9288,3.9405,3.9405,3.9405,3.9405,3.9405,3.9458,3.9656,4.0012,4.0166,4.0273,4.0348,4.0356,4.0323,4.0247,4.0072,3.9913,3.9713,3.9573,3.9483,3.9405,3.9405,3.9328,3.9197,3.9197,3.9183,3.9156,3.9115,3.9129,3.9156,3.9115,3.9101,3.9101,3.9101,3.9101,3.9101,3.9101,3.9101,3.9101,3.9101,3.9101,3.9101,4.0746,4.0622,4.0542,4.0527,4.046,4.0405,4.0407,4.0346,4.0301,4.0301,4.0301,4.0301,4.0301,4.0301,4.0301,4.0301,4.0301,4.0301,4.0263,4.0157,4.0036,3.9878,3.9751,3.9665,3.9589,3.9672,3.9693,3.9701,3.9804,3.9804,3.9701,3.9701,3.9661,3.9589,3.9589,3.9589,3.9589,3.9589,3.9458,3.9237,3.921,3.8956,3.8585,3.8523,3.8401,3.8241,3.8209,3.8209,3.8209,3.8209,3.8209,3.8209,3.8209,3.8209,3.8209,3.8209,3.8209,3.8209,3.8209,3.8021,3.7828,3.7631,3.7428,3.7259,3.7259,3.7394,3.7542,3.7667,3.7912,3.808,3.8033,3.8099,3.8293,3.8636,3.8984,3.9253,3.9293,3.9307,3.932,3.9346,3.936,0.0,3.9514,3.9735,3.9877,3.9897,3.9897,3.9887,3.9867,3.9682,3.9564,3.9559,3.9433,3.936,3.936,3.936,3.9301,3.9183,3.9183,3.9156,3.9101,3.9101,3.9101,3.9101,3.9101,3.9101,3.9101,3.9101,3.9101,3.9101,3.9101,3.9101,3.9101,3.9101,3.9101,3.9101,4.0806,4.0749,4.0724,4.0668,4.0571,4.046,4.0405,4.0346,4.0301,4.0301,4.0301,4.0301,4.0301,4.0301,4.0301,4.0301,4.0301,4.0244,4.0137,4.0117,3.9986,3.9739,3.9717,3.9665,3.9589,3.9672,3.9677,3.9626,3.9689,3.9689,3.9626,3.9626,3.9614,3.9589,3.9589,3.9589,3.9589,3.9589,3.9564,3.9514,3.9296,3.9156,3.9045,3.8646,3.8478,3.8433,3.8257,3.8209,3.8209,3.8209,3.8209,3.8209,3.8209,3.8209,3.8209,3.8209,3.8209,3.8209,3.8209,3.7916,3.7631,3.7613,3.7317,3.7066,3.7066,3.7087,3.7108,3.7145,3.7394,3.7632,3.7614,3.7896,3.8133,3.82,3.8281,3.8426,3.8703,3.8733,3.8836,3.9115,3.9142,3.9156,3.9197,3.9463,3.9724,3.9882,3.9893,3.9829,3.9649,3.9566,3.9446,3.9285,3.9197,3.9142,3.9142,3.9142,3.9129,3.9115,3.9115,3.9115,3.9101,3.9101,3.9101,3.9101,3.9101,3.9101,3.9101,3.9101,3.9101,3.9101,3.9101,3.9101,3.9101,3.9101,3.9101,3.9101,4.0878,4.0825,4.0773,4.0662,4.0574,4.0466,4.036,4.0309,4.0301,4.0301,4.0301,4.0301,4.0301,4.0301,4.0301,4.0301,4.0301,4.0244,4.0117,4.0036,3.9911,3.9717,3.9665,3.9631,3.9589,3.9631,3.9631,3.9589,3.9631,3.9631,3.9589,3.9589,3.9589,3.9589,3.9589,3.9589,3.9589,3.9589,3.9589,3.9577,3.9458,3.9322,3.9183,3.8942,3.8707,3.8494,3.8385,3.8289,3.8209,3.8209,3.8209,3.8209,3.8209,3.8209,3.8209,3.8209,3.8209,3.8175,3.8055,3.7828,3.7558,3.7484,3.722,3.7007,3.7007,3.7007,3.7007,3.7007,3.7127,3.7243,3.7243,3.7541,3.7791,3.7791,3.7965,3.8168,3.8314,3.8486,3.8655,3.8822,3.8984,3.9101,3.9101,3.9253,3.9371,3.9489,3.9489,3.9433,3.9345,3.9318,3.9245,3.9156,3.9115,3.9101,3.9101,3.9101,3.9101,3.9101,3.9101,3.9101,3.9101,3.9101,3.9101,3.9101,3.9101,3.9101,3.9101,3.9101,3.9101,3.9101,3.9101,3.9101,3.9101,3.9101,3.9101,3.9101,4.0948,4.089,4.0811,4.0675,4.0582,4.0472,4.0366,4.0318,4.0301,4.0301,4.0301,4.0301,4.0301,4.0301,4.0301,4.0301,4.0301,4.0234,4.0067,3.9973,3.9826,3.9689,3.9631,3.9589,3.9589,3.9589,3.9589,3.9589,3.9589,3.9589,3.9589,3.9589,3.9589,3.9589,3.9589,3.9589,3.9589,3.9589,3.9589,3.9589,3.9589,3.947,3.9283,3.9224,3.8942,3.8572,3.8525,3.8368,3.8209,3.8209,3.8209,3.8209,3.8209,3.8209,3.8209,3.8209,3.8175,3.8089,3.7934,3.7721,3.7503,3.7334,3.7143,3.7007,3.7007,3.7007,3.7007,3.7007,3.7007,3.7007,3.7007,3.7206,3.7394,3.7394,3.765,3.7897,3.7948,3.8198,3.8389,3.8436,3.8778,3.8984,3.8937,3.9027,3.9073,3.9073,3.9087,3.9101,3.9101,3.9101,3.9101,3.9101,3.9101,3.9101,3.9101,3.9101,3.9101,3.9101,3.9101,3.9101,3.9101,3.9101,3.9101,3.9101,3.9101,3.9101,3.9101,3.9101,3.9101,3.9101,3.9101,3.9101,3.9101,3.9101,3.9101,3.9101,4.1072,4.1025,4.0956,4.0883,4.0712,4.0566,4.0489,4.0389,4.0301,4.0301,4.0301,4.0301,4.0301,4.0301,4.0301,4.0301,4.0301,4.0176,3.9951,3.99,3.98,3.9614,3.9602,3.9589,3.9589,3.9589,3.9589,3.9589,3.9589,3.9589,3.9589,3.9589,3.9589,3.9589,3.9589,3.9589,3.9589,3.9589,3.9589,3.9589,3.9589,3.9577,3.954,3.9296,3.9045,3.8833,3.8588,3.8368,3.8209,3.8209,3.8209,3.8209,3.8209,3.8209,3.8209,3.8209,3.8055,3.7916,3.7917,3.7613,3.7316,3.7297,3.7143,3.7007,3.7007,3.7007,3.7007,3.7007,3.7007,3.7007,3.7007,3.7029,3.7048,3.7048,3.7087,3.7204,3.7505,3.7578,3.7685,3.7946,3.8373,3.8609,3.8465,3.8796,3.9007,3.9007,3.9078,3.9101,3.9101,3.9101,3.9101,3.9101,3.9101,3.9101,3.9101,3.9101,3.9101,3.9101,3.9101,3.9101,3.9101,3.9101,3.9101,3.9101,3.9101,3.9101,3.9101,3.9101,3.9101,3.9101,3.9101,3.9101,3.9101,3.9101,3.9101,3.9101,4.1046,4.1026,4.0979,4.0863,4.0771,4.0687,4.0586,4.0441,4.036,4.036,4.0318,4.0301,4.0301,4.0301,4.0301,4.0301,4.0225,4.0106,3.9911,3.9815,3.9731,3.962,3.9589,3.9589,3.9589,3.9589,3.9589,3.9589,3.9589,3.9589,3.9589,3.9589,3.9589,3.9589,3.9589,3.9589,3.9589,3.9589,3.9589,3.9589,3.9589,3.9589,3.9577,3.947,3.9283,3.9045,3.8815,3.8572,3.8352,3.8241,3.8209,3.8209,3.8209,3.8124,3.8021,3.8021,3.7881,3.7685,3.7576,3.741,3.7259,3.7143,3.7066,3.7007,3.7007,3.7007,3.7007,3.7007,3.7007,3.7007,3.7007,3.7007,3.7007,3.7007,3.6928,3.693,3.7052,3.7226,3.7358,3.747,3.7824,3.8143,3.8323,3.8275,3.8421,3.8906,3.8964,3.9007,3.9036,3.905,3.9064,3.9101,3.9101,3.9101,3.9101,3.9101,3.9101,3.9101,3.9101,3.9101,3.9101,3.9101,3.9101,3.9101,3.9101,3.9101,3.9101,3.9101,3.9101,3.9101,3.9101,3.9101,3.9101,3.9101,3.9101,3.9101,4.1003,4.0999,4.0961,4.0848,4.0818,4.0771,4.0675,4.0545,4.0462,4.0462,4.0419,4.0363,4.031,4.0301,4.0301,4.0301,4.0186,4.0036,3.9911,3.9762,3.9665,3.9602,3.9589,3.9589,3.9589,3.9589,3.9589,3.9589,3.9589,3.9589,3.9589,3.9589,3.9589,3.9589,3.9589,3.9589,3.9589,3.9589,3.9589,3.9589,3.9589,3.9589,3.9589,3.9589,3.9432,3.9183,3.905,3.8815,3.8572,3.837,3.8239,3.8189,3.8123,3.8003,3.7881,3.7828,3.7667,3.7484,3.7334,3.7259,3.7182,3.7046,3.7007,3.7007,3.7007,3.7007,3.7007,3.7007,3.7007,3.7007,3.7007,3.7007,3.6987,3.6948,3.6869,3.6788,3.6768,3.6933,3.7052,3.6997,3.7323,3.7649,3.7892,3.7874,3.8077,3.8646,3.8803,3.8925,3.9011,3.8993,3.9036,3.9101,3.9101,3.9101,3.9101,3.9101,3.9101,3.9101,3.9101,3.9101,3.9101,3.9101,3.9101,3.9101,3.9101,3.9101,3.9101,3.9101,3.9101,3.9101,3.9101,3.9101,3.9101,3.9101,3.9101,3.9101,4.1003,4.0996,4.098,4.0917,4.0837,4.0794,4.0794,4.0675,4.0588,4.0588,4.0607,4.0519,4.0319,4.0301,4.0301,4.0301,4.0186,4.0036,3.9911,3.9762,3.9665,3.9602,3.9589,3.9589,3.9589,3.9589,3.9589,3.9589,3.9589,3.9589,3.9589,3.9589,3.9589,3.9589,3.9589,3.9589,3.9589,3.9589,3.9589,3.9589,3.9589,3.9589,3.9589,3.9589,3.9432,3.9197,3.9197,3.9078,3.8848,3.8588,3.8364,3.8168,3.7968,3.7899,3.7864,3.7667,3.7466,3.7297,3.7297,3.7163,3.6989,3.7007,3.7007,3.7007,3.7007,3.7007,3.7007,3.7007,3.7007,3.7007,3.7007,3.7007,3.6968,3.6811,3.6809,3.6768,3.6722,3.6702,3.6643,3.6523,3.6937,3.7154,3.702,3.772,3.8196,3.8196,3.8569,3.8866,3.8979,3.8993,3.9036,3.9101,3.9101,3.9101,3.9101,3.9101,3.9101,3.9101,3.9101,3.9101,3.9101,3.9101,3.9101,3.9101,3.9101,3.9101,3.9101,3.9101,3.9101,3.9101,3.9101,3.9101,3.9101,3.9101,3.9101,3.9101,4.0935,4.093,4.0926,4.0893,4.0888,4.0868,4.0868,4.0792,4.0732,4.0732,4.0655,4.0586,4.0504,4.0417,4.0353,4.0291,4.0087,3.9962,3.99,3.972,3.9619,3.9589,3.9589,3.9589,3.9589,3.9589,3.9589,3.9589,3.9589,3.9589,3.9589,3.9589,3.9589,3.9589,3.9589,3.9589,3.9589,3.9589,3.9589,3.9589,3.9589,3.9589,3.9589,3.9589,3.9552,3.9445,3.9269,3.9156,3.9059,3.8785,3.8494,3.815,3.7915,3.7667,3.7466,3.741,3.7259,3.7105,3.7105,3.7046,3.7007,3.7007,3.7007,3.7007,3.7007,3.7007,3.7007,3.7007,3.7007,3.6968,3.6888,3.6851,3.6829,3.6745,3.6664,3.6585,3.6582,3.6464,3.6423,3.6381,3.6492,3.6681,3.6902,3.6921,3.7116,3.7685,3.7596,3.7929,3.8877,3.8983,3.9036,3.9101,3.9101,3.9101,3.9101,3.9045,3.9036,3.9036,3.9036,3.9036,3.9036,3.8993,3.8964,3.8964,3.8964,3.8964,3.8964,3.8964,3.8964,3.8964,3.8964,3.8964,3.8964,3.8964,3.8964,3.8964,4.0907,4.0907,4.0907,4.0907,4.0907,4.0907,4.0907,4.0863,4.0851,4.0851,4.0761,4.0694,4.0675,4.0607,4.0512,4.0422,4.0139,3.9977,3.9977,3.975,3.9589,3.9589,3.9589,3.9589,3.9589,3.9589,3.9589,3.9589,3.9589,3.9589,3.9589,3.9589,3.9589,3.9589,3.9589,3.9589,3.9589,3.9589,3.9596,3.9552,3.9596,3.9577,3.9571,3.9571,3.9571,3.9546,3.9341,3.9288,3.9229,3.8964,3.8661,3.8312,3.7913,3.7595,3.7337,3.7203,3.7105,3.7007,3.7007,3.7007,3.7007,3.7007,3.7007,3.7007,3.7007,3.7007,3.7007,3.7007,3.6968,3.6908,3.6829,3.6788,3.6728,3.6643,3.6544,3.6482,3.6423,3.6343,3.6301,3.6301,3.6301,3.6388,3.6658,3.6577,3.6721,3.7246,3.7209,3.7524,3.8378,3.8582,3.8796,3.9017,3.9017,3.9017,3.9017,3.8979,3.895,3.895,3.895,3.895,3.895,3.8925,3.891,3.891,3.891,3.891,3.891,3.891,3.891,3.891,3.891,3.891,3.891,3.891,3.891,3.891,4.0907,4.0907,4.0907,4.0907,4.0907,4.0907,4.0907,4.0907,4.0907,4.0907,4.0907,4.0878,4.0818,4.0806,4.0751,4.0641,4.03,4.012,4.012,3.9815,3.9638,3.9614,3.9614,3.9614,3.9589,3.9589,3.9589,3.9589,3.9589,3.9608,3.9577,3.9577,3.9596,3.9596,3.9596,3.9596,3.9596,3.9596,3.9558,3.9495,3.9571,3.9558,3.9495,3.9495,3.9495,3.9482,3.9431,3.9405,3.936,3.9106,3.8865,3.8609,3.8032,3.7685,3.7432,3.7106,3.7007,3.7007,3.7007,3.7007,3.7007,3.7007,3.7007,3.7007,3.6987,3.6987,3.697,3.6987,3.6888,3.6788,3.6788,3.6725,3.6643,3.6502,3.6502,3.6444,3.6322,3.6301,3.6301,3.6301,3.6301,3.6301,3.6301,3.6638,3.686,3.686,3.7266,3.7524,3.7542,3.7893,3.8344,3.8848,3.8862,3.8862,3.891,3.891,3.8877,3.8877,3.8896,3.8896,3.8877,3.8896,3.8896,3.8896,3.8896,3.8896,3.8896,3.8896,3.8896,3.8896,3.8896,3.8896,3.8896,3.8896,3.8896,3.8896,4.0907,4.0907,4.0907,4.0907,4.0907,4.0907,4.0907,4.0907,4.0907,4.0907,4.0907,4.0878,4.0883,4.0878,4.0863,4.084,4.0511,4.0319,4.0319,4.0167,3.9989,3.9845,3.9826,3.9754,3.9602,3.9589,3.9589,3.9589,3.9589,3.9564,3.952,3.952,3.9495,3.9457,3.9457,3.9457,3.9457,3.9457,3.9444,3.9431,3.9444,3.9444,3.9431,3.9431,3.9431,3.9418,3.9405,3.9405,3.9373,3.9215,3.8937,3.867,3.847,3.7997,3.7432,3.7106,3.7007,3.7007,3.7007,3.7007,3.7007,3.7007,3.7007,3.697,3.6869,3.6849,3.6829,3.6786,3.6745,3.6684,3.6585,3.6564,3.6502,3.6381,3.636,3.6339,3.6301,3.6301,3.6301,3.6301,3.6301,3.6301,3.6301,3.6388,3.6451,3.6451,3.6536,3.6741,3.7038,3.7152,3.7596,3.8423,3.8455,3.8582,3.891,3.8851,3.8822,3.8822,3.878,3.878,3.8822,3.878,3.875,3.875,3.875,3.875,3.875,3.875,3.875,3.875,3.875,3.875,3.875,3.875,3.875,3.875,4.0907,4.0907,4.0907,4.0907,4.0907,4.0907,4.0907,4.0907,4.0907,4.0907,4.0907,4.0907,4.0907,4.0898,4.0903,4.0902,4.0616,4.0446,4.0442,4.0285,4.0158,4.004,4.004,3.9937,3.9731,3.9715,3.9631,3.952,3.952,3.9495,3.9457,3.9457,3.9431,3.9405,3.9405,3.9405,3.9405,3.9405,3.936,3.9315,3.9391,3.936,3.9315,3.9315,3.9315,3.9301,3.9275,3.9261,3.9261,3.917,3.9027,3.8851,3.8655,3.8231,3.7703,3.7338,3.7108,3.7007,3.7007,3.7007,3.7007,3.7007,3.695,3.6888,3.6829,3.6768,3.6745,3.6702,3.6643,3.6602,3.6523,3.6444,3.6364,3.6322,3.6301,3.6301,3.6301,3.6301,3.6301,3.6301,3.6301,3.6301,3.6301,3.6301,3.6301,3.6301,3.6301,3.6388,3.6618,3.6618,3.7114,3.8181,3.8214,3.8394,3.8792,3.878,3.8747,3.8747,3.8723,3.8719,3.875,3.8723,3.8707,3.8707,3.8707,3.8707,3.8707,3.8707,3.8707,3.8707,3.8707,3.8707,3.8707,3.8707,3.8707,3.8707,4.0907,4.0907,4.0907,4.0907,4.0907,4.0907,4.0907,4.0907,4.0907,4.0907,4.0907,4.0907,4.0903,4.0898,4.0897,4.0892,4.0681,4.0544,4.0547,4.0397,4.0278,4.0251,4.0251,4.0158,3.9937,3.9873,3.9712,3.9451,3.9451,3.9425,3.9373,3.9373,3.936,3.9346,3.9346,3.9346,3.9346,3.9346,3.9288,3.9183,3.9301,3.9288,3.9183,3.9183,3.9183,3.9183,3.9129,3.9101,3.9101,3.9101,3.9101,3.9059,3.8763,3.8457,3.81,3.7703,3.7356,3.7068,3.7009,3.7007,3.7007,3.697,3.6871,3.6788,3.6768,3.6725,3.6664,3.6643,3.6544,3.6482,3.6482,3.6381,3.6301,3.6301,3.6301,3.6301,3.6301,3.6301,3.6301,3.6301,3.6301,3.6301,3.6301,3.6301,3.6301,3.6301,3.6301,3.6301,3.6301,3.6301,3.6801,3.7879,3.7913,3.8135,3.8611,3.8676,3.8707,3.8707,3.8707,3.8707,3.8707,3.8707,3.8707,3.8707,3.8673,3.8658,3.8658,3.8658,3.8643,3.8643,3.8643,3.8643,3.8643,3.8643,3.8658,3.8658,4.0907,4.0907,4.0907,4.0907,4.0907,4.0907,4.0907,4.0907,4.0907,4.0907,4.0907,4.0898,4.0893,4.0907,4.0886,4.0818,4.0788,4.0751,4.0745,4.072,4.0639,4.0465,4.0457,4.0356,4.0158,4.0081,3.9918,3.9647,3.9647,3.9521,3.9242,3.9242,3.9215,3.9161,3.9161,3.9161,3.9161,3.9161,3.9129,3.9115,3.9129,3.9129,3.9115,3.9115,3.9115,3.9115,3.9101,3.9101,3.9101,3.9101,3.9101,3.9101,3.9045,3.8792,3.8439,3.81,3.7739,3.7357,3.7087,3.7007,3.697,3.6869,3.6829,3.6768,3.6585,3.6544,3.6502,3.6402,3.636,3.6322,3.6322,3.6322,3.6301,3.6301,3.6301,3.6301,3.6301,3.6301,3.6301,3.6301,3.6301,3.6301,3.6301,3.6301,3.6301,3.6301,3.6301,3.6301,3.6301,3.6301,3.6536,3.7075,3.7094,3.7433,3.8203,3.853,3.8707,3.8707,3.8707,3.8707,3.8707,3.8707,3.8707,3.8692,3.8575,3.8525,3.8525,3.8481,3.8449,3.8449,3.8449,3.8449,3.8449,3.8449,3.8478,3.851,4.0907,4.0907,4.0907,4.0907,4.0907,4.0907,4.0907,4.0907,4.0907,4.0907,4.0893,4.0898,4.0902,4.0876,4.0829,4.08,4.0802,4.0796,4.0796,4.0803,4.0765,4.0666,4.066,4.0527,4.0267,4.011,3.9951,3.9739,3.9739,3.9671,3.9519,3.9408,3.935,3.9311,3.9151,3.9101,3.9101,3.9101,3.9101,3.9101,3.9101,3.9101,3.9101,3.9101,3.9101,3.9101,3.9101,3.9101,3.9101,3.9101,3.9101,3.9101,3.9101,3.8748,3.8298,3.8152,3.7685,3.7204,3.7048,3.6948,3.6888,3.6829,3.6728,3.6609,3.6523,3.6444,3.6364,3.6322,3.6301,3.6301,3.6301,3.6301,3.6301,3.6301,3.6301,3.628,3.6255,3.6251,3.6212,3.6148,3.6131,3.6131,3.6131,3.6131,3.6131,3.6131,3.6131,3.6131,3.6131,3.6131,3.6216,3.6409,3.6939,3.7505,3.8101,3.8285,3.8385,3.8385,3.83,3.815,3.7947,3.7912,3.8016,3.8201,3.815,3.8251,3.8446,3.8415,3.8399,3.8399,3.8399,3.8267,3.8083,3.8083,3.7964,3.779,4.0893,4.0907,4.0907,4.0907,4.0907,4.0907,4.0907,4.0907,4.0903,4.0898,4.0898,4.0897,4.0886,4.0823,4.0794,4.0808,4.0809,4.0797,4.0797,4.0797,4.0797,4.0797,4.0784,4.066,4.0378,4.0212,4.0072,3.9882,3.9882,3.9851,3.9797,3.9637,3.9561,3.9568,3.9311,3.9192,3.9178,3.9129,3.9101,3.9101,3.9101,3.9101,3.9101,3.9101,3.9101,3.9101,3.9101,3.9101,3.9101,3.9101,3.9101,3.9101,3.9101,3.8748,3.8261,3.7899,3.7131,3.6472,3.6823,3.6849,3.6768,3.6748,3.6609,3.6502,3.6444,3.6364,3.6301,3.6301,3.6301,3.6301,3.6301,3.6301,3.6301,3.6301,3.628,3.6255,3.6225,3.6165,3.6122,3.6019,3.5997,3.5997,3.5997,3.5997,3.5997,3.5997,3.5997,3.5997,3.5997,3.5997,3.5997,3.5997,3.6841,3.7433,3.7738,3.7843,3.7896,3.7896,3.779,3.7578,3.7268,3.7229,3.7377,3.7649,3.7632,3.7843,3.8236,3.81,3.8118,3.8185,3.8083,3.7861,3.7596,3.7596,3.7414,3.7135,4.0906,4.0907,4.0907,4.0907,4.0907,4.0907,4.0907,4.0907,4.0898,4.0907,4.0902,4.0881,4.0812,4.08,4.0808,4.0803,4.0797,4.0797,4.0797,4.0797,4.0797,4.0797,4.0739,4.0666,4.0573,4.0565,4.0425,4.0167,4.0167,4.0042,3.9797,3.9786,3.9775,3.9765,3.9561,3.9458,3.9446,3.9205,3.9101,3.9101,3.9101,3.9101,3.9101,3.9101,3.9101,3.9101,3.9101,3.9101,3.9101,3.9101,3.9101,3.9101,3.9101,3.9073,3.875,3.7307,3.5794,3.4913,3.6322,3.6705,3.6664,3.6544,3.6523,3.6482,3.6343,3.6301,3.6301,3.6301,3.6301,3.6301,3.6301,3.6301,3.6301,3.6301,3.6251,3.6225,3.6204,3.6101,3.6019,3.5997,3.5997,3.5997,3.5997,3.5997,3.5997,3.5997,3.5997,3.5997,3.5997,3.5997,3.5997,3.5997,3.6433,3.6681,3.6721,3.7095,3.7266,3.7266,3.7266,3.7247,3.7209,3.7192,3.7228,3.7247,3.7116,3.7322,3.7703,3.7226,3.7228,3.7542,3.717,3.6997,3.6978,3.6978,3.698,3.7001,4.0976,4.0928,4.0907,4.0907,4.0907,4.0903,4.0903,4.0898,4.0893,4.0848,4.0846,4.0823,4.08,4.0802,4.0809,4.0797,4.0797,4.0797,4.0797,4.0797,4.0784,4.0739,4.0707,4.0666,4.0607,4.0068,3.9746,3.9643,3.9106,3.8777,3.8691,3.9061,3.9182,3.9075,3.9378,3.9414,3.9245,3.9137,3.9101,3.9101,3.9101,3.9101,3.9101,3.9101,3.9101,3.9101,3.9101,3.9101,3.9101,3.9101,3.9073,3.8957,3.8452,3.7945,3.7253,3.5652,3.4734,3.4395,3.4943,3.5119,3.5141,3.5102,3.5042,3.512,3.5528,3.5611,3.5749,3.6215,3.6301,3.6301,3.6301,3.6276,3.6251,3.6251,3.6165,3.6058,3.5949,3.5905,3.5861,3.5756,3.5756,3.5756,3.5756,3.5756,3.5756,3.5756,3.5756,3.5756,3.5756,3.5756,3.5756,3.5756,3.5898,3.6182,3.66,3.6744,3.6823,3.6823,3.6744,3.658,3.6329,3.6249,3.6374,3.6638,3.6597,3.6801,3.7188,3.6978,3.6997,3.7113,3.6958,3.6759,3.6533,3.6533,3.6371,3.6122,4.1,4.0953,4.092,4.0903,4.0893,4.0883,4.0877,4.0872,4.0842,4.0815,4.0792,4.0794,4.0802,4.0809,4.0797,4.0797,4.0545,4.039,4.039,4.0146,4.0089,4.0281,4.0036,3.9848,3.9783,3.9198,3.8883,3.8892,3.8296,3.8007,3.8007,3.8421,3.8542,3.8442,3.8769,3.8778,3.8533,3.848,3.855,3.8711,3.8711,3.8859,3.9101,3.9101,3.9101,3.9101,3.9101,3.892,3.8683,3.8683,3.8479,3.8099,3.7437,3.6513,3.5435,3.4334,3.3756,3.3448,3.3388,3.341,3.3571,3.4056,3.4135,3.4283,3.5025,3.5197,3.5404,3.6121,3.6276,3.6255,3.6216,3.617,3.6144,3.6144,3.6019,3.5905,3.5817,3.5773,3.5689,3.5622,3.56,3.56,3.56,3.56,3.56,3.56,3.56,3.56,3.56,3.56,3.56,3.56,3.56,3.5805,3.6245,3.6287,3.6287,3.627,3.6203,3.5985,3.5701,3.5616,3.5711,3.5997,3.5997,3.6203,3.658,3.6457,3.6478,3.6563,3.6437,3.6224,3.5997,3.5997,3.5778,3.5503,4.1017,4.099,4.0983,4.0908,4.0902,4.0877,4.0812,4.0807,4.0796,4.08,4.0794,4.0808,4.0797,4.0797,4.0797,4.0777,3.9984,3.9481,3.9481,3.8677,3.8543,3.9341,3.8554,3.8077,3.8007,3.7988,3.7988,3.7988,3.7988,3.7988,3.7988,3.7988,3.7988,3.7981,3.7781,3.7557,3.7275,3.7085,3.7343,3.7894,3.7894,3.8377,3.9082,3.9082,3.9082,3.9082,3.9082,3.8521,3.7798,3.7798,3.7207,3.6445,3.6091,3.4875,3.3599,3.3582,3.2738,3.18,3.18,3.18,3.2162,3.3699,3.4079,3.4266,3.5007,3.518,3.5383,3.6053,3.6187,3.6144,3.6019,3.5997,3.5997,3.5997,3.5883,3.5795,3.5795,3.5689,3.56,3.56,3.56,3.56,3.56,3.56,3.56,3.56,3.56,3.56,3.56,3.56,3.56,3.56,3.56,3.5571,3.5492,3.5571,3.56,3.56,3.56,3.5571,3.5492,3.5492,3.5423,3.5291,3.5291,3.5532,3.5864,3.5464,3.5554,3.5864,3.5464,3.5291,3.5291,3.5291,3.5291,3.5291,4.1014,4.097,4.0906,4.0844,4.0837,4.0826,4.0798,4.0792,4.08,4.079,4.0809,4.0571,3.9946,3.9887,3.9636,3.903,3.874,3.8593,3.8594,3.7733,3.7327,3.7571,3.7905,3.8077,3.8007,3.7411,3.7084,3.7084,3.6519,3.625,3.625,3.6808,3.7018,3.6884,3.7262,3.7303,3.7085,3.6876,3.6894,3.7058,3.7058,3.7161,3.7357,3.7397,3.7357,3.7289,3.733,3.7155,3.6851,3.6622,3.6322,3.5866,3.4623,3.3526,3.2651,3.2404,3.2084,3.18,3.18,3.18,3.1903,3.2369,3.249,3.266,3.336,3.3925,3.4469,3.5137,3.5703,3.6058,3.5997,3.591,3.5861,3.5861,3.5751,3.5667,3.5667,3.5622,3.56,3.56,3.56,3.56,3.56,3.56,3.56,3.56,3.56,3.5594,3.552,3.552,3.5475,3.5389,3.5389,3.5383,3.5377,3.5475,3.5475,3.5389,3.5389,3.5383,3.5377,3.5377,3.5337,3.5291,3.5291,3.5367,3.5464,3.536,3.5367,3.5464,3.536,3.5291,3.5291,3.5291,3.5291,3.5291,4.1007,4.0969,4.0905,4.0823,4.0809,4.0798,4.0808,4.0511,4.0293,4.0294,3.9978,3.9572,3.903,3.8992,3.876,3.8251,3.7878,3.7525,3.7154,3.6595,3.6292,3.6298,3.6799,3.7055,3.7007,3.6481,3.6231,3.6231,3.5731,3.55,3.5519,3.6,3.6124,3.5948,3.6301,3.6317,3.6043,3.5923,3.6006,3.6222,3.6196,3.6356,3.6594,3.6607,3.6567,3.6518,3.6541,3.631,3.5924,3.559,3.5038,3.4298,3.33,3.2546,3.1984,3.1746,3.167,3.167,3.167,3.167,3.167,3.167,3.1707,3.1915,3.2649,3.3328,3.4004,3.469,3.5398,3.5888,3.5844,3.5778,3.5728,3.5728,3.5644,3.56,3.56,3.56,3.56,3.56,3.56,3.56,3.56,3.56,3.5577,3.5571,3.5503,3.5458,3.5423,3.5423,3.5383,3.5291,3.5291,3.5268,3.5222,3.5291,3.5331,3.5291,3.5291,3.5268,3.5222,3.5222,3.5198,3.5152,3.5152,3.5152,3.5152,3.5152,3.5152,3.5152,3.5152,3.5152,3.5152,3.5152,3.5152,3.5152,4.0797,4.0773,4.0724,4.0604,4.0568,4.0569,4.0565,3.9887,3.9385,3.9385,3.8682,3.8174,3.8096,3.8077,3.8057,3.798,3.7235,3.6401,3.5554,3.5502,3.5502,3.55,3.55,3.55,3.55,3.55,3.55,3.55,3.55,3.5493,3.546,3.546,3.5361,3.5166,3.5149,3.4936,3.4602,3.4561,3.4876,3.5367,3.5304,3.5723,3.6345,3.631,3.6265,3.6251,3.6283,3.5749,3.5014,3.4652,3.35,3.2231,3.2162,3.1894,3.1578,3.1517,3.1498,3.1498,3.1498,3.1498,3.1498,3.1498,3.1557,3.1768,3.2507,3.32,3.3847,3.4461,3.5217,3.5734,3.5622,3.56,3.56,3.56,3.56,3.56,3.56,3.56,3.56,3.56,3.56,3.56,3.5577,3.5577,3.5549,3.5492,3.5377,3.5291,3.5268,3.5268,3.5268,3.5268,3.5268,3.5198,3.5065,3.5065,3.5135,3.5268,3.5268,3.5198,3.5065,3.5065,3.5018,3.4899,3.4875,3.4859,3.4859,3.4859,3.4851,3.4828,3.4851,3.4859,3.4875,3.4851,3.4875,3.4899,3.907,3.9002,3.8948,3.8863,3.8808,3.8766,3.876,3.8605,3.8489,3.8489,3.8309,3.7941,3.727,3.7174,3.6911,3.6211,3.5951,3.5714,3.5509,3.5495,3.5494,3.55,3.55,3.55,3.55,3.55,3.55,3.55,3.55,3.5424,3.5258,3.5258,3.5168,3.4964,3.4811,3.4678,3.4591,3.4393,3.4333,3.4402,3.4389,3.4406,3.4481,3.4521,3.4468,3.4388,3.4442,3.4305,3.4009,3.3406,3.2559,3.1765,3.173,3.1634,3.1519,3.1498,3.1498,3.1498,3.1498,3.1498,3.1498,3.1498,3.1426,3.1423,3.1594,3.2664,3.3624,3.3672,3.473,3.5622,3.56,3.56,3.56,3.56,3.56,3.56,3.56,3.56,3.56,3.56,3.56,3.5594,3.552,3.5429,3.536,3.5337,3.5331,3.5245,3.5152,3.5135,3.5105,3.4994,3.4994,3.497,3.4947,3.4947,3.497,3.4994,3.4994,3.497,3.4947,3.4947,3.4923,3.4899,3.4667,3.4594,3.4594,3.4594,3.4448,3.43,3.4497,3.4594,3.4546,3.4349,3.4546,3.4875,3.8471,3.8419,3.8361,3.8278,3.8214,3.8193,3.8193,3.7845,3.7574,3.7574,3.7251,3.6826,3.6381,3.6323,3.6132,3.5647,3.554,3.5502,3.5495,3.5494,3.55,3.55,3.55,3.55,3.55,3.55,3.55,3.55,3.55,3.5403,3.5209,3.5209,3.5046,3.4751,3.4636,3.4528,3.4404,3.4221,3.4136,3.4099,3.4036,3.3959,3.3895,3.3895,3.3855,3.3788,3.3829,3.362,3.3273,3.2892,3.2231,3.1579,3.1485,3.1428,3.1387,3.1366,3.1363,3.1363,3.1363,3.1363,3.1363,3.1363,3.1291,3.1254,3.1295,3.2445,3.3469,3.3406,3.4568,3.56,3.56,3.56,3.56,3.56,3.56,3.56,3.56,3.56,3.56,3.56,3.5571,3.552,3.5406,3.5268,3.5198,3.5198,3.5152,3.5065,3.4994,3.4994,3.497,3.4899,3.4899,3.4899,3.4899,3.4899,3.4899,3.4899,3.4899,3.4828,3.4707,3.4707,3.4643,3.4521,3.4374,3.43,3.43,3.43,3.4226,3.4126,3.425,3.43,3.43,3.4151,3.4275,3.4497,3.8012,3.7976,3.7916,3.7802,3.7777,3.7767,3.7767,3.7154,3.669,3.669,3.611,3.5704,3.5704,3.5698,3.5651,3.5591,3.5541,3.5502,3.55,3.55,3.55,3.55,3.55,3.55,3.55,3.55,3.55,3.55,3.5472,3.5339,3.5132,3.5098,3.487,3.4495,3.4495,3.4363,3.4161,3.4111,3.4074,3.4061,3.3947,3.3895,3.3868,3.3815,3.3807,3.3807,3.3807,3.3361,3.2763,3.2734,3.2197,3.1523,3.1353,3.1295,3.1274,3.123,3.119,3.119,3.119,3.119,3.119,3.119,3.119,3.1263,3.1426,3.2469,3.344,3.3558,3.4653,3.56,3.56,3.56,3.56,3.56,3.56,3.56,3.5577,3.5577,3.5577,3.5554,3.5475,3.54,3.5268,3.5135,3.5065,3.5065,3.497,3.4899,3.4899,3.4899,3.4899,3.4899,3.4899,3.4899,3.4899,3.4851,3.4828,3.4828,3.4804,3.4667,3.4497,3.4448,3.4325,3.4101,3.405,3.4025,3.4025,3.4025,3.4,3.3975,3.4,3.4025,3.405,3.4075,3.405,3.3975,3.6327,3.6238,3.6156,3.6138,3.6075,3.6033,3.6033,3.5936,3.5858,3.5858,3.5762,3.5704,3.5704,3.5639,3.5598,3.5522,3.5515,3.5507,3.55,3.55,3.55,3.55,3.55,3.55,3.55,3.55,3.55,3.55,3.5331,3.5115,3.4841,3.468,3.442,3.4086,3.4086,3.4061,3.4023,3.4023,3.3985,3.3921,3.3908,3.3855,3.3802,3.3788,3.3807,3.3807,3.3807,3.3332,3.27,3.2702,3.2092,3.1334,3.1315,3.1254,3.121,3.121,3.119,3.119,3.119,3.119,3.119,3.119,3.119,3.1379,3.2026,3.2818,3.3592,3.4218,3.503,3.56,3.56,3.56,3.56,3.56,3.56,3.5594,3.552,3.5514,3.5452,3.536,3.5222,3.5152,3.5128,3.4994,3.4923,3.4923,3.4923,3.4899,3.4899,3.4899,3.4899,3.4899,3.4899,3.4899,3.4899,3.4667,3.4546,3.4546,3.4325,3.4325,3.4497,3.425,3.4126,3.4101,3.3848,3.3745,3.3745,3.3745,3.3633,3.3424,3.3668,3.3745,3.3771,3.4,3.3797,3.345,3.5951,3.5878,3.578,3.5742,3.5727,3.5704,3.5704,3.5704,3.5704,3.5704,3.5704,3.5704,3.5704,3.5633,3.5566,3.5515,3.5508,3.55,3.55,3.55,3.55,3.55,3.55,3.55,3.55,3.55,3.55,3.55,3.5308,3.5053,3.4812,3.4586,3.4316,3.3998,3.3998,3.3998,3.3998,3.3959,3.3921,3.3895,3.3855,3.3834,3.3807,3.3807,3.3807,3.378,3.3597,3.3169,3.2669,3.2402,3.186,3.1295,3.1271,3.1213,3.119,3.119,3.119,3.119,3.119,3.119,3.119,3.119,3.119,3.1495,3.2645,3.3169,3.3609,3.4336,3.5098,3.56,3.56,3.56,3.56,3.56,3.5571,3.552,3.5492,3.5446,3.5337,3.5198,3.5152,3.5065,3.4994,3.4923,3.4899,3.4899,3.4899,3.4899,3.4899,3.4763,3.4756,3.4899,3.4366,3.4251,3.4667,3.4152,3.4002,3.4275,3.4,3.3949,3.405,3.3924,3.3797,3.3658,3.3529,3.3477,3.3477,3.3477,3.3398,3.3293,3.3424,3.3477,3.3503,3.3607,3.3503,3.3335]}]]